[[{"header":{"parameterUnit":"m.s-1","parameterCategory":1,"la1":31.0,"la2":29.5877,"lo1":-88.7671,"lo2":-86.6584,"dx":0.0162,"dy":0.0185,"nx":115,"ny":88,"refTime":"2023-01-19T18:00:00:Z","depth":0,"parameterNumber":2,"parameterNumberName":"U-component_of_WINDS"},"data":[0.0,0.0,0.0,0.0,0.0,0.0,0.0,0.0,0.0,0.0,0.0,0.0,0.0,0.0,0.0,0.0,0.0,0.0,0.0,0.0,0.0,0.0,0.0,0.0,0.0,0.0,0.0,0.0,0.0,0.0,0.0,0.0,0.0,0.0,0.0,0.0,0.0,0.0,0.0,0.0,0.0,0.0,0.0,0.0,0.0,0.0,0.0,0.0,0.0,0.0,0.0,0.0,0.0,0.0,0.0,0.0,0.0,0.0,0.0,0.0,0.0,0.0,0.0,0.0,0.0,0.0,0.0,0.0,0.0,0.0,0.0,0.0,0.0,0.0,0.0,0.0,0.0,0.0,0.0,0.0,0.0,0.0,0.0,0.0,0.0,0.0,0.0,0.0,0.0,0.0,0.0,0.0,0.0,0.0,0.0,0.0,0.0,0.0,0.0,0.0,0.0,0.0,0.0,0.0,0.0,0.0,0.0,0.0,0.0,0.0,0.0,0.0,0.0,0.0,0.0,0.0,0.0,0.0,0.0,0.0,0.0,0.0,0.0,0.0,0.0,0.0,0.0,0.0,0.0,0.0,0.0,0.0,0.0,0.0,0.0,0.0,0.0,0.0,0.0,0.0,0.0,0.0,0.0,0.0,0.0,0.0,0.0,0.0,0.0,0.0,0.0,0.0,0.0,0.0,0.0,0.0,0.0,0.0,0.0,0.0,0.0,0.0,0.0,0.0,0.0,0.0,0.0,0.0,0.0,0.0,0.0,0.0,0.0,0.0,0.0,0.0,0.0,0.0,0.0,0.0,0.0,0.0,0.0,0.0,0.0,0.0,0.0,0.0,0.0,0.0,0.0,0.0,0.0,0.0,0.0,0.0,0.0,0.0,0.0,0.0,0.0,0.0,0.0,0.0,0.0,0.0,0.0,0.0,0.0,0.0,0.0,0.0,0.0,0.0,0.0,0.0,0.0,0.0,0.0,0.0,0.0,0.0,0.0,0.0,0.0,0.0,0.0,0.0,0.0,0.0,0.0,0.0,0.0,0.0,0.0,0.0,0.0,0.0,0.0,0.0,0.0,0.0,0.0,0.0,0.0,0.0,0.0,0.0,0.0,0.0,0.0,0.0,0.0,0.0,0.0,0.0,0.0,0.0,0.0,0.0,0.0,0.0,0.0,0.0,0.0,0.0,0.0,0.0,0.0,0.0,0.0,0.0,0.0,0.0,0.0,0.0,0.0,0.0,0.0,0.0,0.0,0.0,0.0,0.0,0.0,0.0,0.0,0.0,0.0,0.0,0.0,0.0,0.0,0.0,0.0,0.0,0.0,0.0,0.0,0.0,0.0,0.0,0.0,0.0,0.0,0.0,0.0,0.0,0.0,0.0,0.0,0.0,0.0,0.0,0.0,0.0,0.0,0.0,0.0,0.0,0.0,0.0,0.0,0.0,0.0,0.0,0.0,0.0,0.0,0.0,0.0,0.0,0.0,0.0,0.0,0.0,0.0,0.0,0.0,0.0,0.0,0.0,0.0,0.0,0.0,0.0,0.0,0.0,0.0,0.0,0.0,0.0,0.0,0.0,0.0,0.0,0.0,0.0,0.0,0.0,0.0,0.0,0.0,0.0,0.0,0.0,0.0,0.0,0.0,0.0,0.0,0.0,0.0,0.0,0.0,0.0,0.0,0.0,0.0,0.0,0.0,0.0,0.0,0.0,0.0,0.0,0.0,0.0,0.0,0.0,0.0,0.0,0.0,0.0,0.0,0.0,0.0,0.0,0.0,0.0,0.0,0.0,0.0,0.0,0.0,0.0,0.0,0.0,0.0,0.0,0.0,0.0,0.0,0.0,0.0,0.0,0.0,0.0,0.0,0.0,0.0,0.0,0.0,0.0,0.0,0.0,0.0,0.0,0.0,0.0,0.0,0.0,0.0,0.0,0.0,0.0,0.0,0.0,0.0,0.0,0.0,0.0,0.0,0.0,0.0,0.0,0.0,0.0,0.0,0.0,0.0,0.0,0.0,0.0,0.0,0.0,0.0,0.0,0.0,0.0,0.0,0.0,0.0,0.0,0.0,0.0,0.0,0.0,0.0,0.0,0.0,0.0,0.0,0.0,0.0,0.0,0.0,0.0,0.0,0.0,0.0,0.0,0.0,0.0,0.0,0.0,0.0,0.0,0.0,0.0,0.0,0.0,0.0,0.0,0.0,0.0,0.0,0.0,0.0,0.0,0.0,0.0,0.0,0.0,0.0,0.0,0.0,0.0,0.0,0.0,0.0,0.0,0.0,0.0,0.0,0.0,0.0,0.0,0.0,0.0,0.0,0.0,0.0,0.0,0.0,0.0,0.0,0.0,0.0,0.0,0.0,0.0,0.0,0.0,0.0,0.0,0.0,0.0,0.0,0.0,0.0,0.0,0.0,0.0,0.0,0.0,0.0,0.0,0.0,0.0,0.0,0.0,0.0,0.0,0.0,0.0,0.0,0.0,0.0,0.0,0.0,0.0,0.0,0.0,0.0,0.0,0.0,0.0,0.0,0.0,0.0,0.0,0.0,0.0,0.0,0.0,0.0,0.0,0.0,0.0,0.0,0.0,0.0,0.0,0.0,0.0,0.0,0.0,0.0,0.0,0.0,0.0,0.0,0.0,0.0,0.0,0.0,0.0,0.0,0.0,0.0,0.0,0.0,0.0,0.0,0.0,0.0,0.0,0.0,0.0,0.0,0.0,0.0,0.0,0.0,0.0,0.0,0.0,0.0,0.0,0.0,0.0,0.0,0.0,0.0,0.0,0.0,0.0,0.0,0.0,0.0,0.0,0.0,0.0,0.0,0.0,0.0,0.0,0.0,0.0,0.0,0.0,0.0,0.0,0.0,0.0,0.0,0.0,0.0,0.0,0.0,0.0,0.0,0.0,0.0,0.0,0.0,0.0,0.0,0.0,0.0,0.0,0.0,0.0,0.0,0.0,0.0,0.0,0.0,0.0,0.0,0.0,0.0,0.0,0.0,0.0,0.0,0.0,0.0,0.0,0.0,0.0,0.0,0.0,0.0,0.0,0.0,0.0,0.0,0.0,0.0,0.0,0.0,0.0,0.0,0.0,0.0,0.0,0.0,0.0,0.0,0.0,0.0,0.0,0.0,0.0,0.0,0.0,0.0,0.0,0.0,0.0,0.0,0.0,0.0,0.0,0.0,0.0,0.0,0.0,0.0,0.0,0.0,0.0,0.0,0.0,0.0,0.0,0.0,0.0,0.0,0.0,0.0,0.0,0.0,0.0,0.0,0.0,0.0,0.0,0.0,0.0,0.0,0.0,0.0,0.0,0.0,0.0,0.0,0.0,0.0,0.0,0.0,0.0,0.0,0.0,0.0,0.0,0.0,0.0,0.0,0.0,0.0,0.0,0.0,0.0,0.0,0.0,0.0,0.0,0.0,0.0,0.0,0.0,0.0,0.0,0.0,0.0,0.0,0.0,0.0,0.0,0.0,0.0,0.0,0.0,0.0,0.0,0.0,0.0,0.0,0.0,0.0,0.0,0.0,0.0,0.0,0.0,0.0,0.0,0.0,0.0,0.0,0.0,0.0,0.0,0.0,0.0,0.0,0.0,0.0,0.0,0.0,0.0,0.0,0.0,0.0,0.0,0.0,0.0,0.0,0.0,0.0,0.0,0.0,0.0,0.0,0.0,0.0,0.0,0.0,0.0,0.0,0.0,0.0,0.0,0.0,0.0,0.0,0.0,0.0,0.0,0.0,0.0,0.0,0.0,0.0,0.0,0.0,0.0,0.0,0.0,0.0,0.0,0.0,0.0,0.0,0.0,0.0,0.0,0.0,0.0,0.0,0.0,0.0,0.0,0.0,0.0,0.0,0.0,0.0,0.0,0.0,0.0,0.0,0.0,0.0,0.0,0.0,0.0,0.0,0.0,0.0,0.0,0.0,0.0,0.0,0.0,0.0,0.0,0.0,0.0,0.0,0.0,0.0,0.0,0.0,0.0,0.0,0.0,0.0,0.0,0.0,0.0,0.0,0.0,0.0,0.0,0.0,0.0,0.0,0.0,0.0,0.0,0.0,0.0,0.0,0.0,0.0,0.0,0.0,0.0,0.0,0.0,0.0,0.0,0.0,0.0,0.0,0.0,0.0,0.0,0.0,0.0,0.0,0.0,0.0,0.0,0.0,0.0,0.0,0.0,0.0,0.0,0.0,0.0,0.0,0.0,0.0,0.0,0.0,0.0,0.0,0.0,0.0,0.0,0.0,0.0,0.0,0.0,0.0,0.0,0.0,0.0,0.0,0.0,2.5495,0.0,0.0,0.0,0.0,0.0,0.0,0.0,0.0,0.0,0.0,0.0,0.0,0.0,0.0,0.0,0.0,0.0,0.0,0.0,0.0,0.0,0.0,0.0,0.0,0.0,0.0,0.0,0.0,0.0,0.0,0.0,0.0,0.0,0.0,0.0,0.0,0.0,0.0,0.0,0.0,0.0,0.0,0.0,0.0,0.0,0.0,0.0,0.0,0.0,0.0,0.0,0.0,0.0,0.0,0.0,0.0,0.0,0.0,0.0,0.0,0.0,0.0,0.0,0.0,0.0,0.0,0.0,0.0,0.0,0.0,0.0,0.0,0.0,0.0,0.0,0.0,0.0,0.0,0.0,0.0,0.0,0.0,0.0,0.0,0.0,0.0,0.0,0.0,0.0,0.0,0.0,0.0,0.0,0.0,0.0,0.0,0.0,0.0,0.0,0.0,0.0,0.0,0.0,0.0,0.0,0.0,0.0,0.0,0.0,0.0,2.5691,2.563,2.5621,2.556,2.5462,0.0,0.0,0.0,0.0,0.0,0.0,0.0,0.0,0.0,0.0,0.0,0.0,0.0,0.0,0.0,0.0,0.0,0.0,0.0,0.0,0.0,0.0,0.0,0.0,0.0,0.0,0.0,0.0,0.0,0.0,0.0,0.0,0.0,0.0,0.0,0.0,0.0,0.0,0.0,0.0,0.0,0.0,0.0,0.0,0.0,0.0,0.0,0.0,0.0,0.0,0.0,0.0,0.0,0.0,0.0,0.0,0.0,0.0,0.0,0.0,0.0,0.0,0.0,0.0,0.0,0.0,0.0,0.0,0.0,0.0,0.0,0.0,0.0,0.0,0.0,0.0,0.0,0.0,0.0,0.0,0.0,0.0,0.0,0.0,0.0,0.0,0.0,0.0,0.0,0.0,0.0,0.0,0.0,0.0,0.0,0.0,0.0,0.0,0.0,0.0,0.0,0.0,0.0,0.0,0.0,0.0,0.0,0.0,0.0,0.0,0.0,0.0,2.6446,2.6374,2.6235,0.0,0.0,0.0,0.0,0.0,0.0,0.0,0.0,0.0,0.0,0.0,0.0,0.0,0.0,0.0,0.0,0.0,0.0,0.0,0.0,0.0,0.0,0.0,0.0,0.0,0.0,0.0,0.0,0.0,0.0,0.0,0.0,0.0,0.0,0.0,0.0,0.0,0.0,0.0,0.0,0.0,0.0,0.0,0.0,0.0,0.0,0.0,0.0,0.0,0.0,0.0,0.0,0.0,0.0,0.0,0.0,0.0,0.0,0.0,0.0,0.0,0.0,0.0,0.0,0.0,0.0,0.0,0.0,0.0,0.0,0.0,0.0,0.0,0.0,0.0,0.0,0.0,0.0,0.0,0.0,0.0,0.0,0.0,0.0,0.0,0.0,0.0,0.0,0.0,0.0,0.0,0.0,0.0,0.0,0.0,0.0,0.0,0.0,0.0,0.0,0.0,0.0,0.0,0.0,0.0,0.0,0.0,0.0,0.0,0.0,2.6814,2.9128,2.9024,0.0,2.8658,0.0,0.0,0.0,0.0,0.0,0.0,0.0,0.0,0.0,0.0,0.0,0.0,0.0,0.0,0.0,0.0,0.0,0.0,0.0,0.0,0.0,0.0,0.0,0.0,0.0,0.0,0.0,0.0,0.0,0.0,0.0,0.0,0.0,0.0,0.0,0.0,0.0,0.0,0.0,0.0,0.0,0.0,0.0,0.0,0.0,0.0,0.0,0.0,0.0,0.0,0.0,0.0,0.0,0.0,0.0,0.0,0.0,0.0,0.0,0.0,0.0,0.0,0.0,0.0,0.0,0.0,0.0,0.0,0.0,0.0,0.0,0.0,0.0,0.0,0.0,0.0,0.0,0.0,0.0,0.0,0.0,0.0,0.0,0.0,0.0,0.0,0.0,0.0,0.0,0.0,0.0,0.0,0.0,0.0,0.0,0.0,0.0,0.0,0.0,0.0,0.0,0.0,0.0,0.0,0.0,0.0,0.0,0.0,0.0,0.0,2.6671,2.8684,2.8568,2.7974,0.0,0.0,0.0,0.0,0.0,0.0,0.0,0.0,0.0,0.0,0.0,0.0,0.0,0.0,0.0,0.0,0.0,0.0,0.0,0.0,0.0,0.0,0.0,0.0,0.0,0.0,0.0,0.0,0.0,0.0,0.0,0.0,0.0,0.0,0.0,0.0,0.0,0.0,0.0,0.0,0.0,0.0,0.0,0.0,0.0,0.0,0.0,0.0,0.0,0.0,0.0,0.0,0.0,0.0,0.0,0.0,0.0,0.0,0.0,0.0,0.0,0.0,0.0,0.0,0.0,0.0,0.0,0.0,0.0,0.0,0.0,0.0,0.0,0.0,0.0,0.0,0.0,0.0,0.0,0.0,0.0,0.0,0.0,0.0,0.0,0.0,0.0,0.0,0.0,0.0,0.0,0.0,0.0,0.0,0.0,0.0,0.0,0.0,0.0,0.0,0.0,0.0,0.0,0.0,0.0,0.0,0.0,0.0,0.0,0.0,2.6778,2.7269,2.8976,2.7896,2.6928,2.6346,0.0,0.0,0.0,0.0,0.0,0.0,0.0,0.0,0.0,0.0,0.0,0.0,0.0,0.0,0.0,0.0,0.0,0.0,0.0,0.0,0.0,0.0,0.0,0.0,0.0,0.0,0.0,0.0,0.0,0.0,0.0,0.0,0.0,0.0,0.0,0.0,0.0,0.0,0.0,0.0,0.0,0.0,0.0,0.0,0.0,0.0,0.0,0.0,0.0,0.0,0.0,0.0,0.0,0.0,0.0,0.0,0.0,0.0,0.0,0.0,0.0,0.0,0.0,0.0,0.0,0.0,0.0,0.0,0.0,0.0,0.0,0.0,0.0,0.0,0.0,0.0,0.0,0.0,0.0,0.0,0.0,0.0,0.0,0.0,0.0,0.0,0.0,0.0,0.0,0.0,0.0,0.0,0.0,0.0,0.0,0.0,0.0,0.0,0.0,0.0,0.0,0.0,0.0,0.0,0.0,0.0,0.0,0.0,3.1523,2.9391,2.9313,3.1444,2.7672,2.6579,0.0,0.0,0.0,0.0,0.0,0.0,0.0,0.0,0.0,0.0,0.0,0.0,0.0,0.0,0.0,0.0,0.0,0.0,0.0,0.0,0.0,0.0,0.0,0.0,0.0,0.0,0.0,0.0,0.0,0.0,0.0,0.0,0.0,0.0,0.0,0.0,0.0,0.0,0.0,0.0,0.0,0.0,0.0,0.0,0.0,0.0,0.0,0.0,0.0,0.0,0.0,0.0,0.0,0.0,0.0,0.0,0.0,0.0,0.0,0.0,0.0,0.0,0.0,0.0,0.0,0.0,0.0,0.0,0.0,0.0,0.0,0.0,0.0,0.0,0.0,0.0,0.0,0.0,0.0,0.0,0.0,0.0,0.0,0.0,0.0,0.0,0.0,0.0,0.0,0.0,0.0,0.0,0.0,0.0,0.0,0.0,0.0,0.0,0.0,0.0,0.0,0.0,0.0,0.0,0.0,0.0,0.0,0.0,0.0,2.7969,2.8133,2.8578,2.9372,2.7841,2.7431,0.0,0.0,0.0,0.0,0.0,0.0,0.0,0.0,0.0,0.0,0.0,0.0,0.0,0.0,0.0,0.0,0.0,0.0,0.0,0.0,0.0,0.0,0.0,0.0,0.0,0.0,0.0,0.0,0.0,0.0,0.0,0.0,0.0,0.0,0.0,0.0,0.0,0.0,0.0,0.0,0.0,0.0,0.0,0.0,0.0,0.0,0.0,0.0,0.0,0.0,0.0,0.0,0.0,0.0,0.0,0.0,0.0,0.0,0.0,0.0,0.0,0.0,0.0,0.0,0.0,0.0,0.0,0.0,0.0,0.0,0.0,0.0,0.0,0.0,0.0,0.0,0.0,0.0,0.0,0.0,0.0,0.0,0.0,0.0,0.0,0.0,0.0,0.0,0.0,0.0,0.0,0.0,0.0,0.0,0.0,0.0,0.0,0.0,0.0,0.0,0.0,0.0,0.0,0.0,0.0,0.0,0.0,0.0,0.0,2.6939,0.0,2.9073,2.8496,2.7802,2.7351,0.0,0.0,0.0,0.0,0.0,0.0,0.0,0.0,0.0,0.0,0.0,0.0,0.0,0.0,0.0,0.0,0.0,0.0,0.0,0.0,0.0,0.0,0.0,0.0,0.0,0.0,0.0,0.0,0.0,0.0,0.0,0.0,0.0,0.0,0.0,0.0,0.0,0.0,0.0,0.0,0.0,0.0,0.0,0.0,0.0,0.0,0.0,0.0,0.0,0.0,0.0,0.0,0.0,0.0,0.0,0.0,0.0,0.0,0.0,0.0,0.0,0.0,0.0,0.0,0.0,0.0,0.0,0.0,0.0,0.0,0.0,0.0,0.0,0.0,0.0,0.0,0.0,0.0,0.0,0.0,0.0,0.0,0.0,0.0,0.0,0.0,0.0,0.0,0.0,0.0,0.0,0.0,0.0,0.0,0.0,0.0,0.0,0.0,0.0,0.0,0.0,0.0,0.0,0.0,0.0,0.0,0.0,0.0,2.6895,2.929,3.0881,3.0861,2.9344,2.7561,2.6235,0.0,0.0,0.0,0.0,0.0,0.0,0.0,0.0,0.0,0.0,0.0,0.0,0.0,0.0,0.0,0.0,0.0,0.0,0.0,0.0,0.0,0.0,0.0,0.0,0.0,0.0,0.0,0.0,0.0,0.0,0.0,0.0,0.0,0.0,0.0,0.0,0.0,0.0,0.0,0.0,0.0,0.0,0.0,0.0,0.0,0.0,0.0,0.0,0.0,0.0,0.0,0.0,0.0,0.0,0.0,0.0,0.0,0.0,0.0,0.0,0.0,0.0,0.0,0.0,0.0,0.0,0.0,0.0,0.0,0.0,0.0,0.0,0.0,0.0,0.0,0.0,0.0,0.0,0.0,0.0,0.0,0.0,0.0,0.0,0.0,0.0,0.0,0.0,0.0,0.0,0.0,0.0,0.0,0.0,0.0,0.0,0.0,0.0,0.0,0.0,0.0,0.0,0.0,0.0,0.0,0.0,0.0,0.0,0.0,2.6898,2.8396,2.978,3.0833,2.757,2.696,0.0,0.0,0.0,0.0,0.0,0.0,0.0,0.0,0.0,0.0,0.0,0.0,0.0,0.0,0.0,0.0,0.0,0.0,0.0,0.0,0.0,0.0,0.0,0.0,0.0,0.0,0.0,0.0,0.0,0.0,0.0,0.0,0.0,0.0,0.0,0.0,0.0,0.0,0.0,0.0,0.0,0.0,0.0,0.0,0.0,0.0,0.0,0.0,0.0,0.0,0.0,0.0,0.0,0.0,0.0,0.0,0.0,0.0,0.0,0.0,0.0,0.0,0.0,0.0,0.0,0.0,0.0,0.0,0.0,0.0,0.0,0.0,0.0,0.0,0.0,0.0,0.0,0.0,0.0,0.0,0.0,0.0,0.0,0.0,0.0,0.0,0.0,0.0,0.0,0.0,0.0,0.0,0.0,0.0,0.0,0.0,0.0,0.0,0.0,0.0,0.0,0.0,0.0,0.0,0.0,0.0,0.0,0.0,0.0,2.8594,3.0024,3.1096,3.1768,2.8795,2.7845,2.9195,0.0,0.0,0.0,0.0,0.0,0.0,0.0,0.0,0.0,0.0,0.0,0.0,0.0,0.0,0.0,0.0,0.0,0.0,0.0,0.0,0.0,0.0,0.0,0.0,0.0,0.0,0.0,0.0,0.0,0.0,0.0,0.0,0.0,0.0,0.0,0.0,0.0,0.0,0.0,0.0,0.0,0.0,0.0,0.0,0.0,0.0,0.0,0.0,0.0,0.0,0.0,0.0,0.0,0.0,0.0,0.0,0.0,0.0,0.0,0.0,0.0,0.0,0.0,0.0,0.0,0.0,0.0,0.0,0.0,0.0,0.0,0.0,0.0,0.0,0.0,0.0,0.0,0.0,0.0,0.0,0.0,0.0,0.0,0.0,0.0,0.0,0.0,0.0,0.0,0.0,0.0,0.0,0.0,0.0,0.0,0.0,0.0,0.0,0.0,0.0,0.0,0.0,0.0,0.0,0.0,0.0,0.0,0.0,3.348,3.5203,3.4824,3.2211,3.0969,2.8883,0.0,0.0,0.0,0.0,0.0,0.0,0.0,0.0,0.0,0.0,0.0,0.0,0.0,0.0,0.0,0.0,0.0,0.0,0.0,0.0,0.0,0.0,0.0,0.0,0.0,0.0,0.0,0.0,0.0,0.0,0.0,0.0,0.0,0.0,0.0,0.0,0.0,0.0,0.0,0.0,0.0,0.0,0.0,0.0,0.0,0.0,0.0,0.0,0.0,0.0,0.0,0.0,0.0,0.0,0.0,0.0,0.0,0.0,0.0,0.0,0.0,0.0,0.0,0.0,0.0,0.0,0.0,0.0,0.0,0.0,0.0,0.0,0.0,0.0,0.0,0.0,0.0,0.0,0.0,0.0,0.0,0.0,0.0,0.0,0.0,0.0,0.0,0.0,0.0,0.0,0.0,0.0,0.0,0.0,0.0,0.0,0.0,0.0,0.0,0.0,0.0,0.0,0.0,0.0,0.0,0.0,0.0,0.0,0.0,3.7029,4.0365,4.0357,3.6584,3.2522,3.0308,0.0,0.0,0.0,0.0,0.0,0.0,0.0,0.0,0.0,0.0,0.0,0.0,0.0,0.0,0.0,0.0,0.0,0.0,0.0,0.0,0.0,0.0,0.0,0.0,0.0,0.0,0.0,0.0,0.0,0.0,0.0,0.0,0.0,0.0,0.0,0.0,0.0,0.0,0.0,0.0,0.0,0.0,0.0,0.0,0.0,0.0,0.0,0.0,0.0,0.0,0.0,0.0,0.0,0.0,0.0,0.0,0.0,0.0,0.0,0.0,0.0,0.0,0.0,0.0,0.0,0.0,0.0,0.0,0.0,0.0,0.0,0.0,0.0,0.0,0.0,0.0,0.0,0.0,0.0,0.0,0.0,0.0,0.0,0.0,0.0,0.0,0.0,0.0,0.0,0.0,0.0,0.0,0.0,0.0,0.0,0.0,0.0,0.0,0.0,0.0,0.0,0.0,0.0,0.0,0.0,0.0,0.0,0.0,3.7767,3.9875,4.4047,4.4712,4.1513,3.6702,3.2989,0.0,0.0,0.0,0.0,0.0,0.0,0.0,0.0,0.0,0.0,0.0,0.0,0.0,0.0,0.0,0.0,0.0,0.0,0.0,0.0,0.0,0.0,0.0,0.0,0.0,0.0,0.0,0.0,0.0,0.0,0.0,0.0,0.0,0.0,0.0,0.0,0.0,0.0,0.0,0.0,0.0,0.0,0.0,0.0,0.0,0.0,0.0,0.0,0.0,0.0,0.0,0.0,0.0,0.0,0.0,0.0,0.0,0.0,0.0,0.0,0.0,0.0,0.0,0.0,0.0,0.0,0.0,0.0,0.0,0.0,0.0,0.0,0.0,0.0,0.0,0.0,0.0,0.0,0.0,0.0,0.0,0.0,0.0,0.0,0.0,0.0,0.0,0.0,0.0,0.0,0.0,0.0,0.0,0.0,0.0,0.0,0.0,0.0,0.0,0.0,0.0,0.0,0.0,0.0,0.0,0.0,0.0,0.0,3.9813,4.2379,4.6639,4.7946,4.5979,4.1506,3.6033,0.0,0.0,0.0,0.0,0.0,0.0,0.0,0.0,0.0,0.0,0.0,0.0,0.0,0.0,0.0,0.0,0.0,0.0,0.0,0.0,0.0,0.0,0.0,0.0,0.0,0.0,0.0,0.0,0.0,0.0,0.0,0.0,0.0,0.0,0.0,0.0,0.0,0.0,0.0,0.0,0.0,0.0,0.0,0.0,0.0,0.0,0.0,0.0,0.0,0.0,0.0,0.0,0.0,0.0,0.0,0.0,0.0,0.0,0.0,0.0,0.0,0.0,0.0,0.0,0.0,0.0,0.0,0.0,0.0,0.0,0.0,0.0,0.0,0.0,0.0,0.0,0.0,0.0,0.0,0.0,0.0,0.0,0.0,0.0,0.0,0.0,0.0,0.0,0.0,0.0,0.0,0.0,0.0,0.0,0.0,0.0,0.0,0.0,0.0,0.0,0.0,0.0,0.0,0.0,0.0,0.0,0.0,0.0,4.1619,4.4222,4.8313,4.9343,4.6891,4.0721,3.5739,0.0,0.0,0.0,0.0,0.0,0.0,0.0,0.0,0.0,0.0,0.0,0.0,0.0,0.0,0.0,0.0,0.0,0.0,0.0,0.0,0.0,0.0,0.0,0.0,0.0,0.0,0.0,0.0,0.0,0.0,0.0,0.0,0.0,0.0,0.0,0.0,0.0,0.0,0.0,0.0,0.0,0.0,0.0,0.0,0.0,0.0,0.0,0.0,2.6602,0.0,0.0,0.0,0.0,0.0,0.0,0.0,0.0,0.0,0.0,0.0,0.0,0.0,0.0,0.0,0.0,0.0,0.0,0.0,0.0,0.0,0.0,0.0,0.0,0.0,0.0,0.0,0.0,0.0,0.0,0.0,0.0,0.0,0.0,0.0,0.0,0.0,0.0,0.0,0.0,0.0,0.0,0.0,0.0,0.0,0.0,0.0,0.0,0.0,0.0,0.0,0.0,0.0,0.0,0.0,0.0,0.0,0.0,0.0,4.2962,4.6001,4.9333,4.9822,4.709,4.1596,3.7014,0.0,0.0,0.0,0.0,0.0,0.0,0.0,0.0,0.0,0.0,0.0,0.0,0.0,0.0,0.0,0.0,0.0,0.0,0.0,0.0,0.0,0.0,0.0,0.0,0.0,0.0,0.0,0.0,0.0,0.0,0.0,0.0,0.0,0.0,0.0,0.0,0.0,0.0,0.0,0.0,0.0,0.0,0.0,0.0,0.0,0.0,0.0,0.0,0.0,0.0,0.0,0.0,0.0,0.0,0.0,0.0,0.0,0.0,0.0,0.0,0.0,0.0,0.0,0.0,0.0,0.0,0.0,0.0,0.0,0.0,0.0,0.0,0.0,0.0,0.0,0.0,0.0,0.0,0.0,0.0,0.0,0.0,0.0,0.0,0.0,0.0,0.0,0.0,0.0,0.0,0.0,0.0,0.0,0.0,0.0,0.0,0.0,0.0,0.0,0.0,0.0,0.0,0.0,0.0,0.0,0.0,0.0,4.01,4.3912,4.7692,4.9887,4.9768,4.7216,4.2897,3.8539,3.4207,0.0,0.0,0.0,0.0,0.0,0.0,0.0,0.0,0.0,0.0,0.0,0.0,0.0,0.0,0.0,0.0,0.0,0.0,0.0,0.0,0.0,0.0,0.0,0.0,0.0,0.0,0.0,0.0,0.0,0.0,0.0,0.0,0.0,0.0,0.0,0.0,0.0,0.0,2.5851,2.5772,0.0,0.0,0.0,0.0,0.0,0.0,0.0,0.0,2.6483,0.0,0.0,0.0,0.0,0.0,0.0,0.0,0.0,0.0,0.0,0.0,0.0,0.0,0.0,0.0,0.0,0.0,0.0,0.0,0.0,0.0,0.0,0.0,0.0,0.0,0.0,0.0,0.0,0.0,0.0,0.0,0.0,0.0,0.0,0.0,0.0,0.0,0.0,0.0,0.0,0.0,0.0,0.0,0.0,0.0,0.0,0.0,0.0,0.0,0.0,0.0,0.0,0.0,0.0,0.0,0.0,3.9848,4.0744,4.3886,4.9468,4.9892,4.9116,4.7115,4.2848,3.8507,3.4243,0.0,0.0,0.0,0.0,0.0,0.0,0.0,0.0,0.0,0.0,0.0,0.0,0.0,0.0,0.0,0.0,0.0,0.0,0.0,0.0,0.0,0.0,0.0,0.0,0.0,0.0,0.0,0.0,0.0,0.0,0.0,0.0,0.0,0.0,0.0,0.0,0.0,0.0,0.0,2.6563,2.6581,0.0,0.0,0.0,0.0,0.0,0.0,0.0,0.0,2.698,0.0,0.0,0.0,0.0,0.0,0.0,0.0,0.0,0.0,0.0,0.0,0.0,0.0,0.0,0.0,0.0,0.0,0.0,0.0,0.0,0.0,0.0,0.0,0.0,0.0,0.0,0.0,0.0,0.0,0.0,0.0,0.0,0.0,0.0,0.0,0.0,0.0,0.0,0.0,0.0,0.0,0.0,0.0,0.0,0.0,0.0,0.0,0.0,0.0,0.0,0.0,0.0,0.0,0.0,0.0,4.0568,4.2214,4.5471,5.054,5.017,4.8778,4.6531,4.2254,3.7889,0.0,0.0,0.0,0.0,0.0,0.0,0.0,0.0,0.0,0.0,0.0,0.0,0.0,0.0,0.0,0.0,0.0,0.0,0.0,0.0,0.0,0.0,0.0,0.0,0.0,0.0,0.0,0.0,0.0,0.0,0.0,0.0,0.0,0.0,0.0,0.0,0.0,0.0,0.0,0.0,2.7115,2.7363,2.7384,0.0,0.0,0.0,0.0,0.0,0.0,2.7174,2.7,0.0,0.0,0.0,0.0,0.0,0.0,0.0,0.0,0.0,0.0,0.0,0.0,0.0,0.0,0.0,0.0,0.0,0.0,0.0,0.0,0.0,0.0,0.0,0.0,0.0,0.0,0.0,0.0,0.0,0.0,0.0,0.0,0.0,0.0,0.0,0.0,0.0,0.0,0.0,0.0,0.0,0.0,0.0,0.0,0.0,0.0,0.0,0.0,0.0,0.0,0.0,0.0,0.0,0.0,0.0,4.0509,4.319,4.6567,5.0574,5.0047,4.8408,4.5762,4.1287,3.7014,0.0,0.0,0.0,0.0,0.0,0.0,0.0,0.0,0.0,0.0,0.0,0.0,0.0,0.0,0.0,0.0,0.0,0.0,0.0,0.0,0.0,0.0,0.0,0.0,0.0,0.0,0.0,0.0,0.0,0.0,0.0,0.0,0.0,0.0,0.0,0.0,0.0,0.0,0.0,0.0,0.0,2.8401,2.8187,2.8358,0.0,0.0,0.0,0.0,2.7208,2.7841,0.0,0.0,0.0,0.0,0.0,0.0,0.0,0.0,0.0,0.0,0.0,0.0,0.0,0.0,0.0,0.0,0.0,0.0,0.0,0.0,0.0,0.0,0.0,0.0,0.0,0.0,0.0,0.0,0.0,0.0,0.0,0.0,0.0,0.0,0.0,0.0,0.0,0.0,0.0,0.0,0.0,0.0,0.0,0.0,0.0,0.0,0.0,0.0,0.0,0.0,0.0,0.0,0.0,0.0,0.0,0.0,3.9471,4.2188,4.5337,4.8703,4.8893,4.7558,4.4881,3.9877,3.586,0.0,0.0,0.0,0.0,0.0,0.0,0.0,0.0,0.0,0.0,0.0,0.0,0.0,0.0,0.0,0.0,0.0,0.0,0.0,0.0,0.0,0.0,0.0,0.0,0.0,0.0,0.0,0.0,0.0,0.0,0.0,0.0,0.0,0.0,0.0,0.0,0.0,0.0,0.0,0.0,0.0,2.9837,2.9139,2.9651,2.9317,0.0,0.0,3.045,2.8306,3.1033,0.0,0.0,0.0,0.0,0.0,0.0,0.0,0.0,0.0,0.0,0.0,0.0,0.0,0.0,0.0,0.0,0.0,0.0,0.0,0.0,0.0,0.0,0.0,0.0,0.0,0.0,0.0,0.0,0.0,0.0,0.0,0.0,0.0,0.0,0.0,0.0,0.0,0.0,0.0,0.0,0.0,0.0,0.0,0.0,0.0,0.0,0.0,0.0,0.0,0.0,0.0,0.0,0.0,0.0,0.0,3.6111,3.9487,4.2585,4.565,4.8575,4.8288,4.6787,4.4052,3.8869,3.4889,0.0,0.0,0.0,0.0,0.0,0.0,0.0,0.0,0.0,0.0,0.0,0.0,0.0,0.0,0.0,0.0,0.0,0.0,0.0,0.0,0.0,0.0,0.0,0.0,0.0,0.0,0.0,0.0,0.0,0.0,0.0,0.0,0.0,0.0,0.0,0.0,0.0,0.0,0.0,0.0,0.0,0.0,3.005,3.0982,0.0,0.0,0.0,3.108,2.9051,0.0,0.0,0.0,0.0,0.0,0.0,0.0,0.0,0.0,0.0,0.0,0.0,0.0,0.0,0.0,0.0,0.0,0.0,0.0,0.0,0.0,0.0,0.0,0.0,0.0,0.0,0.0,0.0,0.0,0.0,0.0,0.0,0.0,0.0,0.0,0.0,0.0,0.0,0.0,0.0,0.0,0.0,0.0,0.0,0.0,0.0,0.0,0.0,0.0,0.0,0.0,0.0,0.0,0.0,0.0,0.0,0.0,3.9524,4.3211,4.6085,4.8001,4.7956,4.6502,4.3545,3.8556,0.0,0.0,0.0,0.0,0.0,0.0,0.0,0.0,0.0,0.0,0.0,0.0,0.0,0.0,0.0,0.0,0.0,0.0,0.0,0.0,0.0,0.0,0.0,0.0,0.0,0.0,0.0,2.5895,0.0,0.0,0.0,0.0,0.0,0.0,0.0,0.0,0.0,0.0,0.0,0.0,0.0,0.0,3.2677,3.124,3.2483,3.2993,0.0,0.0,3.1719,2.9798,3.1489,3.1881,0.0,0.0,0.0,0.0,0.0,0.0,0.0,0.0,0.0,0.0,0.0,0.0,0.0,0.0,0.0,0.0,0.0,0.0,0.0,0.0,0.0,0.0,0.0,0.0,0.0,0.0,0.0,0.0,0.0,0.0,0.0,0.0,0.0,0.0,0.0,0.0,0.0,0.0,0.0,0.0,0.0,0.0,0.0,0.0,0.0,0.0,0.0,0.0,0.0,0.0,0.0,0.0,0.0,0.0,3.6759,3.9365,4.3677,4.5954,4.6141,4.7823,4.7081,4.3668,3.9238,3.5949,0.0,0.0,0.0,0.0,0.0,0.0,0.0,0.0,0.0,0.0,0.0,0.0,0.0,0.0,0.0,0.0,0.0,0.0,0.0,0.0,0.0,0.0,0.0,0.0,0.0,0.0,0.0,0.0,0.0,0.0,0.0,0.0,0.0,0.0,0.0,0.0,0.0,0.0,0.0,0.0,0.0,3.3774,3.2862,3.4241,3.4716,0.0,3.3478,3.3171,3.0689,3.37,3.4473,2.8816,0.0,0.0,0.0,0.0,0.0,0.0,0.0,0.0,0.0,0.0,0.0,0.0,0.0,0.0,0.0,0.0,0.0,0.0,0.0,0.0,0.0,0.0,0.0,0.0,0.0,0.0,0.0,0.0,0.0,0.0,0.0,0.0,0.0,0.0,0.0,0.0,0.0,0.0,0.0,0.0,0.0,0.0,0.0,0.0,0.0,0.0,0.0,0.0,0.0,0.0,0.0,0.0,0.0,3.7292,3.9364,4.2684,4.4902,4.5935,4.6774,4.5768,4.2754,3.9326,3.5959,0.0,0.0,0.0,0.0,0.0,0.0,0.0,0.0,0.0,0.0,0.0,0.0,0.0,0.0,0.0,0.0,0.0,0.0,0.0,0.0,0.0,0.0,0.0,0.0,0.0,0.0,0.0,0.0,2.8529,2.8951,2.9463,0.0,0.0,0.0,0.0,0.0,0.0,0.0,0.0,0.0,0.0,3.5061,3.5209,3.5816,0.0,0.0,3.4814,3.4311,3.2235,3.3736,3.3853,3.004,2.9813,0.0,0.0,0.0,0.0,0.0,0.0,0.0,0.0,0.0,0.0,0.0,0.0,0.0,0.0,0.0,0.0,0.0,0.0,0.0,0.0,0.0,0.0,0.0,0.0,0.0,0.0,0.0,0.0,0.0,0.0,0.0,0.0,0.0,0.0,0.0,0.0,0.0,0.0,0.0,0.0,0.0,0.0,0.0,0.0,0.0,0.0,0.0,0.0,0.0,0.0,0.0,0.0,3.7835,4.0111,4.3038,4.5139,4.6361,4.6996,4.5827,4.2647,3.9817,3.655,0.0,0.0,0.0,0.0,0.0,0.0,0.0,0.0,0.0,0.0,0.0,0.0,0.0,0.0,0.0,0.0,0.0,0.0,0.0,0.0,0.0,0.0,0.0,0.0,0.0,0.0,0.0,0.0,2.9411,2.982,3.0408,0.0,0.0,0.0,0.0,0.0,0.0,0.0,0.0,0.0,0.0,3.5897,3.5939,3.6369,3.6438,3.5612,3.5077,3.4271,3.3083,3.3239,3.2663,3.0389,0.0,0.0,0.0,0.0,0.0,0.0,0.0,0.0,0.0,0.0,0.0,0.0,0.0,0.0,0.0,0.0,0.0,0.0,0.0,0.0,0.0,0.0,0.0,0.0,0.0,0.0,0.0,2.9023,0.0,0.0,2.9018,0.0,0.0,0.0,0.0,0.0,0.0,0.0,0.0,0.0,0.0,0.0,0.0,0.0,0.0,0.0,0.0,0.0,0.0,0.0,0.0,0.0,0.0,3.839,4.171,4.5213,4.7147,4.723,4.894,4.7814,4.3713,4.084,3.8051,3.5216,0.0,0.0,0.0,0.0,0.0,0.0,0.0,0.0,0.0,0.0,0.0,0.0,0.0,0.0,0.0,0.0,0.0,0.0,0.0,0.0,0.0,0.0,0.0,0.0,0.0,0.0,2.9114,2.993,3.0469,0.0,0.0,0.0,0.0,0.0,0.0,0.0,0.0,0.0,0.0,3.4576,3.6069,3.4552,3.5642,3.6365,3.561,3.408,3.2969,3.2891,3.2277,3.1161,0.0,0.0,0.0,0.0,0.0,0.0,0.0,0.0,0.0,0.0,0.0,0.0,0.0,0.0,0.0,0.0,0.0,0.0,0.0,0.0,0.0,0.0,0.0,0.0,0.0,0.0,0.0,3.0901,3.1338,0.0,0.0,0.0,0.0,0.0,0.0,0.0,0.0,0.0,0.0,0.0,3.1778,3.1815,0.0,0.0,0.0,0.0,0.0,0.0,0.0,0.0,0.0,0.0,0.0,0.0,3.9546,4.1822,4.4655,4.6762,4.7958,4.8048,4.7116,4.516,4.2517,3.9058,3.4639,0.0,0.0,0.0,0.0,0.0,0.0,0.0,0.0,0.0,0.0,0.0,0.0,0.0,0.0,0.0,0.0,0.0,0.0,0.0,0.0,0.0,0.0,0.0,0.0,0.0,2.9868,0.0,0.0,0.0,0.0,0.0,0.0,0.0,0.0,0.0,0.0,0.0,3.1458,3.3143,3.3849,3.4375,3.4994,3.5042,3.5157,0.0,0.0,0.0,0.0,0.0,0.0,0.0,0.0,0.0,0.0,0.0,0.0,0.0,0.0,3.1698,2.9155,2.8275,2.7996,2.8262,0.0,0.0,0.0,0.0,0.0,0.0,0.0,0.0,0.0,0.0,0.0,0.0,0.0,0.0,3.1643,3.208,3.1601,0.0,0.0,0.0,0.0,0.0,0.0,0.0,0.0,3.1598,3.2439,3.3423,3.346,3.3423,3.3463,3.398,3.3396,0.0,0.0,0.0,0.0,0.0,0.0,0.0,0.0,4.0279,4.2279,4.508,4.7297,4.8738,4.8291,4.7352,4.5956,4.2796,3.9034,3.4716,3.2554,3.0852,0.0,0.0,0.0,0.0,0.0,0.0,0.0,0.0,0.0,0.0,0.0,0.0,0.0,0.0,0.0,0.0,0.0,0.0,0.0,0.0,0.0,0.0,0.0,3.0714,0.0,0.0,0.0,0.0,0.0,0.0,0.0,0.0,0.0,3.166,3.1465,3.2003,3.3936,3.3988,3.4011,3.4522,0.0,0.0,0.0,0.0,0.0,0.0,0.0,3.2006,3.1771,3.1926,3.2235,3.2535,3.3021,3.3631,3.4503,0.0,0.0,3.0955,3.0481,3.0645,3.0906,3.0974,3.1346,3.248,3.2451,3.2377,0.0,0.0,0.0,0.0,2.9844,0.0,0.0,0.0,3.1323,3.155,0.0,3.1587,0.0,0.0,0.0,0.0,3.0317,3.1133,0.0,0.0,3.4374,3.5107,3.5184,3.5221,3.5181,3.5144,3.5188,3.5184,3.5078,3.4351,0.0,0.0,0.0,0.0,0.0,0.0,4.0613,4.3192,4.6527,4.8771,4.9634,4.964,4.8474,4.5939,4.1751,3.8255,3.5575,3.4553,3.3206,3.1335,3.047,0.0,0.0,0.0,0.0,0.0,0.0,0.0,0.0,0.0,0.0,0.0,0.0,0.0,0.0,0.0,0.0,0.0,0.0,0.0,0.0,3.1318,0.0,0.0,0.0,0.0,0.0,0.0,0.0,0.0,0.0,0.0,3.1734,3.2349,3.3187,3.4137,0.0,0.0,0.0,0.0,3.4842,3.3266,3.2974,3.3317,3.4164,3.3547,3.3277,3.4088,0.0,0.0,3.4244,3.437,3.4663,3.5458,3.5694,3.5094,3.3487,3.4263,3.4995,3.4312,3.4147,3.4265,3.4228,3.3799,3.3335,3.4838,0.0,0.0,0.0,0.0,3.3571,3.4316,3.5256,3.4519,3.4262,3.4314,3.3723,0.0,0.0,0.0,0.0,0.0,0.0,3.388,3.5312,3.6883,3.7947,3.8498,3.9081,3.9048,3.8505,3.8501,3.8208,3.7654,3.74,3.6346,3.4482,0.0,0.0,0.0,0.0,4.1934,4.4582,4.7288,4.8895,4.9427,4.9216,4.7738,4.4839,4.2417,3.9591,3.6438,3.5482,3.4117,3.2218,3.1447,0.0,0.0,0.0,0.0,0.0,0.0,0.0,0.0,0.0,0.0,0.0,0.0,0.0,0.0,0.0,0.0,0.0,0.0,0.0,3.1156,3.1411,3.1142,0.0,0.0,0.0,0.0,0.0,0.0,0.0,0.0,0.0,3.3356,3.2082,3.2101,0.0,0.0,3.3038,3.3726,3.4276,3.4592,3.4739,3.4773,0.0,3.5851,3.5313,3.485,3.5082,3.54,3.6105,3.76,3.7346,3.722,3.8046,3.824,3.802,3.7546,3.6312,3.5538,3.5268,3.5678,3.6114,3.6111,3.6389,3.6666,3.9407,3.7039,3.5489,3.5161,3.5644,3.5928,3.6596,3.7451,3.6741,3.6332,3.615,3.5651,3.4634,3.3257,3.3462,0.0,0.0,0.0,3.616,3.7779,3.8726,3.9603,4.0377,4.0883,4.0846,4.0373,4.0373,4.0116,3.9639,3.9346,3.8428,3.6978,0.0,0.0,3.8509,4.1038,4.3468,4.5739,4.7802,4.9183,4.9734,4.8981,4.7325,4.4818,4.3143,4.0798,3.7736,3.6811,3.5373,3.3214,3.2331,3.1174,0.0,0.0,0.0,0.0,0.0,0.0,0.0,0.0,0.0,0.0,0.0,2.9809,2.9664,0.0,0.0,0.0,3.1309,3.1429,3.1605,3.1414,0.0,0.0,0.0,0.0,0.0,0.0,0.0,3.0778,3.1969,3.3351,3.4507,3.3082,3.3033,3.6063,3.4892,3.4034,3.5068,0.0,3.5385,3.5923,3.5984,3.6273,3.7081,3.6811,3.6504,3.6507,3.7441,3.8335,3.9068,3.909,3.9196,3.9627,3.9785,3.9786,3.9763,3.8498,3.7516,3.7558,3.7963,3.8316,3.8323,3.8747,3.9115,4.3727,4.2526,3.919,3.7717,3.7563,3.811,3.8338,3.8355,3.8275,3.7853,3.722,3.7269,3.6541,3.527,3.5291,0.0,3.6637,3.7404,3.8586,4.0092,4.0234,4.063,4.1291,4.1356,4.1356,4.1319,4.1356,4.1389,4.1356,4.0748,4.0345,4.025,3.9994,4.0148,4.0828,4.2896,4.4859,4.662,4.8139,4.943,5.0409,4.8741,4.7074,4.5412,4.3777,4.1622,3.9059,3.8175,3.6652,3.4236,3.3141,3.2231,3.1328,0.0,0.0,0.0,0.0,0.0,0.0,0.0,0.0,0.0,0.0,0.0,0.0,0.0,0.0,0.0,3.2124,0.0,3.2232,3.1567,0.0,0.0,0.0,3.1878,3.2809,3.3011,3.3042,3.2921,0.0,0.0,3.5376,3.4965,3.5391,3.7861,3.7311,3.6766,3.688,3.6916,3.6914,3.6955,3.7,3.7313,3.8161,3.8238,3.8203,3.8251,3.948,4.0096,3.9642,3.9944,4.0437,4.0437,4.0475,4.0475,4.0475,4.0325,4.0475,4.0317,4.0396,4.0439,4.0337,4.0346,4.0386,4.5617,4.464,4.3538,4.2334,4.1159,4.129,4.1422,4.143,4.0548,3.9745,3.9079,3.8462,3.7977,3.7605,3.774,3.8281,3.906,3.9763,4.0679,4.1764,4.2943,4.3281,4.2951,4.3525,4.353,4.2988,4.353,4.3856,4.3851,4.4264,4.4162,4.3584,4.3668,4.2916,4.1348,4.3024,4.4936,4.6957,4.7974,4.8981,4.9943,4.7905,4.6304,4.5244,4.3087,4.0786,3.8337,3.7454,3.6404,3.5109,3.4146,3.3209,3.2251,3.1511,0.0,0.0,0.0,0.0,0.0,0.0,0.0,0.0,0.0,3.1171,3.0382,0.0,3.1343,0.0,3.2389,3.3323,3.3329,3.3275,0.0,0.0,3.2893,3.3216,3.2961,3.4003,3.4249,3.2967,3.4047,3.525,3.6195,3.6779,3.7789,3.9582,3.8042,3.7181,3.8421,3.8677,3.8704,3.8693,3.9141,3.9665,3.9783,3.9896,3.986,3.9902,4.0246,4.0439,4.025,4.0362,4.0514,4.0514,4.0514,4.0514,4.0514,4.0514,4.0514,4.0514,4.0514,4.0514,4.0514,4.0514,4.0514,4.6778,4.6116,4.6157,4.5481,4.4401,4.3681,4.3452,4.3479,4.2267,4.1418,4.0795,3.9773,3.9387,3.951,4.0344,4.076,4.0951,4.2221,4.2741,4.263,4.3926,4.4305,4.3929,4.4309,4.4423,4.4355,4.4784,4.5003,4.5049,4.5627,4.5663,4.5259,4.5737,4.52,4.3717,4.4289,4.5379,4.6935,4.7864,4.8868,4.9852,4.7969,4.6502,4.5662,4.3018,4.0397,3.7798,3.6608,3.5531,3.4507,3.3633,3.2887,3.2324,3.1406,3.043,0.0,0.0,0.0,0.0,0.0,0.0,0.0,0.0,0.0,0.0,0.0,3.2443,3.2345,3.3154,3.3646,3.3531,3.331,3.3124,3.3019,3.3497,3.3863,3.3892,3.468,3.5032,3.4529,3.5329,3.6393,3.7539,3.8156,3.8969,4.0317,3.9292,3.8713,3.9577,3.9838,3.9838,3.9879,4.0196,4.0514,4.0514,4.0514,4.0514,4.0514,4.0514,4.0514,4.0514,4.0514,4.0514,4.0514,4.0514,4.0514,4.0514,4.0514,4.0514,4.0514,4.0514,4.0514,4.0514,4.0514,4.0514,4.7459,4.7139,4.7502,4.7427,4.6906,4.5477,4.4917,4.4905,4.3744,4.2897,4.2342,4.1351,4.1067,4.1404,4.2805,4.3078,4.2582,4.4411,4.4514,4.3295,4.4185,4.4593,4.4471,4.4452,4.4757,4.5332,4.5485,4.5583,4.5588,4.5983,4.6177,4.6104,4.675,4.6878,4.6413,4.587,4.6001,4.6787,4.783,4.8889,4.9835,4.8049,4.667,4.5668,4.2789,3.9896,3.7196,3.5692,3.4366,3.3225,3.248,3.2184,3.2272,3.0722,2.9863,0.0,2.9248,0.0,0.0,0.0,0.0,0.0,0.0,0.0,0.0,3.3106,3.3783,3.4628,3.4247,3.3966,3.3876,3.3122,3.2975,3.3832,3.3876,3.419,3.4993,3.5137,3.5501,3.6385,3.6589,3.7281,3.8755,3.9169,3.9599,4.0302,4.0385,4.0288,4.0444,4.0458,4.0435,4.0514,4.0514,4.0433,4.0306,4.0312,4.0281,4.0317,4.0275,4.0394,4.0473,4.0514,4.0514,4.0514,4.05,4.0498,4.0471,4.0473,4.0514,4.0473,4.0473,4.0514,4.0514,4.0514,4.0514,4.7641,4.7556,4.7418,4.7331,4.7179,4.6515,4.6159,4.6041,4.5129,4.433,4.3651,4.3603,4.3764,4.4149,4.468,4.4831,4.4681,4.5017,4.5049,4.4844,4.5477,4.5493,4.5017,4.5503,4.5482,4.5086,4.593,4.6355,4.6397,4.7377,4.7526,4.6897,4.7003,4.6878,4.6405,0.0,0.0,0.0,4.7864,4.8527,4.861,4.6207,4.4216,4.2765,4.0433,0.0,3.5342,3.4439,3.3534,3.2487,3.2249,0.0,0.0,0.0,0.0,0.0,0.0,0.0,0.0,0.0,0.0,0.0,3.4541,3.4505,3.4732,3.4453,3.4684,3.559,3.5617,3.5905,3.6707,3.6008,3.5578,3.5721,3.5166,3.4864,3.5081,3.5107,3.5419,3.625,3.7015,3.7807,3.8761,3.9562,4.0141,4.0369,4.045,4.049,4.0424,4.0472,4.051,4.0514,4.0514,4.0215,3.9458,3.9509,3.97,3.9531,3.9521,3.98,4.0356,4.0475,4.0473,4.0471,4.046,4.0361,4.0415,4.0433,4.0387,4.0394,4.0435,4.0514,4.0514,4.0514,4.0514,4.7625,4.7524,4.7482,4.7287,0.0,4.6736,4.6333,4.5753,4.4933,4.4184,4.35,4.3926,4.4311,4.4652,4.5388,4.5472,4.5117,4.5747,4.553,4.4737,4.5613,4.574,4.5232,4.5672,4.5818,4.5779,4.6546,4.6891,4.6901,4.7828,4.8081,4.7709,4.7704,4.7652,4.7594,4.7918,4.796,4.7672,4.8194,4.8713,4.9171,4.7553,4.5807,4.4161,4.1844,0.0,0.0,0.0,0.0,0.0,0.0,0.0,0.0,3.4575,0.0,3.4558,3.4699,3.4917,3.5202,3.5495,3.5822,3.6229,3.6708,3.673,3.6193,3.5976,3.6295,3.7262,3.7033,3.6996,3.7517,3.7218,3.6943,3.6849,3.6138,3.5659,3.5612,3.527,3.55,3.6651,3.7257,3.8068,3.9316,3.991,4.0284,4.0408,4.042,4.0421,4.0434,4.0495,4.0512,4.0512,4.0494,4.0341,3.9872,3.9843,3.9879,3.9835,3.9851,4.0035,4.0435,4.0177,3.99,3.978,3.9458,3.9241,3.9625,3.9704,3.9851,4.0252,4.0435,4.0473,4.0473,4.0514,4.0514,4.7577,4.7374,4.7524,4.7204,4.6661,4.6501,4.5935,4.5042,4.4378,0.0,0.0,4.4016,4.4441,4.475,4.5771,4.5898,4.536,4.6413,4.5992,4.4483,4.5464,4.576,4.5535,4.564,4.5959,4.6524,4.7036,4.7196,4.7135,4.7905,4.8296,4.8296,4.8296,4.85,4.8919,4.9494,4.9499,4.8906,4.8666,4.8984,4.9872,4.8933,4.7644,4.6089,4.3844,4.1439,3.8938,3.7265,3.6207,3.5832,3.5612,3.5593,3.5719,3.5757,3.5463,3.4824,3.4841,3.508,3.5465,3.5583,3.6219,3.7639,3.8479,3.847,3.738,3.7584,3.8061,3.8922,3.8403,3.8018,3.8001,3.7896,3.7768,3.7711,3.6991,3.6494,3.6383,3.5847,3.6017,3.7313,3.774,3.8339,3.9865,4.0163,4.0358,4.0572,4.0453,4.0323,4.0432,4.0466,4.0474,4.0442,4.0427,4.0381,3.9966,3.9876,4.0019,3.9783,3.9894,4.0165,4.0323,3.9927,3.9506,3.9492,3.872,3.8731,3.9117,3.9335,3.9478,4.0192,4.0361,4.0394,4.0473,4.0514,4.055,4.7662,4.7609,4.7173,4.696,4.677,4.5882,4.5196,4.4679,4.4563,4.4634,4.4907,4.5341,4.5748,4.6123,4.6669,4.6799,4.671,4.6584,4.6317,4.604,4.6,4.5973,4.5917,4.5952,4.5975,4.613,4.6794,4.7112,4.7196,4.7905,4.8296,4.8333,4.8296,4.8632,4.9216,4.9599,4.9888,5.0033,4.9103,4.8658,4.8808,4.7091,4.5701,4.4681,4.3363,4.1594,3.9566,3.8167,3.6922,3.5924,3.5152,3.5122,3.5907,3.602,3.6206,3.6823,3.7314,3.7516,3.7441,3.7904,3.8277,3.8505,3.8683,3.88,3.8968,3.9198,3.9479,3.9788,3.9662,3.9677,3.9626,3.9029,3.8649,3.8571,3.788,3.7409,3.7326,3.7164,3.7402,3.8388,3.8626,3.892,3.9908,4.0148,4.0463,4.0972,4.0595,4.0245,4.0345,4.0349,4.0347,4.0269,4.0323,3.9768,3.8884,3.8292,3.86,3.8341,3.8571,3.9165,4.0321,4.0245,4.0021,4.0141,3.9641,3.9621,3.9771,3.993,3.9913,4.0117,4.0291,4.0369,4.0427,4.0467,4.0767,4.7577,4.69,4.6991,4.6662,4.5962,4.5242,4.4817,4.4615,4.4574,4.4686,4.4913,4.5296,4.5679,4.6117,4.6501,4.6819,4.6956,4.6171,4.568,4.5445,4.497,4.4827,4.5012,4.5262,4.5689,4.6217,4.6812,4.7201,4.7436,4.7995,4.8521,4.9008,4.9444,4.9973,5.0558,5.074,5.1065,5.1491,5.0215,4.9508,4.9508,4.8684,4.7824,4.6939,4.597,4.4583,4.2821,4.1652,4.0437,3.9047,3.8502,3.8213,3.8196,3.8141,3.8209,3.8393,3.8615,3.863,3.8316,3.8945,3.9332,3.9375,3.934,3.9466,3.9761,3.9635,3.9623,3.9804,3.9965,4.0027,4.0075,3.9716,3.9523,3.9517,3.8753,3.8244,3.8129,3.7771,3.7865,3.8646,3.8846,3.9192,4.0036,4.0218,4.0363,4.0778,4.0449,4.0395,4.0702,4.0437,4.0222,4.0203,4.028,4.0032,3.9175,3.9241,3.9325,3.9298,3.9331,3.9623,4.0308,4.0121,3.9544,3.9007,3.8809,3.8728,3.8742,3.9062,3.9463,4.0057,4.0186,4.029,4.0315,4.0683,4.1219,4.7726,4.6705,4.6917,4.6291,4.5163,4.4932,4.4777,4.4608,4.4574,4.4574,4.463,4.5036,4.5382,4.5701,4.6105,4.6447,4.6543,4.5534,4.4839,4.4504,4.4028,4.3925,4.4141,4.4757,4.5526,4.6364,4.684,4.7226,4.7653,4.8258,4.904,4.9853,5.0513,5.1057,5.1585,5.1661,5.1953,5.2417,5.1418,5.0808,5.0811,5.0715,5.0303,4.9645,4.8674,4.7553,4.6301,4.5014,4.3664,4.2253,4.1812,4.1129,4.0165,4.0109,3.9896,3.9441,3.9445,3.9426,3.9286,3.9647,3.9891,3.989,3.9748,3.9754,4.0056,3.9882,3.9755,3.9966,4.0119,4.0127,4.0127,4.0127,4.0124,4.0071,3.9569,3.9137,3.9042,3.8551,3.8421,3.9005,3.9171,3.9524,4.0239,4.0514,4.0688,4.0894,4.0809,4.0966,4.116,4.059,4.0162,4.0141,4.0213,4.0079,3.9981,3.9976,4.0015,4.0121,4.008,4.0123,4.0211,3.9814,3.9209,3.8587,3.8301,3.8375,3.8155,3.854,3.9301,3.993,4.0124,4.0181,4.0241,4.0647,4.1176,4.829,4.8021,4.7052,4.5816,4.4862,4.5326,4.5203,4.4668,4.4608,4.4574,4.465,4.5002,4.521,4.531,4.5695,4.587,4.586,4.4671,4.412,4.4094,4.4053,4.4074,4.4173,4.5038,4.5829,4.641,4.6801,4.7273,4.7834,4.8931,4.9889,5.0618,5.076,5.1057,5.1365,5.1643,5.1941,5.2231,5.2344,5.2379,5.2347,5.1729,5.1354,5.1174,4.9796,4.9009,4.8553,4.6647,4.4919,4.3845,4.2992,4.1795,4.0316,4.0515,4.039,3.9504,3.9844,4.0314,4.0765,4.0267,3.9946,3.9861,3.9347,3.9274,3.9947,4.029,4.0597,4.0782,4.0498,4.0329,4.0189,4.026,4.0319,4.0291,4.0193,4.0136,4.0017,4.0017,3.9993,4.006,4.0036,4.0389,4.1042,4.1266,4.1538,4.2021,4.195,4.1787,4.1399,4.0572,4.0064,4.001,4.0063,3.9784,3.9316,3.9115,3.9365,3.9346,3.9396,3.9669,3.9955,4.0041,3.9935,3.8995,3.948,3.9315,3.9383,3.9751,3.9716,3.9843,4.0025,4.0124,4.0189,4.0387,4.0528,4.8239,4.7449,4.7372,4.6774,4.5962,4.5771,4.5527,4.5237,4.4777,4.4574,4.4595,4.4769,4.4981,4.5197,4.5382,4.5544,4.5673,4.4548,4.4009,4.3928,4.352,4.3476,4.3908,4.4366,4.5525,4.718,4.7411,4.8207,4.9471,5.0511,5.1216,5.161,5.2417,5.3081,5.3392,5.371,5.4033,5.4307,5.4116,5.4016,5.3836,5.238,5.1494,5.1401,5.0522,4.9666,4.9097,4.8236,4.6657,4.4317,4.4143,4.2957,4.0291,4.0607,4.0456,3.9542,3.9777,4.0558,4.174,4.1515,4.134,4.134,4.0573,4.0451,4.1169,4.0874,4.1002,4.1962,4.1835,4.1627,4.1589,4.163,4.1457,4.1021,4.0919,4.0781,4.0303,4.026,4.0253,4.027,4.0668,4.1032,4.1406,4.1836,4.2201,4.2424,4.217,4.1811,4.1838,4.0832,4.023,4.0482,4.0325,3.9923,3.9604,3.9652,3.9549,3.9291,3.9508,3.9852,3.8967,3.922,3.9185,3.8707,3.908,3.9267,3.9058,3.964,3.9897,3.9914,3.9927,3.9992,4.0105,4.0477,4.0721,4.8376,4.7564,4.7988,4.7658,4.6759,4.6244,4.5892,4.5602,4.4905,4.4574,4.4608,4.4811,4.4945,4.5022,4.5015,4.5293,4.5575,4.4416,4.3969,4.4065,4.3527,4.3543,4.4007,4.4639,4.5903,4.7569,4.7967,4.9068,5.0838,5.1626,5.2192,5.2711,5.3838,5.4596,5.5036,5.5472,5.5805,5.5902,5.5534,5.5383,5.5055,5.3258,5.2088,5.1836,5.1167,5.0377,4.9499,4.9396,4.7923,4.4888,4.5064,4.3932,4.1107,4.1027,4.0838,4.0316,4.0428,4.1152,4.2551,4.2433,4.2303,4.2222,4.158,4.1454,4.1981,4.1672,4.1928,4.3084,4.3259,4.3106,4.2612,4.2596,4.2339,4.1797,4.1731,4.1497,4.106,4.0948,4.0981,4.0981,4.1454,4.1859,4.2113,4.2789,4.3348,4.325,4.2389,4.1732,4.2091,4.1049,4.013,4.0734,4.0244,4.0008,4.0014,4.0037,3.9834,3.9692,3.9833,3.9629,3.8322,3.8721,3.8887,3.8836,3.8847,3.8996,3.931,3.9716,3.9895,3.9895,3.9908,3.9941,3.9997,4.065,4.1087,4.8943,4.8875,4.8901,4.8116,4.6819,4.6715,4.6317,4.5703,4.4916,4.458,4.4701,4.5235,4.5237,4.4691,4.4685,4.5022,4.5409,4.4216,4.3979,4.4583,4.4646,4.4701,4.4844,4.6305,4.7174,4.7618,4.8236,4.953,5.1358,5.1883,5.2732,5.4052,5.4413,5.4845,5.5574,5.6164,5.6449,5.65,5.6317,5.6219,5.6036,5.4614,5.3393,5.2589,5.1911,5.1125,5.033,4.9581,4.8326,4.644,4.5643,4.4313,4.2573,4.1966,4.1757,4.2038,4.2091,4.247,4.3139,4.2767,4.2371,4.2247,4.1658,4.1487,4.2337,4.2571,4.3051,4.4042,4.4394,4.4101,4.3009,4.2906,4.2754,4.2574,4.2555,4.2494,4.2398,4.2198,4.2476,4.2373,4.2417,4.2803,4.3528,4.4407,4.456,4.4294,4.329,4.2316,4.2038,4.091,4.0127,4.0014,3.9973,3.99,3.9919,4.0004,4.0066,3.9797,3.957,3.9678,3.9526,3.9249,3.9031,3.8992,3.9044,3.9259,3.9675,3.9862,3.9897,3.9895,3.9895,3.9933,3.9924,4.0637,4.1152,4.9018,4.8987,4.8608,4.818,4.7639,4.6817,4.6302,4.5963,4.4777,4.4493,4.4704,4.4566,4.4774,4.5263,4.4804,4.4736,4.4973,4.4884,4.5053,4.5304,4.5354,4.5382,4.545,4.6016,4.6796,4.7689,4.8451,5.004,5.2288,5.3478,5.4293,5.4846,5.5584,5.6119,5.6441,5.7007,5.7347,5.73,5.7153,5.6852,5.6395,5.5687,5.4779,5.3466,5.2246,5.1168,5.0295,5.0123,4.913,4.7228,4.6876,4.5725,4.3479,4.1876,4.1448,4.212,4.1805,4.2098,4.3249,4.3249,4.3048,4.3023,4.2305,4.2204,4.2868,4.3057,4.3323,4.4067,4.4638,4.4509,4.4279,4.409,4.385,4.3453,4.3354,4.3068,4.2508,4.2322,4.2295,4.227,4.2547,4.3272,4.4115,4.4619,4.4644,4.4168,4.317,4.2369,4.1612,4.0607,3.9935,3.9895,3.9895,3.9895,3.9897,3.9924,3.9862,3.9418,3.9104,3.8485,3.8115,3.8237,3.8093,3.832,3.8628,3.9183,3.9486,3.9859,3.9895,3.9895,3.9895,3.9895,3.9897,4.0612,4.1289,4.8744,4.8673,4.817,4.7918,4.7811,4.6766,4.6315,4.611,4.4768,4.4325,4.451,4.4308,4.4541,4.5033,4.497,4.4932,4.5007,4.5466,4.5838,4.6041,4.6041,4.6068,4.6102,4.6305,4.6979,4.8197,4.9484,5.1233,5.3133,5.4562,5.5333,5.5695,5.6463,5.6926,5.7239,5.783,5.8179,5.818,5.8022,5.7548,5.6846,5.642,5.5511,5.4061,5.2886,5.177,5.0689,5.0526,4.9694,4.8176,4.7532,4.6019,4.3374,4.224,4.1828,4.221,4.2066,4.2323,4.3281,4.3502,4.3469,4.3502,4.3137,4.3081,4.3561,4.3571,4.3836,4.4297,4.468,4.4926,4.4811,4.4754,4.4568,4.4121,4.3986,4.3661,4.2947,4.2875,4.2854,4.286,4.3173,4.3813,4.4518,4.4708,4.4595,4.4195,4.3465,4.2608,4.1729,4.0878,4.0165,3.9976,3.9895,3.9895,3.9895,3.9911,3.9848,3.9432,3.9217,3.8238,3.7524,3.7567,3.7604,3.777,3.8185,3.8791,3.9334,3.9746,3.9895,3.9895,3.9895,3.9895,4.016,4.0614,4.1303,4.8202,4.8129,4.7622,4.7396,4.7281,4.6584,4.6274,4.5914,4.4681,4.4085,4.4169,4.451,4.4308,4.4193,4.4952,4.5558,4.5737,4.5797,4.6177,4.6759,4.6827,4.6834,4.6853,4.7488,4.8146,4.8908,5.1306,5.2976,5.3865,5.4894,5.5831,5.6493,5.6785,5.7262,5.7966,5.8512,5.8934,5.8901,5.8803,5.8376,5.7614,5.6884,5.5763,5.4343,5.389,5.3021,5.1561,5.0788,4.996,4.8861,4.7399,4.5002,4.2946,4.2962,4.3311,4.261,4.2992,4.3363,4.3469,4.3502,4.3506,4.3547,4.3711,4.3733,4.3875,4.4257,4.451,4.4524,4.4805,4.4917,4.4667,4.4618,4.4571,4.4564,4.4299,4.4114,4.4071,4.4094,4.4161,4.4076,4.4064,4.4373,4.4648,4.4723,4.4687,4.4515,4.4052,4.3293,4.2397,4.1584,4.0891,4.0241,4.0087,4.02,4.0049,3.9884,3.9739,3.9597,3.948,3.8952,3.8275,3.8087,3.8124,3.8304,3.8789,3.9363,3.9521,3.9895,3.9895,3.9895,3.9895,3.9935,4.016,4.0579,4.1416,4.7646,4.758,4.7074,4.686,4.6791,4.6191,4.5705,4.5106,4.4186,4.3738,4.3598,4.3318,4.3368,4.3835,4.4244,4.5163,4.6406,4.6481,4.6853,4.7481,4.7549,4.7549,4.7658,4.83,4.9291,5.0582,5.2528,5.3746,5.4376,5.5857,5.6933,5.7259,5.7501,5.7734,5.8006,5.8675,5.9059,5.9135,5.9433,5.9254,5.8485,5.7612,5.6672,5.5666,5.4545,5.3385,5.2355,5.1541,5.0671,4.9743,4.8685,4.6938,4.4759,4.3542,4.3118,4.3104,4.2767,4.2951,4.3433,4.3506,4.3588,4.3757,4.372,4.3762,4.3965,4.4267,4.4444,4.4397,4.4723,4.4905,4.4652,4.4411,4.4324,4.4294,4.4248,4.4099,4.3988,4.3837,4.372,4.3742,4.3763,4.3912,4.4166,4.4349,4.4348,4.4075,4.3868,4.3458,4.2599,4.2214,4.1722,4.0964,4.085,4.0495,4.0271,3.9933,3.9638,3.9489,3.9399,3.9262,3.8732,3.8542,3.8618,3.8855,3.9374,3.967,3.9826,3.9895,3.9897,3.9973,4.0014,4.0011,4.0011,4.0658,4.1608,4.7108,4.704,4.6545,4.6298,4.628,4.5918,4.5372,4.4636,4.3973,4.3506,4.3109,4.2823,4.2975,4.3576,4.4212,4.5521,4.7109,4.7455,4.8003,4.8503,4.8056,4.7921,4.8056,4.8943,5.0168,5.1581,5.3007,5.4071,5.4839,5.6265,5.7307,5.7697,5.7927,5.7966,5.8054,5.855,5.8922,5.9145,5.9562,5.9548,5.8938,5.8353,5.7516,5.6435,5.5369,5.4265,5.3225,5.2602,5.1669,5.0158,4.8866,4.714,4.5183,4.3771,4.3025,4.2965,4.2951,4.2988,4.3428,4.3506,4.3588,4.3741,4.3718,4.3725,4.4045,4.4441,4.4763,4.4343,4.4926,4.5063,4.4476,4.4225,4.4043,4.3947,4.3919,4.3893,4.3757,4.3629,4.351,4.354,4.3532,4.3688,4.3943,4.4088,4.411,4.3825,4.3853,4.3663,4.2919,4.2646,4.2158,4.1631,4.1143,4.0786,4.0478,4.0024,3.9576,3.9386,3.9249,3.9062,3.867,3.8775,3.89,3.9197,3.9635,3.975,3.9895,3.9897,3.9935,4.0014,4.0306,4.0683,4.0954,4.1313,4.2106,4.6539,4.6442,4.6017,4.5801,4.5782,4.5773,4.534,4.4573,4.3964,4.3312,4.278,4.2943,4.3175,4.3563,4.5002,4.6551,4.7853,4.8537,4.9154,4.939,4.8841,4.8293,4.8631,4.9653,5.0939,5.2288,5.312,5.4262,5.5702,5.6458,5.7098,5.8191,5.8236,5.8149,5.8376,5.8515,5.8913,5.9309,5.9496,5.9398,5.9145,5.8918,5.8221,5.6803,5.6313,5.5395,5.3992,5.3242,5.2205,5.0212,4.8192,4.6404,4.4759,4.3921,4.3454,4.2731,4.3135,4.3433,4.3543,4.3502,4.3547,4.3635,4.3759,4.3875,4.4038,4.4743,4.4998,4.4304,4.5005,4.5186,4.4209,4.3935,4.3832,4.3674,4.3659,4.3584,4.3608,4.3644,4.3759,4.3795,4.3707,4.3805,4.4238,4.4251,4.4282,4.4446,4.4418,4.3875,4.3629,4.3287,4.28,4.2259,4.1732,4.1414,4.1219,4.0373,3.993,3.9727,3.9429,3.895,3.8785,3.8937,3.9162,3.9452,3.9911,3.9964,4.003,4.0132,4.0337,4.0573,4.1027,4.1601,4.1919,4.2074,4.2458,4.5832,4.5605,4.5728,4.5628,4.5444,4.5655,4.5078,4.4036,4.3806,4.3042,4.2309,4.2977,4.36,4.4098,4.5924,4.7499,4.8502,4.8943,4.9398,4.9973,4.977,4.9856,5.0254,5.0694,5.1708,5.3127,5.4172,5.5456,5.6545,5.7152,5.821,5.9686,5.9129,5.9196,5.9671,5.9514,5.9671,5.9933,5.9756,5.9776,5.9839,5.9226,5.8736,5.8256,5.7081,5.5655,5.3878,5.2041,5.1097,5.0682,4.8754,4.7083,4.589,4.5357,4.4571,4.3616,4.3901,4.4089,4.3649,4.3547,4.3629,4.3798,4.3849,4.3713,4.3968,4.4302,4.4321,4.4074,4.4472,4.4553,4.4025,4.3901,4.4026,4.4277,4.3973,4.3838,4.4243,4.4399,4.4581,4.5154,4.5195,4.5225,4.5163,4.5044,4.5026,4.5341,4.4935,4.4371,4.424,4.3863,4.3338,4.3074,4.2622,4.2318,4.1864,4.0947,4.0377,4.0181,3.968,3.8954,3.8898,3.9008,3.9255,3.9516,4.0393,4.0695,4.069,4.0739,4.0936,4.1189,4.159,4.2077,4.2203,4.2407,4.2844,4.5655,4.5481,4.5701,4.5664,4.5499,4.5692,4.4984,4.3869,4.3688,4.3051,4.2396,4.3242,4.4043,4.4698,4.6594,4.8006,4.8987,4.9653,5.0161,5.0465,5.0533,5.0939,5.148,5.1674,5.2461,5.389,5.4735,5.5936,5.7185,5.7783,5.8854,5.9987,5.993,5.9967,6.0278,6.0199,6.0173,6.0312,6.0112,6.0148,6.0256,5.9807,5.9301,5.8939,5.7871,5.6616,5.4869,5.2796,5.1532,5.0678,4.9079,4.7627,4.6872,4.6213,4.5484,4.4571,4.4961,4.4856,4.4273,4.4299,4.4407,4.4405,4.4336,4.4613,4.489,4.5119,4.5339,4.4403,4.4804,4.4606,4.3964,4.4017,4.4519,4.5009,4.4783,4.4716,4.5169,4.5192,4.5402,4.576,4.5888,4.5925,4.5925,4.5629,4.5705,4.576,4.5089,4.4852,4.4786,4.4333,4.3868,4.3498,4.3106,4.2703,4.2347,4.1577,4.0909,4.0682,4.0352,3.9503,3.9472,3.9527,3.9887,4.0353,4.0983,4.1343,4.1226,4.1305,4.164,4.1924,4.2214,4.2552,4.2813,4.291,4.3342,4.5732,4.5646,4.5655,4.5692,4.5692,4.571,4.4962,4.3869,4.3688,4.3258,4.2912,4.3809,4.4698,4.5242,4.7388,4.8589,4.9349,5.0499,5.1058,5.1302,5.1505,5.1953,5.2604,5.2503,5.3315,5.4583,5.4778,5.6227,5.7713,5.8237,5.9139,6.0362,6.0634,6.0621,6.0817,6.0681,6.0554,6.0696,6.055,6.0579,6.0661,6.0464,6.0053,5.9562,5.8596,5.7541,5.6019,5.4446,5.2872,5.1028,4.9234,4.8166,4.7523,4.6475,4.603,4.5842,4.5805,4.5654,4.5076,4.5378,4.5528,4.5081,4.5358,4.5833,4.5791,4.6053,4.5836,4.4937,4.5588,4.4895,4.4275,4.4456,4.5286,4.5902,4.6052,4.6138,4.6117,4.6085,4.6067,4.6168,4.6177,4.6177,4.614,4.6071,4.6053,4.6241,4.5463,4.4868,4.4638,4.4118,4.3861,4.3717,4.3336,4.2956,4.2627,4.2229,4.1646,4.1218,4.0987,4.0531,4.0537,4.0681,4.0982,4.1355,4.1693,4.1756,4.1575,4.1805,4.2304,4.2518,4.2756,4.3277,4.3744,4.3707,4.3921,4.5145,4.4846,4.4877,4.5033,4.5293,4.5321,4.4732,4.3703,4.3697,4.3513,4.3557,4.4502,4.5634,4.6765,4.8524,5.0033,5.0491,5.1074,5.1472,5.2131,5.2773,5.3382,5.3822,5.3585,5.4084,5.5277,5.6089,5.7241,5.8511,5.9072,5.9931,6.1701,6.1495,6.1556,6.2046,6.1575,6.1527,6.1644,6.1204,6.1197,6.1395,6.1002,6.0667,6.0449,5.887,5.7385,5.6238,5.4692,5.3093,5.1636,5.0461,4.9104,4.7716,4.7561,4.7163,4.6471,4.6567,4.6493,4.5883,4.586,4.5874,4.5713,4.5493,4.5237,4.5753,4.5123,4.5128,4.5035,4.4775,4.4572,4.4653,4.5787,4.6471,4.6847,4.7305,4.7652,4.7653,4.7193,4.7125,4.7502,4.7677,4.7751,4.7677,4.7085,4.6883,4.6653,4.5897,4.4926,4.4385,4.3975,4.375,4.3676,4.3566,4.3241,4.3109,4.2754,4.235,4.1972,4.1707,4.1605,4.1649,4.1563,4.1793,4.1995,4.2231,4.2208,4.2142,4.2648,4.3195,4.3223,4.3193,4.3489,4.3781,4.4008,4.4076,4.5058,4.4662,4.4929,4.5106,4.5257,4.5494,4.4806,4.3683,4.3781,4.3623,4.3584,4.4764,4.6092,4.7242,4.8827,4.9965,5.0744,5.148,5.2122,5.2799,5.3382,5.4093,5.493,5.4828,5.5158,5.6225,5.6933,5.8109,5.926,5.9951,6.092,6.2434,6.2158,6.2234,6.27,6.2365,6.2164,6.2083,6.1813,6.1704,6.17,6.1093,6.0417,6.0181,5.8714,5.7468,5.6572,5.5408,5.3874,5.2425,5.1278,4.9877,4.8143,4.8047,4.7783,4.7347,4.7342,4.7264,4.6718,4.6801,4.6898,4.6498,4.6337,4.6658,4.6841,4.6163,4.5951,4.6177,4.5847,4.5443,4.5801,4.6397,4.7173,4.766,4.8041,4.8301,4.8213,4.7918,4.7757,4.8213,4.8223,4.8223,4.8076,4.7746,4.7327,4.6913,4.6214,4.5288,4.4497,4.4063,4.3694,4.3575,4.3642,4.3578,4.3508,4.3279,4.2988,4.2746,4.2654,4.2657,4.2725,4.257,4.248,4.2682,4.2865,4.2961,4.3047,4.357,4.3664,4.3504,4.3402,4.3515,4.3605,4.3755,4.3771,4.5223,4.4824,4.5257,4.5366,4.5468,4.5909,4.5139,4.3729,4.3982,4.4075,4.3738,4.5157,4.6561,4.7682,4.8757,4.9619,5.0684,5.1834,5.2909,5.3619,5.3957,5.4761,5.564,5.6046,5.6325,5.7015,5.7455,5.8617,5.9866,6.0736,6.1229,6.2321,6.2565,6.2543,6.2687,6.2775,6.2468,6.2099,6.2202,6.2059,6.1699,6.0988,6.0203,5.9281,5.8836,5.7844,5.6909,5.5943,5.4818,5.2886,5.1866,5.0402,4.9049,4.8333,4.8296,4.826,4.8186,4.7856,4.7521,4.7751,4.7857,4.7321,4.7595,4.8065,4.8057,4.7627,4.73,4.7314,4.7044,4.6975,4.7122,4.7305,4.7641,4.8086,4.8301,4.8296,4.8296,4.8296,4.8255,4.8292,4.8296,4.8296,4.8296,4.8108,4.7638,4.7123,4.6392,4.558,4.4784,4.426,4.3947,4.3718,4.386,4.3706,4.36,4.3531,4.3263,4.3251,4.324,4.3355,4.3433,4.3181,4.3011,4.3277,4.3446,4.3426,4.3389,4.3523,4.3538,4.3506,4.3515,4.354,4.3532,4.3506,4.3506,4.5261,4.5596,4.4851,4.5202,4.6165,4.6059,4.5477,4.4884,4.4781,4.5283,4.57,4.6151,4.7456,4.9068,4.9726,5.0642,5.1725,5.2807,5.3661,5.4363,5.4837,5.5708,5.6393,5.69,5.7374,5.7663,5.7899,5.8643,5.972,6.0219,6.1127,6.2035,6.237,6.2494,6.2641,6.27,6.2469,6.2105,6.2375,6.2409,6.198,6.1187,6.0149,5.9154,5.8835,5.8016,5.6912,5.6346,5.5198,5.2782,5.2316,5.1176,4.9787,4.8832,4.8461,4.8282,4.8272,4.8111,4.7987,4.8121,4.8223,4.8008,4.7735,4.7762,4.7846,4.734,4.7325,4.7818,4.7957,4.7819,4.7201,4.7641,4.8039,4.8296,4.8296,4.8296,4.8296,4.8296,4.8296,4.8296,4.8296,4.8296,4.8296,4.8172,4.7674,4.7147,4.6512,4.5589,4.4658,4.4418,4.4362,4.4233,4.4162,4.3919,4.367,4.3569,4.3409,4.3454,4.3469,4.3616,4.362,4.3506,4.3523,4.3765,4.3659,4.3493,4.3467,4.3506,4.3502,4.3502,4.3502,4.3502,4.3502,4.3502,4.3599,4.5603,4.5563,4.5396,4.5645,4.6163,4.6376,4.5655,4.467,4.4851,4.514,4.549,4.6079,4.7538,4.928,4.9996,5.0913,5.2258,5.3585,5.4236,5.4735,5.5336,5.608,5.6765,5.7239,5.7543,5.7755,5.7972,5.8607,5.9918,6.039,6.1082,6.1942,6.2295,6.239,6.2565,6.2624,6.251,6.2297,6.2511,6.2659,6.2295,6.1344,6.0008,5.8943,5.8589,5.7881,5.6628,5.6283,5.5258,5.34,5.2493,5.174,5.0844,4.9916,4.9039,4.8451,4.8212,4.8116,4.8062,4.8032,4.8015,4.807,4.7752,4.7799,4.8006,4.7757,4.7457,4.7982,4.8185,4.8053,4.7787,4.8043,4.8221,4.8287,4.8255,4.8255,4.8292,4.8296,4.8287,4.8282,4.8282,4.8287,4.8296,4.8047,4.7633,4.7134,4.6599,4.5731,4.4686,4.4707,4.4862,4.4463,4.4283,4.4011,4.3795,4.3759,4.383,4.388,4.3945,4.4087,4.4052,4.4039,4.4117,4.4245,4.402,4.3685,4.3506,4.3547,4.3506,4.3543,4.3653,4.369,4.3538,4.3534,4.3823,4.6072,4.5734,4.6132,4.6241,4.6261,4.6574,4.5879,4.4676,4.4875,4.5049,4.4971,4.6092,4.7664,4.931,5.0414,5.1432,5.2647,5.4033,5.4609,5.504,5.564,5.635,5.6867,5.7103,5.7383,5.7823,5.7918,5.8554,5.9595,6.0313,6.1133,6.1691,6.1983,6.2219,6.237,6.2481,6.256,6.2283,6.2523,6.2499,6.1802,6.0811,5.9385,5.8002,5.8163,5.7608,5.6129,5.5955,5.5216,5.3858,5.284,5.2129,5.1737,5.1051,5.0003,4.8809,4.8378,4.8103,4.7885,4.7798,4.7885,4.8072,4.799,4.806,4.8182,4.8121,4.8141,4.8214,4.8126,4.8065,4.806,4.8163,4.8187,4.8229,4.8214,4.8209,4.8236,4.8258,4.8265,4.827,4.829,4.8263,4.8263,4.8213,4.7835,4.7306,4.6804,4.6355,4.5489,4.547,4.5379,4.4729,4.4371,4.4076,4.3938,4.4011,4.4256,4.4587,4.4754,4.4925,4.4818,4.4751,4.4723,4.4659,4.4309,4.4016,4.3804,4.3817,4.412,4.423,4.4029,4.4087,4.4401,4.4481,4.4625,4.661,4.7029,4.651,4.6602,4.6995,4.6606,4.6155,4.5647,4.5478,4.5775,4.6028,4.7165,4.8468,5.0097,5.178,5.2741,5.3501,5.4228,5.504,5.5606,5.6316,5.7036,5.7654,5.7764,5.7697,5.79,5.79,5.8299,5.9096,5.9814,6.0464,6.1081,6.1741,6.199,6.206,6.2225,6.168,6.0825,6.1342,6.1117,6.0035,5.9552,5.85,5.7595,5.7517,5.7288,5.5923,5.5649,5.5122,5.4058,5.3376,5.2488,5.1558,5.1453,5.0818,4.9927,4.9196,4.8618,4.8156,4.7918,4.7959,4.8099,4.7995,4.7985,4.8106,4.8115,4.8037,4.8037,4.7992,4.802,4.806,4.8063,4.8033,4.8055,4.813,4.8153,4.8212,4.8165,4.8177,4.8173,4.8141,4.819,4.8214,4.8138,4.8006,4.7477,4.6994,4.6609,4.6334,4.6216,4.6039,4.5407,4.4949,4.4626,4.4526,4.4531,4.4655,4.5165,4.5479,4.5697,4.5608,4.5438,4.5059,4.4925,4.465,4.4703,4.482,4.4907,4.5009,4.4992,4.493,4.5225,4.564,4.5607,4.5386,4.704,4.7279,4.6999,4.7029,4.7179,4.66,4.6017,4.5594,4.5451,4.5823,4.658,4.7348,4.8921,5.0956,5.2416,5.3337,5.4134,5.4871,5.5606,5.6316,5.7036,5.7586,5.7798,5.79,5.79,5.79,5.7909,5.7981,5.8624,5.9455,6.0317,6.091,6.1523,6.193,6.1826,6.1992,6.1738,6.1323,6.115,6.0559,5.9673,5.903,5.8117,5.6502,5.7283,5.6692,5.5698,5.5628,5.5076,5.4079,5.3473,5.2966,5.2142,5.1857,5.1449,5.0715,5.0198,4.9633,4.8945,4.8409,4.8318,4.8264,4.8068,4.7864,4.802,4.7979,4.7917,4.7997,4.7875,4.7921,4.801,4.7955,4.7974,4.8006,4.8124,4.807,4.8096,4.8077,4.8068,4.8032,4.8027,4.8052,4.8087,4.809,4.8075,4.7845,4.7531,4.7325,4.7011,4.682,4.6555,4.6186,4.5732,4.5365,4.5311,4.5274,4.5207,4.5607,4.6126,4.6301,4.6367,4.6159,4.5785,4.5613,4.5636,4.5699,4.5853,4.5766,4.5644,4.5746,4.5883,4.6085,4.6276,4.5967,4.5905,4.7298,4.7298,4.7298,4.7298,4.7268,4.6749,4.6082,4.5357,4.5587,4.602,4.6745,4.7782,4.9693,5.1631,5.2706,5.3585,5.4591,5.5547,5.6215,5.69,5.7485,5.7832,5.79,5.79,5.79,5.79,5.79,5.7945,5.8298,5.902,5.9958,6.062,6.1074,6.1494,6.1685,6.1748,6.1594,6.1394,6.0508,5.9825,5.9222,5.863,5.7363,5.6606,5.6552,5.6673,5.5239,5.5571,5.5203,5.4502,5.3741,5.3186,5.2563,5.2173,5.1814,5.1263,5.0964,5.0677,4.999,4.9363,4.8799,4.8501,4.8184,4.7829,4.7907,4.7886,4.7978,4.8224,4.8409,4.8389,4.8379,4.8468,4.8379,4.8347,4.8239,4.812,4.8021,4.8125,4.8078,4.7957,4.7937,4.785,4.7896,4.7998,4.8035,4.8082,4.8007,4.786,4.7539,4.7145,4.6736,4.6331,4.6249,4.5948,4.5966,4.5899,4.5871,4.6048,4.6615,4.689,4.6921,4.6801,4.6474,4.6418,4.6437,4.6452,4.6425,4.6351,4.6305,4.67,4.6992,4.6763,4.6672,4.6429,4.653,4.7298,4.7298,4.7309,4.7298,4.7309,4.7268,4.6471,4.5495,4.6311,4.6545,4.69,4.8706,5.0609,5.2101,5.3032,5.3828,5.4718,5.6089,5.6664,5.707,5.7485,5.7832,5.79,5.79,5.79,5.79,5.79,5.79,5.802,5.8546,5.918,5.9646,6.0364,6.0782,6.1154,6.1372,6.1313,6.088,5.9736,5.8901,5.8444,5.7791,5.6639,5.5721,5.621,5.6483,5.4979,5.5617,5.5757,5.5137,5.4175,5.3531,5.3004,5.234,5.1903,5.1822,5.1551,5.1359,5.0978,5.011,4.9331,4.8824,4.8403,4.8086,4.815,4.8435,4.8578,4.8703,4.8981,4.9292,4.9434,4.9514,4.9063,4.8864,4.8705,4.8632,4.8503,4.83,4.8223,4.7964,4.7975,4.8139,4.7905,4.803,4.7928,4.7944,4.7745,4.76,4.7378,4.7003,4.6602,4.6328,4.6462,4.643,4.6493,4.6468,4.6499,4.6669,4.7073,4.7327,4.7454,4.7269,4.6995,4.6919,4.6856,4.6914,4.7002,4.6966,4.7168,4.7861,4.8025,4.7607,4.7493,4.7466,4.7591,4.7549,4.7919,4.7908,4.7668,4.7249,4.6839,4.6401,4.6017,4.6304,4.7152,4.8,4.9537,5.1065,5.2402,5.3208,5.4232,5.553,5.6338,5.6975,5.7417,5.7798,5.79,5.79,5.79,5.79,5.79,5.79,5.79,5.7963,5.8253,5.8571,5.9054,5.9627,6.0247,6.0656,6.105,6.107,6.0626,5.952,5.8609,5.8349,5.746,5.6357,5.532,5.6209,5.624,5.5369,5.5845,5.5763,5.5287,5.4381,5.3878,5.3398,5.2542,5.2243,5.2304,5.2071,5.1857,5.1626,5.0789,5.0012,4.9492,4.915,4.8917,4.8762,4.9175,4.9299,4.9415,4.9596,4.9873,4.9727,4.968,4.9534,4.9411,4.9299,4.9183,4.8992,4.8815,4.8767,4.8683,4.8731,4.8853,4.8485,4.8097,4.7935,4.7772,4.7558,4.7351,4.7146,4.7046,4.6725,4.659,4.673,4.6865,4.6943,4.7035,4.7109,4.7277,4.7444,4.7444,4.751,4.7635,4.743,4.7351,4.7264,4.735,4.7421,4.7601,4.7851,4.8181,4.8292,4.8181,4.826,4.8296,4.8296,4.8158,4.8588,4.8577,4.8218,4.7578,4.7309,4.685,4.6415,4.6734,4.7486,4.894,4.9977,5.127,5.2547,5.3555,5.4724,5.6103,5.691,5.7381,5.7721,5.7866,5.79,5.79,5.79,5.79,5.79,5.79,5.79,5.79,5.79,5.8153,5.8519,5.8926,5.9438,6.0168,6.0658,6.0936,6.0707,5.9651,5.8717,5.8524,5.7376,5.6246,5.5451,5.6176,5.6105,5.5627,5.585,5.591,5.5357,5.4686,5.428,5.3725,5.3197,5.2808,5.2814,5.2743,5.2279,5.1918,5.1159,5.054,5.0073,4.97,4.9636,4.9738,4.9869,4.9988,5.0018,5.0174,5.0264,5.0229,5.045,5.0265,5.0163,5.0032,4.9916,4.9608,4.937,4.9451,4.9494,4.9448,4.9244,4.844,4.7946,4.7577,4.7423,4.7325,4.7168,4.709,4.7039,4.7046,4.6991,4.7112,4.7261,4.7434,4.7212,4.7041,4.7085,4.7231,4.722,4.7305,4.7491,4.7574,4.74,4.7421,4.7689,4.7772,4.7786,4.796,4.825,4.8292,4.8296,4.8296,4.8296,4.8296,4.9228,4.9288,4.9277,4.8887,4.8338,4.8929,4.8057,4.667,4.7516,4.819,4.8676,5.0199,5.1559,5.2633,5.3763,5.5108,5.6453,5.7337,5.7768,5.7839,5.79,5.79,5.79,5.79,5.79,5.79,5.79,5.79,5.79,5.79,5.7963,5.7972,5.8253,5.8685,5.9498,6.0068,6.0581,6.0769,5.9494,5.8859,5.8374,5.7245,5.6131,5.5988,5.6109,5.6038,5.6254,5.6097,5.6112,5.5749,5.5207,5.4786,5.4322,5.3959,5.3765,5.3907,5.3865,5.3479,5.2886,5.1522,5.1034,5.09,5.0675,5.019,5.0037,5.0247,5.0549,5.0443,5.0923,5.1347,5.1519,5.1538,5.1125,5.0915,5.0795,5.0634,5.0346,5.0225,5.0301,5.0145,4.9821,4.9389,4.8485,4.7713,4.7269,4.7071,4.7032,4.7009,4.7015,4.7007,4.7064,4.7092,4.7178,4.7195,4.7234,4.7128,4.7007,4.7026,4.7037,4.7066,4.7133,4.7267,4.7338,4.7327,4.7422,4.7511,4.7689,4.786,4.8072,4.824,4.8292,4.8296,4.8296,4.8296,4.8296,4.9048,4.8708,4.9553,4.9553,4.8977,4.8708,4.7948,4.7149,4.7472,4.8108,4.889,4.9727,5.109,5.2546,5.3634,5.4864,5.6378,5.6994,5.7402,5.7881,5.79,5.79,5.79,5.79,5.79,5.79,5.79,5.79,5.79,5.79,5.79,5.79,5.7972,5.851,5.9392,6.0029,6.0566,6.0711,5.9651,5.8645,5.8503,5.7304,5.6561,5.6675,5.6568,5.6668,5.7047,5.6847,5.6383,5.6311,5.5876,5.5305,5.512,5.4871,5.4365,5.4472,5.4429,5.3749,5.3305,5.2633,5.2481,5.2215,5.1781,5.1246,5.1069,5.1077,5.0962,5.0841,5.1302,5.1515,5.1317,5.1776,5.1686,5.1632,5.152,5.1472,5.1309,5.1267,5.1228,5.0848,5.0467,4.9883,4.9097,4.7852,4.721,4.7092,4.7092,4.7009,4.7009,4.7009,4.7043,4.7037,4.7054,4.7032,4.7003,4.7003,4.7003,4.7015,4.7015,4.702,4.707,4.7184,4.7229,4.7312,4.7314,4.7345,4.7564,4.7777,4.8035,4.8194,4.825,4.8296,4.8296,4.8296,4.8296,4.9726,4.9404,4.9938,4.9841,4.9288,4.8828,4.8158,4.7502,4.7757,4.8358,4.8925,4.9556,5.0827,5.2364,5.325,5.4498,5.6162,5.6575,5.7247,5.7766,5.79,5.79,5.79,5.7891,5.79,5.7891,5.7891,5.79,5.79,5.79,5.79,5.79,5.7918,5.8386,5.9131,5.9714,6.0227,6.0304,5.9639,5.9002,5.8574,5.7867,5.7389,5.736,5.7253,5.7239,5.7625,5.7382,5.6639,5.6746,5.6461,5.5883,5.5883,5.5633,5.5091,5.5263,5.4718,5.427,5.4167,5.3288,5.3169,5.3433,5.2994,5.2409,5.1993,5.1888,5.17,5.1542,5.1581,5.1672,5.1753,5.2225,5.2427,5.2401,5.2388,5.2346,5.2014,5.1972,5.1695,5.1339,5.0673,5.0161,4.9567,4.8264,4.7133,4.7175,4.7216,4.7133,4.705,4.7009,4.7003,4.7003,4.7003,4.7003,4.7003,4.7003,4.7003,4.7003,4.7003,4.7003,4.7212,4.7352,4.7328,4.7338,4.7563,4.7662,4.7555,4.766,4.796,4.8119,4.825,4.8296,4.8296,4.8296,4.8296,5.1158,5.1056,5.0476,4.9901,4.9337,4.9228,4.8528,4.7483,4.8589,4.8806,4.8554,5.0329,5.1328,5.1933,5.2591,5.4031,5.5628,5.6018,5.6839,5.7498,5.768,5.7753,5.7799,5.7818,5.7772,5.7818,5.7872,5.79,5.79,5.79,5.79,5.79,5.79,5.8217,5.8711,5.9216,5.9795,6.0047,5.9825,5.9306,5.8895,5.8467,5.8131,5.7924,5.7567,5.771,5.7817,5.7389,5.6854,5.6711,5.6604,5.6468,5.6432,5.6432,5.6432,5.601,5.51,5.5044,5.4663,5.3519,5.3353,5.3435,5.3011,5.2684,5.2462,5.232,5.2065,5.2099,5.2224,5.2391,5.259,5.2972,5.3322,5.3314,5.3316,5.3034,5.2588,5.2336,5.2008,5.1498,5.069,5.0096,4.9633,4.8543,4.7822,4.7849,4.7891,4.747,4.734,4.705,4.7045,4.7003,4.7003,4.7003,4.7003,4.7003,4.7003,4.7003,4.7003,4.7039,4.7301,4.7552,4.7669,4.7813,4.8017,4.798,4.7615,4.7634,4.7882,4.8041,4.8173,4.8255,4.8296,4.8296,4.8296,5.069,4.9924,5.0607,5.0301,4.9378,4.9288,4.8798,4.8142,4.8479,4.886,4.9692,5.0203,5.1069,5.191,5.2127,5.346,5.4464,5.5343,5.6254,5.6849,5.728,5.7308,5.7383,5.7476,5.7476,5.7569,5.7689,5.7818,5.7872,5.7872,5.7872,5.79,5.779,5.7981,5.826,5.8659,5.94,5.9861,5.965,5.9515,5.9123,5.8617,5.856,5.8488,5.7496,5.7889,5.8745,5.7896,5.7503,5.7803,5.7938,5.7729,5.6582,5.6985,5.7207,5.6077,5.5468,5.5038,5.4013,5.3368,5.3119,5.3084,5.2664,5.2487,5.2366,5.237,5.2262,5.2382,5.2477,5.2544,5.2736,5.3078,5.3104,5.2885,5.2977,5.2912,5.2424,5.1962,5.1659,5.1075,5.0305,5.0304,4.9811,4.9478,4.887,4.8831,4.8597,4.8081,4.7666,4.7406,4.7229,4.7223,4.7217,4.7253,4.7075,4.7039,4.7003,4.7003,4.7003,4.7039,4.7206,4.7511,4.7915,4.8099,4.8058,4.78,4.7433,4.7542,4.771,4.7902,4.8065,4.8173,4.8255,4.8287,4.8292,5.075,5.0133,5.0301,4.9864,4.9067,4.9198,4.9146,4.9045,4.9045,4.9531,5.0166,5.0488,5.0979,5.1574,5.2002,5.2951,5.438,5.4913,5.5728,5.6647,5.6776,5.6911,5.7015,5.7063,5.7063,5.7176,5.7299,5.743,5.7606,5.7662,5.7652,5.7625,5.7551,5.7551,5.7717,5.802,5.8667,5.9303,5.9604,5.9524,5.9155,5.8766,5.9052,5.8588,5.7354,5.8281,5.9316,5.8039,5.8039,5.8224,5.8259,5.813,5.7194,5.7523,5.7262,5.6202,5.5329,5.4672,5.3906,5.3465,5.3108,5.2862,5.2703,5.2815,5.2655,5.2569,5.2491,5.2503,5.2496,5.2532,5.2776,5.2927,5.2486,5.2059,5.2278,5.2493,5.2004,5.1429,5.0932,5.0417,5.0246,5.0379,5.0263,5.005,4.9871,4.9769,4.9339,4.8612,4.8214,4.7863,4.7752,4.7699,4.7621,4.758,4.7396,4.7253,4.7116,4.708,4.7003,4.7039,4.7176,4.7514,4.8021,4.8062,4.7969,4.7636,4.728,4.7308,4.745,4.7715,4.8004,4.8143,4.8236,4.8248,4.8299,5.1158,5.1068,4.9894,4.9127,4.8528,4.9127,4.9673,5.0189,5.0189,5.0285,5.0446,5.0907,5.1169,5.1416,5.1792,5.2684,5.374,5.4391,5.5273,5.6573,5.6447,5.6496,5.6603,5.6651,5.6651,5.6651,5.6786,5.7053,5.7195,5.7261,5.7252,5.7224,5.6968,5.6977,5.7252,5.7327,5.7875,5.8555,5.9124,5.9309,5.9122,5.912,5.9094,5.8003,5.7448,5.7455,5.7655,5.7576,5.7576,5.7583,5.7867,5.821,5.8014,5.7585,5.7026,5.6267,5.5281,5.4362,5.3736,5.3255,5.3229,5.3191,5.3353,5.3246,5.2993,5.2875,5.2815,5.29,5.2955,5.2883,5.3033,5.3271,5.3044,5.2585,5.2507,5.2387,5.192,5.1392,5.0906,5.0504,5.0441,5.0635,5.1152,5.1019,5.1461,5.1072,5.039,4.9596,4.9162,4.8781,4.8371,4.8306,4.8258,4.8211,4.8074,4.786,4.7366,4.7223,4.7152,4.7003,4.7075,4.7566,4.8147,4.8118,4.8001,4.75,4.719,4.7209,4.7383,4.7732,4.7983,4.8129,4.8238,4.8517,4.8622,5.0757,5.1116,5.0338,4.9643,4.9176,4.9722,5.0069,5.0267,5.0757,5.0936,5.0996,5.1128,5.1217,5.1288,5.1491,5.2332,5.3315,5.3997,5.4789,5.561,5.5934,5.6043,5.6162,5.6221,5.6254,5.6372,5.6496,5.6699,5.6805,5.6844,5.6844,5.6834,5.6632,5.668,5.6824,5.6844,5.72,5.7866,5.8115,5.8763,5.8977,5.8261,5.7705,5.7339,5.7089,5.6561,5.6764,5.7272,5.7253,5.7351,5.8557,5.8783,5.8501,5.7678,5.678,5.592,5.5258,5.4207,5.3367,5.2965,5.2897,5.2733,5.2776,5.3059,5.3162,5.3179,5.3272,5.3407,5.3382,5.3246,5.3228,5.3496,5.3534,5.3077,5.2706,5.2291,5.1842,5.1432,5.0971,5.0785,5.0709,5.1211,5.1793,5.2319,5.2809,5.254,5.1862,5.1197,5.0825,5.0382,4.9353,4.9186,4.9026,4.8919,4.8817,4.8502,4.8038,4.7663,4.7526,4.7306,4.7045,4.7459,4.7945,4.8126,4.805,4.771,4.7436,4.7145,4.7356,4.7931,4.832,4.8605,4.9123,4.9466,4.9459,5.017,5.0667,5.0357,5.0009,4.9853,5.0368,5.0667,5.0715,5.1068,5.1217,5.1217,5.1217,5.1217,5.1334,5.1526,5.1918,5.2929,5.3577,5.4359,5.505,5.5511,5.5635,5.5736,5.5804,5.5774,5.5884,5.6244,5.6408,5.6418,5.6418,5.6418,5.6388,5.631,5.6251,5.6359,5.6457,5.667,5.7143,5.7134,5.7603,5.8382,5.7774,5.715,5.695,5.643,5.59,5.5912,5.6461,5.6662,5.6911,5.7733,5.8379,5.799,5.7103,5.641,5.5803,5.5045,5.3997,5.3161,5.2782,5.2781,5.2762,5.2812,5.3306,5.334,5.3382,5.3382,5.3441,5.29,5.2731,5.2908,5.3113,5.2715,5.226,5.2297,5.2181,5.188,5.1562,5.1107,5.0789,5.1157,5.2172,5.277,5.3418,5.3704,5.3239,5.2655,5.2572,5.2248,5.1769,5.0796,5.0059,4.9939,4.9804,4.9739,4.9317,4.8746,4.8371,4.8037,4.7579,4.7329,4.7429,4.7655,4.8067,4.833,4.8282,4.796,4.7759,4.8009,4.8669,4.8977,4.9226,4.9767,5.0257,5.0232,4.9464,4.9938,5.0147,5.0207,5.0285,5.0907,5.1187,5.1187,5.1217,5.1217,5.1217,5.1217,5.1217,5.1463,5.1803,5.2101,5.2603,5.3445,5.4115,5.4665,5.5174,5.5379,5.545,5.545,5.5481,5.5582,5.5866,5.5976,5.5974,5.6016,5.5954,5.5884,5.5786,5.5625,5.5896,5.6046,5.6182,5.6398,5.6496,5.6564,5.6846,5.7105,5.6602,5.6178,5.5737,5.538,5.5137,5.5323,5.5731,5.6147,5.66,5.7136,5.7253,5.6457,5.6123,5.5534,5.4762,5.3966,5.3408,5.334,5.3382,5.3416,5.3501,5.3509,5.3509,5.3467,5.3467,5.3272,5.2765,5.263,5.2807,5.2799,5.2318,5.2032,5.221,5.2236,5.2006,5.1809,5.1416,5.1005,5.1718,5.2797,5.3406,5.407,5.4131,5.369,5.3563,5.3576,5.3365,5.2701,5.1931,5.1305,5.0967,5.083,5.0659,5.0066,4.9418,4.9198,4.8829,4.8126,4.7673,4.8061,4.8269,4.8347,4.8514,4.8669,4.8847,4.8758,4.9115,4.9435,4.9597,4.9853,5.0355,5.0794,5.0896,4.8547,4.8745,4.977,5.0207,5.0327,5.0948,5.1217,5.1217,5.1217,5.1217,5.1217,5.1217,5.1217,5.1217,5.1311,5.163,5.2284,5.3225,5.3911,5.4423,5.5071,5.5307,5.5399,5.5399,5.5399,5.547,5.5531,5.5521,5.5653,5.5602,5.5542,5.5542,5.5531,5.545,5.5481,5.5592,5.5663,5.5824,5.5844,5.5904,5.6077,5.6046,5.5497,5.5015,5.4515,5.3946,5.3779,5.4372,5.4703,5.5085,5.5596,5.6098,5.6055,5.5782,5.5374,5.4992,5.4219,5.3838,5.3509,5.3517,5.356,5.3332,5.3374,5.3509,5.3467,5.3416,5.3425,5.3501,5.3171,5.3171,5.3272,5.3272,5.2994,5.2994,5.3095,5.2724,5.2436,5.2259,5.1995,5.1789,5.1913,5.2576,5.3003,5.366,5.432,5.4031,5.408,5.4093,5.4254,5.3644,5.2903,5.2423,5.1845,5.1718,5.1471,5.071,5.0111,4.9947,4.9645,4.8954,4.8663,4.8913,4.9079,4.9103,4.9097,4.9246,4.9388,4.9793,4.9888,5.0149,5.0227,5.0477,5.0985,5.1248,5.134]},{"header":{"parameterUnit":"m.s-1","parameterCategory":1,"la1":31.0,"la2":29.5877,"lo1":-88.7671,"lo2":-86.6584,"dx":0.0162,"dy":0.0185,"nx":115,"ny":88,"refTime":"2023-01-19T18:00:00:Z","depth":0,"parameterNumber":3,"parameterNumberName":"V-component_of_WINDS"},"data":[0.0,0.0,0.0,0.0,0.0,0.0,0.0,0.0,0.0,0.0,0.0,0.0,0.0,0.0,0.0,0.0,0.0,0.0,0.0,0.0,0.0,0.0,0.0,0.0,0.0,0.0,0.0,0.0,0.0,0.0,0.0,0.0,0.0,0.0,0.0,0.0,0.0,0.0,0.0,0.0,0.0,0.0,0.0,0.0,0.0,0.0,0.0,0.0,0.0,0.0,0.0,0.0,0.0,0.0,0.0,0.0,0.0,0.0,0.0,0.0,0.0,0.0,0.0,0.0,0.0,0.0,0.0,0.0,0.0,0.0,0.0,0.0,0.0,0.0,0.0,0.0,0.0,0.0,0.0,0.0,0.0,0.0,0.0,0.0,0.0,0.0,0.0,0.0,0.0,0.0,0.0,0.0,0.0,0.0,0.0,0.0,0.0,0.0,0.0,0.0,0.0,0.0,0.0,0.0,0.0,0.0,0.0,0.0,0.0,0.0,0.0,0.0,0.0,0.0,0.0,0.0,0.0,0.0,0.0,0.0,0.0,0.0,0.0,0.0,0.0,0.0,0.0,0.0,0.0,0.0,0.0,0.0,0.0,0.0,0.0,0.0,0.0,0.0,0.0,0.0,0.0,0.0,0.0,0.0,0.0,0.0,0.0,0.0,0.0,0.0,0.0,0.0,0.0,0.0,0.0,0.0,0.0,0.0,0.0,0.0,0.0,0.0,0.0,0.0,0.0,0.0,0.0,0.0,0.0,0.0,0.0,0.0,0.0,0.0,0.0,0.0,0.0,0.0,0.0,0.0,0.0,0.0,0.0,0.0,0.0,0.0,0.0,0.0,0.0,0.0,0.0,0.0,0.0,0.0,0.0,0.0,0.0,0.0,0.0,0.0,0.0,0.0,0.0,0.0,0.0,0.0,0.0,0.0,0.0,0.0,0.0,0.0,0.0,0.0,0.0,0.0,0.0,0.0,0.0,0.0,0.0,0.0,0.0,0.0,0.0,0.0,0.0,0.0,0.0,0.0,0.0,0.0,0.0,0.0,0.0,0.0,0.0,0.0,0.0,0.0,0.0,0.0,0.0,0.0,0.0,0.0,0.0,0.0,0.0,0.0,0.0,0.0,0.0,0.0,0.0,0.0,0.0,0.0,0.0,0.0,0.0,0.0,0.0,0.0,0.0,0.0,0.0,0.0,0.0,0.0,0.0,0.0,0.0,0.0,0.0,0.0,0.0,0.0,0.0,0.0,0.0,0.0,0.0,0.0,0.0,0.0,0.0,0.0,0.0,0.0,0.0,0.0,0.0,0.0,0.0,0.0,0.0,0.0,0.0,0.0,0.0,0.0,0.0,0.0,0.0,0.0,0.0,0.0,0.0,0.0,0.0,0.0,0.0,0.0,0.0,0.0,0.0,0.0,0.0,0.0,0.0,0.0,0.0,0.0,0.0,0.0,0.0,0.0,0.0,0.0,0.0,0.0,0.0,0.0,0.0,0.0,0.0,0.0,0.0,0.0,0.0,0.0,0.0,0.0,0.0,0.0,0.0,0.0,0.0,0.0,0.0,0.0,0.0,0.0,0.0,0.0,0.0,0.0,0.0,0.0,0.0,0.0,0.0,0.0,0.0,0.0,0.0,0.0,0.0,0.0,0.0,0.0,0.0,0.0,0.0,0.0,0.0,0.0,0.0,0.0,0.0,0.0,0.0,0.0,0.0,0.0,0.0,0.0,0.0,0.0,0.0,0.0,0.0,0.0,0.0,0.0,0.0,0.0,0.0,0.0,0.0,0.0,0.0,0.0,0.0,0.0,0.0,0.0,0.0,0.0,0.0,0.0,0.0,0.0,0.0,0.0,0.0,0.0,0.0,0.0,0.0,0.0,0.0,0.0,0.0,0.0,0.0,0.0,0.0,0.0,0.0,0.0,0.0,0.0,0.0,0.0,0.0,0.0,0.0,0.0,0.0,0.0,0.0,0.0,0.0,0.0,0.0,0.0,0.0,0.0,0.0,0.0,0.0,0.0,0.0,0.0,0.0,0.0,0.0,0.0,0.0,0.0,0.0,0.0,0.0,0.0,0.0,0.0,0.0,0.0,0.0,0.0,0.0,0.0,0.0,0.0,0.0,0.0,0.0,0.0,0.0,0.0,0.0,0.0,0.0,0.0,0.0,0.0,0.0,0.0,0.0,0.0,0.0,0.0,0.0,0.0,0.0,0.0,0.0,0.0,0.0,0.0,0.0,0.0,0.0,0.0,0.0,0.0,0.0,0.0,0.0,0.0,0.0,0.0,0.0,0.0,0.0,0.0,0.0,0.0,0.0,0.0,0.0,0.0,0.0,0.0,0.0,0.0,0.0,0.0,0.0,0.0,0.0,0.0,0.0,0.0,0.0,0.0,0.0,0.0,0.0,0.0,0.0,0.0,0.0,0.0,0.0,0.0,0.0,0.0,0.0,0.0,0.0,0.0,0.0,0.0,0.0,0.0,0.0,0.0,0.0,0.0,0.0,0.0,0.0,0.0,0.0,0.0,0.0,0.0,0.0,0.0,0.0,0.0,0.0,0.0,0.0,0.0,0.0,0.0,0.0,0.0,0.0,0.0,0.0,0.0,0.0,0.0,0.0,0.0,0.0,0.0,0.0,0.0,0.0,0.0,0.0,0.0,0.0,0.0,0.0,0.0,0.0,0.0,0.0,0.0,0.0,0.0,0.0,0.0,0.0,0.0,0.0,0.0,0.0,0.0,0.0,0.0,0.0,0.0,0.0,0.0,0.0,0.0,0.0,0.0,0.0,0.0,0.0,0.0,0.0,0.0,0.0,0.0,0.0,0.0,0.0,0.0,0.0,0.0,0.0,0.0,0.0,0.0,0.0,0.0,0.0,0.0,0.0,0.0,0.0,0.0,0.0,0.0,0.0,0.0,0.0,0.0,0.0,0.0,0.0,0.0,0.0,0.0,0.0,0.0,0.0,0.0,0.0,0.0,0.0,0.0,0.0,0.0,0.0,0.0,0.0,0.0,0.0,0.0,0.0,0.0,0.0,0.0,0.0,0.0,0.0,0.0,0.0,0.0,0.0,0.0,0.0,0.0,0.0,0.0,0.0,0.0,0.0,0.0,0.0,0.0,0.0,0.0,0.0,0.0,0.0,0.0,0.0,0.0,0.0,0.0,0.0,0.0,0.0,0.0,0.0,0.0,0.0,0.0,0.0,0.0,0.0,0.0,0.0,0.0,0.0,0.0,0.0,0.0,0.0,0.0,0.0,0.0,0.0,0.0,0.0,0.0,0.0,0.0,0.0,0.0,0.0,0.0,0.0,0.0,0.0,0.0,0.0,0.0,0.0,0.0,0.0,0.0,0.0,0.0,0.0,0.0,0.0,0.0,0.0,0.0,0.0,0.0,0.0,0.0,0.0,0.0,0.0,0.0,0.0,0.0,0.0,0.0,0.0,0.0,0.0,0.0,0.0,0.0,0.0,0.0,0.0,0.0,0.0,0.0,0.0,0.0,0.0,0.0,0.0,0.0,0.0,0.0,0.0,0.0,0.0,0.0,0.0,0.0,0.0,0.0,0.0,0.0,0.0,0.0,0.0,0.0,0.0,0.0,0.0,0.0,0.0,0.0,0.0,0.0,0.0,0.0,0.0,0.0,0.0,0.0,0.0,0.0,0.0,0.0,0.0,0.0,0.0,0.0,0.0,0.0,0.0,0.0,0.0,0.0,0.0,0.0,0.0,0.0,0.0,0.0,0.0,0.0,0.0,0.0,0.0,0.0,0.0,0.0,0.0,0.0,0.0,0.0,0.0,0.0,0.0,0.0,0.0,0.0,0.0,0.0,0.0,0.0,0.0,0.0,0.0,0.0,0.0,0.0,0.0,0.0,0.0,0.0,0.0,0.0,0.0,0.0,0.0,0.0,0.0,0.0,0.0,0.0,0.0,0.0,0.0,0.0,0.0,0.0,0.0,0.0,0.0,0.0,0.0,0.0,0.0,0.0,0.0,0.0,0.0,0.0,0.0,0.0,0.0,0.0,0.0,0.0,0.0,0.0,0.0,0.0,0.0,0.0,0.0,0.0,0.0,0.0,0.0,0.0,0.0,0.0,0.0,0.0,0.0,0.0,0.0,0.0,0.0,0.0,0.0,0.0,0.0,0.0,0.0,0.0,0.0,0.0,0.0,0.0,0.0,0.0,0.0,0.0,0.0,0.0,0.0,0.0,0.0,0.0,0.0,0.0,0.0,0.0,0.0,0.0,0.0,0.0,0.0,0.0,0.0,0.0,0.0,0.0,0.0,0.0,0.2574,0.0,0.0,0.0,0.0,0.0,0.0,0.0,0.0,0.0,0.0,0.0,0.0,0.0,0.0,0.0,0.0,0.0,0.0,0.0,0.0,0.0,0.0,0.0,0.0,0.0,0.0,0.0,0.0,0.0,0.0,0.0,0.0,0.0,0.0,0.0,0.0,0.0,0.0,0.0,0.0,0.0,0.0,0.0,0.0,0.0,0.0,0.0,0.0,0.0,0.0,0.0,0.0,0.0,0.0,0.0,0.0,0.0,0.0,0.0,0.0,0.0,0.0,0.0,0.0,0.0,0.0,0.0,0.0,0.0,0.0,0.0,0.0,0.0,0.0,0.0,0.0,0.0,0.0,0.0,0.0,0.0,0.0,0.0,0.0,0.0,0.0,0.0,0.0,0.0,0.0,0.0,0.0,0.0,0.0,0.0,0.0,0.0,0.0,0.0,0.0,0.0,0.0,0.0,0.0,0.0,0.0,0.0,0.0,0.0,0.0,0.0799,0.2404,0.3779,0.417,0.3515,0.0,0.0,0.0,0.0,0.0,0.0,0.0,0.0,0.0,0.0,0.0,0.0,0.0,0.0,0.0,0.0,0.0,0.0,0.0,0.0,0.0,0.0,0.0,0.0,0.0,0.0,0.0,0.0,0.0,0.0,0.0,0.0,0.0,0.0,0.0,0.0,0.0,0.0,0.0,0.0,0.0,0.0,0.0,0.0,0.0,0.0,0.0,0.0,0.0,0.0,0.0,0.0,0.0,0.0,0.0,0.0,0.0,0.0,0.0,0.0,0.0,0.0,0.0,0.0,0.0,0.0,0.0,0.0,0.0,0.0,0.0,0.0,0.0,0.0,0.0,0.0,0.0,0.0,0.0,0.0,0.0,0.0,0.0,0.0,0.0,0.0,0.0,0.0,0.0,0.0,0.0,0.0,0.0,0.0,0.0,0.0,0.0,0.0,0.0,0.0,0.0,0.0,0.0,0.0,0.0,0.0,0.0,0.0,0.0,0.0,0.0,0.0,0.4782,0.474,0.4633,0.0,0.0,0.0,0.0,0.0,0.0,0.0,0.0,0.0,0.0,0.0,0.0,0.0,0.0,0.0,0.0,0.0,0.0,0.0,0.0,0.0,0.0,0.0,0.0,0.0,0.0,0.0,0.0,0.0,0.0,0.0,0.0,0.0,0.0,0.0,0.0,0.0,0.0,0.0,0.0,0.0,0.0,0.0,0.0,0.0,0.0,0.0,0.0,0.0,0.0,0.0,0.0,0.0,0.0,0.0,0.0,0.0,0.0,0.0,0.0,0.0,0.0,0.0,0.0,0.0,0.0,0.0,0.0,0.0,0.0,0.0,0.0,0.0,0.0,0.0,0.0,0.0,0.0,0.0,0.0,0.0,0.0,0.0,0.0,0.0,0.0,0.0,0.0,0.0,0.0,0.0,0.0,0.0,0.0,0.0,0.0,0.0,0.0,0.0,0.0,0.0,0.0,0.0,0.0,0.0,0.0,0.0,0.0,0.0,0.0,0.1809,0.553,0.5658,0.0,0.5061,0.0,0.0,0.0,0.0,0.0,0.0,0.0,0.0,0.0,0.0,0.0,0.0,0.0,0.0,0.0,0.0,0.0,0.0,0.0,0.0,0.0,0.0,0.0,0.0,0.0,0.0,0.0,0.0,0.0,0.0,0.0,0.0,0.0,0.0,0.0,0.0,0.0,0.0,0.0,0.0,0.0,0.0,0.0,0.0,0.0,0.0,0.0,0.0,0.0,0.0,0.0,0.0,0.0,0.0,0.0,0.0,0.0,0.0,0.0,0.0,0.0,0.0,0.0,0.0,0.0,0.0,0.0,0.0,0.0,0.0,0.0,0.0,0.0,0.0,0.0,0.0,0.0,0.0,0.0,0.0,0.0,0.0,0.0,0.0,0.0,0.0,0.0,0.0,0.0,0.0,0.0,0.0,0.0,0.0,0.0,0.0,0.0,0.0,0.0,0.0,0.0,0.0,0.0,0.0,0.0,0.0,0.0,0.0,0.0,0.0,0.259,0.4159,0.4893,0.5114,0.0,0.0,0.0,0.0,0.0,0.0,0.0,0.0,0.0,0.0,0.0,0.0,0.0,0.0,0.0,0.0,0.0,0.0,0.0,0.0,0.0,0.0,0.0,0.0,0.0,0.0,0.0,0.0,0.0,0.0,0.0,0.0,0.0,0.0,0.0,0.0,0.0,0.0,0.0,0.0,0.0,0.0,0.0,0.0,0.0,0.0,0.0,0.0,0.0,0.0,0.0,0.0,0.0,0.0,0.0,0.0,0.0,0.0,0.0,0.0,0.0,0.0,0.0,0.0,0.0,0.0,0.0,0.0,0.0,0.0,0.0,0.0,0.0,0.0,0.0,0.0,0.0,0.0,0.0,0.0,0.0,0.0,0.0,0.0,0.0,0.0,0.0,0.0,0.0,0.0,0.0,0.0,0.0,0.0,0.0,0.0,0.0,0.0,0.0,0.0,0.0,0.0,0.0,0.0,0.0,0.0,0.0,0.0,0.0,0.0,0.2277,0.356,0.3758,0.441,0.4748,0.4675,0.0,0.0,0.0,0.0,0.0,0.0,0.0,0.0,0.0,0.0,0.0,0.0,0.0,0.0,0.0,0.0,0.0,0.0,0.0,0.0,0.0,0.0,0.0,0.0,0.0,0.0,0.0,0.0,0.0,0.0,0.0,0.0,0.0,0.0,0.0,0.0,0.0,0.0,0.0,0.0,0.0,0.0,0.0,0.0,0.0,0.0,0.0,0.0,0.0,0.0,0.0,0.0,0.0,0.0,0.0,0.0,0.0,0.0,0.0,0.0,0.0,0.0,0.0,0.0,0.0,0.0,0.0,0.0,0.0,0.0,0.0,0.0,0.0,0.0,0.0,0.0,0.0,0.0,0.0,0.0,0.0,0.0,0.0,0.0,0.0,0.0,0.0,0.0,0.0,0.0,0.0,0.0,0.0,0.0,0.0,0.0,0.0,0.0,0.0,0.0,0.0,0.0,0.0,0.0,0.0,0.0,0.0,0.0,0.0,0.2871,0.47,0.5227,0.4802,0.4702,0.0,0.0,0.0,0.0,0.0,0.0,0.0,0.0,0.0,0.0,0.0,0.0,0.0,0.0,0.0,0.0,0.0,0.0,0.0,0.0,0.0,0.0,0.0,0.0,0.0,0.0,0.0,0.0,0.0,0.0,0.0,0.0,0.0,0.0,0.0,0.0,0.0,0.0,0.0,0.0,0.0,0.0,0.0,0.0,0.0,0.0,0.0,0.0,0.0,0.0,0.0,0.0,0.0,0.0,0.0,0.0,0.0,0.0,0.0,0.0,0.0,0.0,0.0,0.0,0.0,0.0,0.0,0.0,0.0,0.0,0.0,0.0,0.0,0.0,0.0,0.0,0.0,0.0,0.0,0.0,0.0,0.0,0.0,0.0,0.0,0.0,0.0,0.0,0.0,0.0,0.0,0.0,0.0,0.0,0.0,0.0,0.0,0.0,0.0,0.0,0.0,0.0,0.0,0.0,0.0,0.0,0.0,0.0,0.0,0.0,0.199,0.3786,0.5286,0.4972,0.4821,0.0,0.0,0.0,0.0,0.0,0.0,0.0,0.0,0.0,0.0,0.0,0.0,0.0,0.0,0.0,0.0,0.0,0.0,0.0,0.0,0.0,0.0,0.0,0.0,0.0,0.0,0.0,0.0,0.0,0.0,0.0,0.0,0.0,0.0,0.0,0.0,0.0,0.0,0.0,0.0,0.0,0.0,0.0,0.0,0.0,0.0,0.0,0.0,0.0,0.0,0.0,0.0,0.0,0.0,0.0,0.0,0.0,0.0,0.0,0.0,0.0,0.0,0.0,0.0,0.0,0.0,0.0,0.0,0.0,0.0,0.0,0.0,0.0,0.0,0.0,0.0,0.0,0.0,0.0,0.0,0.0,0.0,0.0,0.0,0.0,0.0,0.0,0.0,0.0,0.0,0.0,0.0,0.0,0.0,0.0,0.0,0.0,0.0,0.0,0.0,0.0,0.0,0.0,0.0,0.0,0.0,0.0,0.0,0.0,0.1699,0.0,0.328,0.5081,0.4965,0.4823,0.0,0.0,0.0,0.0,0.0,0.0,0.0,0.0,0.0,0.0,0.0,0.0,0.0,0.0,0.0,0.0,0.0,0.0,0.0,0.0,0.0,0.0,0.0,0.0,0.0,0.0,0.0,0.0,0.0,0.0,0.0,0.0,0.0,0.0,0.0,0.0,0.0,0.0,0.0,0.0,0.0,0.0,0.0,0.0,0.0,0.0,0.0,0.0,0.0,0.0,0.0,0.0,0.0,0.0,0.0,0.0,0.0,0.0,0.0,0.0,0.0,0.0,0.0,0.0,0.0,0.0,0.0,0.0,0.0,0.0,0.0,0.0,0.0,0.0,0.0,0.0,0.0,0.0,0.0,0.0,0.0,0.0,0.0,0.0,0.0,0.0,0.0,0.0,0.0,0.0,0.0,0.0,0.0,0.0,0.0,0.0,0.0,0.0,0.0,0.0,0.0,0.0,0.0,0.0,0.0,0.0,0.0,0.0,0.1763,0.5074,0.3629,0.3465,0.4754,0.4759,0.4633,0.0,0.0,0.0,0.0,0.0,0.0,0.0,0.0,0.0,0.0,0.0,0.0,0.0,0.0,0.0,0.0,0.0,0.0,0.0,0.0,0.0,0.0,0.0,0.0,0.0,0.0,0.0,0.0,0.0,0.0,0.0,0.0,0.0,0.0,0.0,0.0,0.0,0.0,0.0,0.0,0.0,0.0,0.0,0.0,0.0,0.0,0.0,0.0,0.0,0.0,0.0,0.0,0.0,0.0,0.0,0.0,0.0,0.0,0.0,0.0,0.0,0.0,0.0,0.0,0.0,0.0,0.0,0.0,0.0,0.0,0.0,0.0,0.0,0.0,0.0,0.0,0.0,0.0,0.0,0.0,0.0,0.0,0.0,0.0,0.0,0.0,0.0,0.0,0.0,0.0,0.0,0.0,0.0,0.0,0.0,0.0,0.0,0.0,0.0,0.0,0.0,0.0,0.0,0.0,0.0,0.0,0.0,0.0,0.0,0.4697,0.4497,0.475,0.5549,0.4931,0.4792,0.0,0.0,0.0,0.0,0.0,0.0,0.0,0.0,0.0,0.0,0.0,0.0,0.0,0.0,0.0,0.0,0.0,0.0,0.0,0.0,0.0,0.0,0.0,0.0,0.0,0.0,0.0,0.0,0.0,0.0,0.0,0.0,0.0,0.0,0.0,0.0,0.0,0.0,0.0,0.0,0.0,0.0,0.0,0.0,0.0,0.0,0.0,0.0,0.0,0.0,0.0,0.0,0.0,0.0,0.0,0.0,0.0,0.0,0.0,0.0,0.0,0.0,0.0,0.0,0.0,0.0,0.0,0.0,0.0,0.0,0.0,0.0,0.0,0.0,0.0,0.0,0.0,0.0,0.0,0.0,0.0,0.0,0.0,0.0,0.0,0.0,0.0,0.0,0.0,0.0,0.0,0.0,0.0,0.0,0.0,0.0,0.0,0.0,0.0,0.0,0.0,0.0,0.0,0.0,0.0,0.0,0.0,0.0,0.0,0.4497,0.5184,0.5632,0.5861,0.5183,0.4949,0.5164,0.0,0.0,0.0,0.0,0.0,0.0,0.0,0.0,0.0,0.0,0.0,0.0,0.0,0.0,0.0,0.0,0.0,0.0,0.0,0.0,0.0,0.0,0.0,0.0,0.0,0.0,0.0,0.0,0.0,0.0,0.0,0.0,0.0,0.0,0.0,0.0,0.0,0.0,0.0,0.0,0.0,0.0,0.0,0.0,0.0,0.0,0.0,0.0,0.0,0.0,0.0,0.0,0.0,0.0,0.0,0.0,0.0,0.0,0.0,0.0,0.0,0.0,0.0,0.0,0.0,0.0,0.0,0.0,0.0,0.0,0.0,0.0,0.0,0.0,0.0,0.0,0.0,0.0,0.0,0.0,0.0,0.0,0.0,0.0,0.0,0.0,0.0,0.0,0.0,0.0,0.0,0.0,0.0,0.0,0.0,0.0,0.0,0.0,0.0,0.0,0.0,0.0,0.0,0.0,0.0,0.0,0.0,0.0,0.4556,0.5714,0.6082,0.5607,0.5452,0.5134,0.0,0.0,0.0,0.0,0.0,0.0,0.0,0.0,0.0,0.0,0.0,0.0,0.0,0.0,0.0,0.0,0.0,0.0,0.0,0.0,0.0,0.0,0.0,0.0,0.0,0.0,0.0,0.0,0.0,0.0,0.0,0.0,0.0,0.0,0.0,0.0,0.0,0.0,0.0,0.0,0.0,0.0,0.0,0.0,0.0,0.0,0.0,0.0,0.0,0.0,0.0,0.0,0.0,0.0,0.0,0.0,0.0,0.0,0.0,0.0,0.0,0.0,0.0,0.0,0.0,0.0,0.0,0.0,0.0,0.0,0.0,0.0,0.0,0.0,0.0,0.0,0.0,0.0,0.0,0.0,0.0,0.0,0.0,0.0,0.0,0.0,0.0,0.0,0.0,0.0,0.0,0.0,0.0,0.0,0.0,0.0,0.0,0.0,0.0,0.0,0.0,0.0,0.0,0.0,0.0,0.0,0.0,0.0,0.0,0.541,0.6078,0.6133,0.5478,0.5406,0.5378,0.0,0.0,0.0,0.0,0.0,0.0,0.0,0.0,0.0,0.0,0.0,0.0,0.0,0.0,0.0,0.0,0.0,0.0,0.0,0.0,0.0,0.0,0.0,0.0,0.0,0.0,0.0,0.0,0.0,0.0,0.0,0.0,0.0,0.0,0.0,0.0,0.0,0.0,0.0,0.0,0.0,0.0,0.0,0.0,0.0,0.0,0.0,0.0,0.0,0.0,0.0,0.0,0.0,0.0,0.0,0.0,0.0,0.0,0.0,0.0,0.0,0.0,0.0,0.0,0.0,0.0,0.0,0.0,0.0,0.0,0.0,0.0,0.0,0.0,0.0,0.0,0.0,0.0,0.0,0.0,0.0,0.0,0.0,0.0,0.0,0.0,0.0,0.0,0.0,0.0,0.0,0.0,0.0,0.0,0.0,0.0,0.0,0.0,0.0,0.0,0.0,0.0,0.0,0.0,0.0,0.0,0.0,0.0,0.4606,0.5062,0.5384,0.5416,0.5189,0.5741,0.5919,0.0,0.0,0.0,0.0,0.0,0.0,0.0,0.0,0.0,0.0,0.0,0.0,0.0,0.0,0.0,0.0,0.0,0.0,0.0,0.0,0.0,0.0,0.0,0.0,0.0,0.0,0.0,0.0,0.0,0.0,0.0,0.0,0.0,0.0,0.0,0.0,0.0,0.0,0.0,0.0,0.0,0.0,0.0,0.0,0.0,0.0,0.0,0.0,0.0,0.0,0.0,0.0,0.0,0.0,0.0,0.0,0.0,0.0,0.0,0.0,0.0,0.0,0.0,0.0,0.0,0.0,0.0,0.0,0.0,0.0,0.0,0.0,0.0,0.0,0.0,0.0,0.0,0.0,0.0,0.0,0.0,0.0,0.0,0.0,0.0,0.0,0.0,0.0,0.0,0.0,0.0,0.0,0.0,0.0,0.0,0.0,0.0,0.0,0.0,0.0,0.0,0.0,0.0,0.0,0.0,0.0,0.0,0.0,0.3866,0.4116,0.4286,0.4577,0.4997,0.6111,0.6425,0.0,0.0,0.0,0.0,0.0,0.0,0.0,0.0,0.0,0.0,0.0,0.0,0.0,0.0,0.0,0.0,0.0,0.0,0.0,0.0,0.0,0.0,0.0,0.0,0.0,0.0,0.0,0.0,0.0,0.0,0.0,0.0,0.0,0.0,0.0,0.0,0.0,0.0,0.0,0.0,0.0,0.0,0.0,0.0,0.0,0.0,0.0,0.0,0.0,0.0,0.0,0.0,0.0,0.0,0.0,0.0,0.0,0.0,0.0,0.0,0.0,0.0,0.0,0.0,0.0,0.0,0.0,0.0,0.0,0.0,0.0,0.0,0.0,0.0,0.0,0.0,0.0,0.0,0.0,0.0,0.0,0.0,0.0,0.0,0.0,0.0,0.0,0.0,0.0,0.0,0.0,0.0,0.0,0.0,0.0,0.0,0.0,0.0,0.0,0.0,0.0,0.0,0.0,0.0,0.0,0.0,0.0,0.0,0.3847,0.3675,0.4838,0.5499,0.5615,0.5519,0.5581,0.0,0.0,0.0,0.0,0.0,0.0,0.0,0.0,0.0,0.0,0.0,0.0,0.0,0.0,0.0,0.0,0.0,0.0,0.0,0.0,0.0,0.0,0.0,0.0,0.0,0.0,0.0,0.0,0.0,0.0,0.0,0.0,0.0,0.0,0.0,0.0,0.0,0.0,0.0,0.0,0.0,0.0,0.0,0.0,0.0,0.0,0.0,0.0,0.0,0.0,0.0,0.0,0.0,0.0,0.0,0.0,0.0,0.0,0.0,0.0,0.0,0.0,0.0,0.0,0.0,0.0,0.0,0.0,0.0,0.0,0.0,0.0,0.0,0.0,0.0,0.0,0.0,0.0,0.0,0.0,0.0,0.0,0.0,0.0,0.0,0.0,0.0,0.0,0.0,0.0,0.0,0.0,0.0,0.0,0.0,0.0,0.0,0.0,0.0,0.0,0.0,0.0,0.0,0.0,0.0,0.0,0.0,0.0,0.3747,0.3482,0.4425,0.5058,0.5261,0.5465,0.5769,0.0,0.0,0.0,0.0,0.0,0.0,0.0,0.0,0.0,0.0,0.0,0.0,0.0,0.0,0.0,0.0,0.0,0.0,0.0,0.0,0.0,0.0,0.0,0.0,0.0,0.0,0.0,0.0,0.0,0.0,0.0,0.0,0.0,0.0,0.0,0.0,0.0,0.0,0.0,0.0,0.0,0.0,0.0,0.0,0.0,0.0,0.0,0.0,0.0,0.0,0.0,0.0,0.0,0.0,0.0,0.0,0.0,0.0,0.0,0.0,0.0,0.0,0.0,0.0,0.0,0.0,0.0,0.0,0.0,0.0,0.0,0.0,0.0,0.0,0.0,0.0,0.0,0.0,0.0,0.0,0.0,0.0,0.0,0.0,0.0,0.0,0.0,0.0,0.0,0.0,0.0,0.0,0.0,0.0,0.0,0.0,0.0,0.0,0.0,0.0,0.0,0.0,0.0,0.0,0.0,0.0,0.0,0.4137,0.3637,0.3387,0.3899,0.4382,0.4819,0.5755,0.6374,0.663,0.0,0.0,0.0,0.0,0.0,0.0,0.0,0.0,0.0,0.0,0.0,0.0,0.0,0.0,0.0,0.0,0.0,0.0,0.0,0.0,0.0,0.0,0.0,0.0,0.0,0.0,0.0,0.0,0.0,0.0,0.0,0.0,0.0,0.0,0.0,0.0,0.0,0.0,0.0663,0.2929,0.0,0.0,0.0,0.0,0.0,0.0,0.0,0.0,0.0246,0.0,0.0,0.0,0.0,0.0,0.0,0.0,0.0,0.0,0.0,0.0,0.0,0.0,0.0,0.0,0.0,0.0,0.0,0.0,0.0,0.0,0.0,0.0,0.0,0.0,0.0,0.0,0.0,0.0,0.0,0.0,0.0,0.0,0.0,0.0,0.0,0.0,0.0,0.0,0.0,0.0,0.0,0.0,0.0,0.0,0.0,0.0,0.0,0.0,0.0,0.0,0.0,0.0,0.0,0.0,0.0,0.4639,0.3979,0.3478,0.3188,0.431,0.5054,0.5381,0.638,0.679,0.6443,0.0,0.0,0.0,0.0,0.0,0.0,0.0,0.0,0.0,0.0,0.0,0.0,0.0,0.0,0.0,0.0,0.0,0.0,0.0,0.0,0.0,0.0,0.0,0.0,0.0,0.0,0.0,0.0,0.0,0.0,0.0,0.0,0.0,0.0,0.0,0.0,0.0,0.0,0.0,0.4333,0.4694,0.0,0.0,0.0,0.0,0.0,0.0,0.0,0.0,0.2212,0.0,0.0,0.0,0.0,0.0,0.0,0.0,0.0,0.0,0.0,0.0,0.0,0.0,0.0,0.0,0.0,0.0,0.0,0.0,0.0,0.0,0.0,0.0,0.0,0.0,0.0,0.0,0.0,0.0,0.0,0.0,0.0,0.0,0.0,0.0,0.0,0.0,0.0,0.0,0.0,0.0,0.0,0.0,0.0,0.0,0.0,0.0,0.0,0.0,0.0,0.0,0.0,0.0,0.0,0.0,0.4532,0.3774,0.323,0.2925,0.3783,0.4495,0.498,0.5844,0.6234,0.0,0.0,0.0,0.0,0.0,0.0,0.0,0.0,0.0,0.0,0.0,0.0,0.0,0.0,0.0,0.0,0.0,0.0,0.0,0.0,0.0,0.0,0.0,0.0,0.0,0.0,0.0,0.0,0.0,0.0,0.0,0.0,0.0,0.0,0.0,0.0,0.0,0.0,0.0,0.0,0.4583,0.4525,0.4636,0.0,0.0,0.0,0.0,0.0,0.0,0.2669,0.2838,0.0,0.0,0.0,0.0,0.0,0.0,0.0,0.0,0.0,0.0,0.0,0.0,0.0,0.0,0.0,0.0,0.0,0.0,0.0,0.0,0.0,0.0,0.0,0.0,0.0,0.0,0.0,0.0,0.0,0.0,0.0,0.0,0.0,0.0,0.0,0.0,0.0,0.0,0.0,0.0,0.0,0.0,0.0,0.0,0.0,0.0,0.0,0.0,0.0,0.0,0.0,0.0,0.0,0.0,0.0,0.4705,0.3826,0.3244,0.3024,0.3308,0.377,0.4432,0.5104,0.5511,0.0,0.0,0.0,0.0,0.0,0.0,0.0,0.0,0.0,0.0,0.0,0.0,0.0,0.0,0.0,0.0,0.0,0.0,0.0,0.0,0.0,0.0,0.0,0.0,0.0,0.0,0.0,0.0,0.0,0.0,0.0,0.0,0.0,0.0,0.0,0.0,0.0,0.0,0.0,0.0,0.0,0.4467,0.4804,0.473,0.0,0.0,0.0,0.0,0.3998,0.3704,0.0,0.0,0.0,0.0,0.0,0.0,0.0,0.0,0.0,0.0,0.0,0.0,0.0,0.0,0.0,0.0,0.0,0.0,0.0,0.0,0.0,0.0,0.0,0.0,0.0,0.0,0.0,0.0,0.0,0.0,0.0,0.0,0.0,0.0,0.0,0.0,0.0,0.0,0.0,0.0,0.0,0.0,0.0,0.0,0.0,0.0,0.0,0.0,0.0,0.0,0.0,0.0,0.0,0.0,0.0,0.0,0.5438,0.4446,0.3942,0.4007,0.3566,0.3612,0.421,0.4731,0.503,0.0,0.0,0.0,0.0,0.0,0.0,0.0,0.0,0.0,0.0,0.0,0.0,0.0,0.0,0.0,0.0,0.0,0.0,0.0,0.0,0.0,0.0,0.0,0.0,0.0,0.0,0.0,0.0,0.0,0.0,0.0,0.0,0.0,0.0,0.0,0.0,0.0,0.0,0.0,0.0,0.0,0.4884,0.5032,0.5053,0.4914,0.0,0.0,0.3933,0.3758,0.4292,0.0,0.0,0.0,0.0,0.0,0.0,0.0,0.0,0.0,0.0,0.0,0.0,0.0,0.0,0.0,0.0,0.0,0.0,0.0,0.0,0.0,0.0,0.0,0.0,0.0,0.0,0.0,0.0,0.0,0.0,0.0,0.0,0.0,0.0,0.0,0.0,0.0,0.0,0.0,0.0,0.0,0.0,0.0,0.0,0.0,0.0,0.0,0.0,0.0,0.0,0.0,0.0,0.0,0.0,0.0,0.5206,0.4695,0.4007,0.3467,0.3064,0.2623,0.2874,0.383,0.4257,0.4632,0.0,0.0,0.0,0.0,0.0,0.0,0.0,0.0,0.0,0.0,0.0,0.0,0.0,0.0,0.0,0.0,0.0,0.0,0.0,0.0,0.0,0.0,0.0,0.0,0.0,0.0,0.0,0.0,0.0,0.0,0.0,0.0,0.0,0.0,0.0,0.0,0.0,0.0,0.0,0.0,0.0,0.0,0.5265,0.5376,0.0,0.0,0.0,0.4515,0.4609,0.0,0.0,0.0,0.0,0.0,0.0,0.0,0.0,0.0,0.0,0.0,0.0,0.0,0.0,0.0,0.0,0.0,0.0,0.0,0.0,0.0,0.0,0.0,0.0,0.0,0.0,0.0,0.0,0.0,0.0,0.0,0.0,0.0,0.0,0.0,0.0,0.0,0.0,0.0,0.0,0.0,0.0,0.0,0.0,0.0,0.0,0.0,0.0,0.0,0.0,0.0,0.0,0.0,0.0,0.0,0.0,0.0,0.4722,0.403,0.3412,0.2857,0.2225,0.2373,0.332,0.3872,0.0,0.0,0.0,0.0,0.0,0.0,0.0,0.0,0.0,0.0,0.0,0.0,0.0,0.0,0.0,0.0,0.0,0.0,0.0,0.0,0.0,0.0,0.0,0.0,0.0,0.0,0.0,0.4537,0.0,0.0,0.0,0.0,0.0,0.0,0.0,0.0,0.0,0.0,0.0,0.0,0.0,0.0,0.5432,0.5491,0.5636,0.5669,0.0,0.0,0.4988,0.5346,0.519,0.4969,0.0,0.0,0.0,0.0,0.0,0.0,0.0,0.0,0.0,0.0,0.0,0.0,0.0,0.0,0.0,0.0,0.0,0.0,0.0,0.0,0.0,0.0,0.0,0.0,0.0,0.0,0.0,0.0,0.0,0.0,0.0,0.0,0.0,0.0,0.0,0.0,0.0,0.0,0.0,0.0,0.0,0.0,0.0,0.0,0.0,0.0,0.0,0.0,0.0,0.0,0.0,0.0,0.0,0.0,0.6358,0.6643,0.5194,0.4475,0.457,0.32,0.2519,0.2671,0.3724,0.4663,0.0,0.0,0.0,0.0,0.0,0.0,0.0,0.0,0.0,0.0,0.0,0.0,0.0,0.0,0.0,0.0,0.0,0.0,0.0,0.0,0.0,0.0,0.0,0.0,0.0,0.0,0.0,0.0,0.0,0.0,0.0,0.0,0.0,0.0,0.0,0.0,0.0,0.0,0.0,0.0,0.0,0.55,0.5739,0.5788,0.579,0.0,0.5847,0.5784,0.5463,0.5933,0.6049,0.5065,0.0,0.0,0.0,0.0,0.0,0.0,0.0,0.0,0.0,0.0,0.0,0.0,0.0,0.0,0.0,0.0,0.0,0.0,0.0,0.0,0.0,0.0,0.0,0.0,0.0,0.0,0.0,0.0,0.0,0.0,0.0,0.0,0.0,0.0,0.0,0.0,0.0,0.0,0.0,0.0,0.0,0.0,0.0,0.0,0.0,0.0,0.0,0.0,0.0,0.0,0.0,0.0,0.0,0.6251,0.5905,0.4934,0.4398,0.4271,0.3079,0.2899,0.3881,0.4731,0.5434,0.0,0.0,0.0,0.0,0.0,0.0,0.0,0.0,0.0,0.0,0.0,0.0,0.0,0.0,0.0,0.0,0.0,0.0,0.0,0.0,0.0,0.0,0.0,0.0,0.0,0.0,0.0,0.0,0.4407,0.3643,0.2521,0.0,0.0,0.0,0.0,0.0,0.0,0.0,0.0,0.0,0.0,0.5612,0.6149,0.6305,0.0,0.0,0.6139,0.6069,0.5693,0.5958,0.5969,0.5322,0.5257,0.0,0.0,0.0,0.0,0.0,0.0,0.0,0.0,0.0,0.0,0.0,0.0,0.0,0.0,0.0,0.0,0.0,0.0,0.0,0.0,0.0,0.0,0.0,0.0,0.0,0.0,0.0,0.0,0.0,0.0,0.0,0.0,0.0,0.0,0.0,0.0,0.0,0.0,0.0,0.0,0.0,0.0,0.0,0.0,0.0,0.0,0.0,0.0,0.0,0.0,0.0,0.0,0.6321,0.5928,0.4939,0.4384,0.4324,0.3261,0.3179,0.4177,0.5209,0.5952,0.0,0.0,0.0,0.0,0.0,0.0,0.0,0.0,0.0,0.0,0.0,0.0,0.0,0.0,0.0,0.0,0.0,0.0,0.0,0.0,0.0,0.0,0.0,0.0,0.0,0.0,0.0,0.0,0.5062,0.4748,0.3953,0.0,0.0,0.0,0.0,0.0,0.0,0.0,0.0,0.0,0.0,0.5826,0.6286,0.6546,0.6599,0.6339,0.6224,0.6072,0.5833,0.5852,0.5741,0.5367,0.0,0.0,0.0,0.0,0.0,0.0,0.0,0.0,0.0,0.0,0.0,0.0,0.0,0.0,0.0,0.0,0.0,0.0,0.0,0.0,0.0,0.0,0.0,0.0,0.0,0.0,0.0,1.06,0.0,0.0,1.0615,0.0,0.0,0.0,0.0,0.0,0.0,0.0,0.0,0.0,0.0,0.0,0.0,0.0,0.0,0.0,0.0,0.0,0.0,0.0,0.0,0.0,0.0,0.678,0.7296,0.5501,0.4721,0.5055,0.3973,0.333,0.3177,0.4901,0.5963,0.6111,0.0,0.0,0.0,0.0,0.0,0.0,0.0,0.0,0.0,0.0,0.0,0.0,0.0,0.0,0.0,0.0,0.0,0.0,0.0,0.0,0.0,0.0,0.0,0.0,0.0,0.0,0.5175,0.5269,0.5364,0.0,0.0,0.0,0.0,0.0,0.0,0.0,0.0,0.0,0.0,0.5912,0.6218,0.6054,0.6395,0.6566,0.6349,0.6028,0.5804,0.58,0.5682,0.5486,0.0,0.0,0.0,0.0,0.0,0.0,0.0,0.0,0.0,0.0,0.0,0.0,0.0,0.0,0.0,0.0,0.0,0.0,0.0,0.0,0.0,0.0,0.0,0.0,0.0,0.0,0.0,1.1266,1.1435,0.0,0.0,0.0,0.0,0.0,0.0,0.0,0.0,0.0,0.0,0.0,1.1596,1.1609,0.0,0.0,0.0,0.0,0.0,0.0,0.0,0.0,0.0,0.0,0.0,0.0,0.6973,0.7339,0.6711,0.6325,0.6221,0.5474,0.5017,0.4946,0.5645,0.6099,0.6234,0.0,0.0,0.0,0.0,0.0,0.0,0.0,0.0,0.0,0.0,0.0,0.0,0.0,0.0,0.0,0.0,0.0,0.0,0.0,0.0,0.0,0.0,0.0,0.0,0.0,0.5612,0.0,0.0,0.0,0.0,0.0,0.0,0.0,0.0,0.0,0.0,0.0,0.56,0.5946,0.5988,0.6158,0.6674,0.6199,0.5992,0.0,0.0,0.0,0.0,0.0,0.0,0.0,0.0,0.0,0.0,0.0,0.0,0.0,0.0,0.5589,0.5165,0.4986,0.4763,0.4342,0.0,0.0,0.0,0.0,0.0,0.0,0.0,0.0,0.0,0.0,0.0,0.0,0.0,0.0,1.1625,1.1795,1.1512,0.0,0.0,0.0,0.0,0.0,0.0,0.0,0.0,1.152,1.1837,1.2217,1.223,1.2217,1.2221,1.2399,1.2176,0.0,0.0,0.0,0.0,0.0,0.0,0.0,0.0,0.7091,0.7443,0.7279,0.7003,0.6579,0.6076,0.5709,0.5541,0.5919,0.6248,0.6464,0.6531,0.684,0.0,0.0,0.0,0.0,0.0,0.0,0.0,0.0,0.0,0.0,0.0,0.0,0.0,0.0,0.0,0.0,0.0,0.0,0.0,0.0,0.0,0.0,0.0,0.5545,0.0,0.0,0.0,0.0,0.0,0.0,0.0,0.0,0.0,0.5583,0.5566,0.5661,0.5946,0.5878,0.5968,0.6437,0.0,0.0,0.0,0.0,0.0,0.0,0.0,0.5644,0.5629,0.5647,0.5693,0.5792,0.5962,0.61,0.6103,0.0,0.0,0.5302,0.5297,0.5266,0.4878,0.4698,0.4589,0.4375,0.4299,0.4262,0.0,0.0,0.0,0.0,1.2467,0.0,0.0,0.0,1.225,1.1875,0.0,1.1663,0.0,0.0,0.0,0.0,1.1044,1.1312,0.0,0.0,1.2575,1.2843,1.286,1.2874,1.287,1.2857,1.2851,1.286,1.2811,1.2524,0.0,0.0,0.0,0.0,0.0,0.0,0.7218,0.7665,0.7382,0.6909,0.6355,0.5985,0.5536,0.5006,0.5775,0.6412,0.6754,0.6482,0.6661,0.736,0.7113,0.0,0.0,0.0,0.0,0.0,0.0,0.0,0.0,0.0,0.0,0.0,0.0,0.0,0.0,0.0,0.0,0.0,0.0,0.0,0.0,0.6907,0.0,0.0,0.0,0.0,0.0,0.0,0.0,0.0,0.0,0.0,0.5613,0.5722,0.5693,0.5455,0.0,0.0,0.0,0.0,0.5499,0.5697,0.5777,0.5856,0.6005,0.5906,0.5858,0.5982,0.0,0.0,0.6,0.6186,0.6317,0.6312,0.6324,0.6129,0.5557,0.5888,0.6239,0.6282,0.6098,0.5398,0.3928,0.4534,0.5019,1.2896,0.0,0.0,0.0,0.0,1.3256,1.3496,1.3988,1.4144,1.405,1.382,1.3614,0.0,0.0,0.0,0.0,0.0,0.0,1.2331,1.2852,1.3447,1.3835,1.4036,1.4261,1.4236,1.4015,1.4025,1.3918,1.3728,1.3624,1.3094,1.2158,0.0,0.0,0.0,0.0,0.9009,0.9134,0.9742,0.9476,0.8285,0.8817,0.8431,0.7052,0.6861,0.6714,0.6599,0.6616,0.6883,0.7355,0.6864,0.0,0.0,0.0,0.0,0.0,0.0,0.0,0.0,0.0,0.0,0.0,0.0,0.0,0.0,0.0,0.0,0.0,0.0,0.0,0.6916,0.6471,0.6018,0.0,0.0,0.0,0.0,0.0,0.0,0.0,0.0,0.0,0.5863,0.5666,0.5552,0.0,0.0,0.5863,0.6013,0.6044,0.6051,0.6116,0.6151,0.0,0.6332,0.6237,0.6165,0.6196,0.6192,0.6244,0.6535,0.6627,0.6668,0.6709,0.6732,0.6629,0.6388,0.6189,0.6306,0.6696,0.6633,0.5952,0.4624,0.4287,0.4593,1.5387,1.5,1.4248,1.4017,1.4175,1.4516,1.4739,1.4918,1.5313,1.5177,1.4697,1.4472,1.3861,1.2881,1.2449,0.0,0.0,0.0,1.315,1.3727,1.4095,1.4426,1.4696,1.4905,1.4892,1.4707,1.4707,1.4614,1.444,1.4333,1.3999,1.3413,0.0,0.0,1.0963,1.0113,0.9674,0.9709,1.0515,1.0412,0.9246,0.9646,0.936,0.8332,0.7717,0.7297,0.71,0.6947,0.6976,0.7193,0.7029,0.7188,0.0,0.0,0.0,0.0,0.0,0.0,0.0,0.0,0.0,0.0,0.0,1.0255,0.9451,0.0,0.0,0.0,0.9005,0.8275,0.7233,0.7189,0.0,0.0,0.0,0.0,0.0,0.0,0.0,0.541,0.5628,0.589,0.6084,0.5843,0.5667,0.5782,0.5917,0.6068,0.6272,0.0,0.6498,0.6597,0.6477,0.6416,0.6559,0.6512,0.6457,0.6437,0.6539,0.6641,0.6757,0.686,0.6933,0.6965,0.697,0.6959,0.6866,0.6615,0.6562,0.6993,0.695,0.6519,0.5738,0.5252,0.5443,1.7945,1.7983,1.5722,1.4881,1.5057,1.5786,1.6052,1.601,1.6099,1.5691,1.4967,1.4739,1.4027,1.2968,1.291,0.0,1.3323,1.3614,1.402,1.4567,1.4632,1.4801,1.5041,1.5091,1.5091,1.5077,1.5091,1.5115,1.5091,1.4819,1.4672,1.4588,1.267,1.1762,1.1804,1.0571,0.9894,0.9883,1.0438,1.038,0.967,0.924,0.9017,0.8969,0.8373,0.7996,0.7869,0.7302,0.6948,0.6888,0.7347,0.7645,0.772,0.0,0.0,0.0,0.0,0.0,0.0,0.0,0.0,0.0,0.0,0.0,0.0,0.0,0.0,0.0,0.8994,0.0,0.875,0.8514,0.0,0.0,0.0,0.5693,0.6247,0.6016,0.5845,0.5851,0.0,0.0,0.6327,0.6185,0.6012,0.5912,0.6139,0.6318,0.6347,0.6592,0.6821,0.7027,0.6785,0.659,0.6729,0.6742,0.6715,0.6669,0.6895,0.7002,0.6879,0.6965,0.7096,0.7096,0.7103,0.7103,0.7103,0.7054,0.7103,0.7098,0.71,0.7085,0.6988,0.6933,0.6928,1.7955,1.7979,1.7992,1.7834,1.7604,1.7793,1.7783,1.7666,1.8027,1.7813,1.7195,1.6949,1.5901,1.4306,1.3946,1.3945,1.4205,1.4669,1.5007,1.5227,1.5869,1.5967,1.562,1.5869,1.5857,1.5633,1.5857,1.5989,1.6001,1.6124,1.606,1.5823,1.4757,1.3919,1.331,1.3321,1.2925,1.2199,1.2477,1.2326,1.1674,1.0771,1.0054,0.9591,0.884,0.7997,0.7073,0.691,0.6788,0.6695,0.6937,0.722,0.7557,0.8572,0.0,0.0,0.0,0.0,0.0,0.0,0.0,0.0,0.0,1.0496,1.0267,0.0,0.9442,0.0,0.8916,0.8598,0.8882,0.7979,0.0,0.0,0.7556,0.6194,0.6286,0.6235,0.6193,0.625,0.6214,0.6364,0.6841,0.6692,0.6589,0.6768,0.6505,0.6441,0.6829,0.695,0.7021,0.7084,0.7023,0.6972,0.6981,0.7012,0.6995,0.698,0.7051,0.7085,0.7029,0.7071,0.7109,0.7109,0.7109,0.7109,0.7109,0.7109,0.7109,0.7109,0.7109,0.7109,0.7109,0.7109,0.7109,1.884,1.922,1.9222,1.932,1.9552,1.9249,1.8992,1.8835,1.9346,1.9135,1.8337,1.7462,1.6378,1.5228,1.5235,1.5239,1.5286,1.6234,1.6514,1.6258,1.6697,1.6689,1.6356,1.6677,1.6817,1.6777,1.6967,1.705,1.7039,1.6833,1.662,1.6473,1.6182,1.5467,1.4363,1.4244,1.3901,1.332,1.319,1.2766,1.2055,1.1364,1.0776,1.0241,0.9168,0.8345,0.7797,0.7375,0.738,0.7858,0.7823,0.7924,0.8247,0.895,0.9358,0.0,0.0,0.0,0.0,0.0,0.0,0.0,0.0,0.0,0.0,0.0,0.9716,0.9908,0.8932,0.8594,0.9329,0.8489,0.8268,0.9128,0.8226,0.7517,0.7388,0.7056,0.6889,0.7015,0.6997,0.7053,0.7297,0.719,0.7091,0.7098,0.684,0.675,0.7023,0.7114,0.7114,0.711,0.711,0.7109,0.7109,0.7109,0.7109,0.7109,0.7109,0.7109,0.7109,0.7109,0.7109,0.7109,0.7109,0.7109,0.7109,0.7109,0.7109,0.7109,0.7109,0.7109,0.7109,0.7109,0.7109,1.9856,2.0604,1.9752,1.9933,2.0746,2.0307,2.0028,1.9861,2.034,2.0032,1.9087,1.7552,1.6605,1.6179,1.6673,1.6725,1.6492,1.7817,1.8084,1.7451,1.7433,1.7355,1.7238,1.7608,1.7899,1.8143,1.8075,1.8042,1.8029,1.7221,1.6807,1.678,1.7059,1.6471,1.5039,1.4298,1.3872,1.3693,1.3166,1.253,1.1792,1.1702,1.142,1.0911,0.9486,0.8822,0.9048,0.8107,0.8122,0.9263,0.9027,0.8925,0.9045,0.9338,0.9469,0.0,0.9964,0.0,0.0,0.0,0.0,0.0,0.0,0.0,0.0,0.9816,1.0278,1.0042,0.9076,0.8764,0.9544,0.9195,0.8538,0.7655,0.8319,0.8832,0.8684,0.8082,0.7708,0.7869,0.785,0.7786,0.7797,0.7714,0.7552,0.7186,0.7166,0.7263,0.7279,0.7202,0.7107,0.7109,0.7109,0.7118,0.7164,0.7131,0.708,0.7098,0.7113,0.7111,0.7114,0.7109,0.7109,0.7109,0.7187,0.7198,0.7125,0.7114,0.7109,0.7114,0.7114,0.7109,0.7109,0.7109,0.7109,1.9415,1.9622,1.9853,2.006,2.0315,2.1045,2.1448,2.1607,2.1435,2.1115,2.0631,1.99,1.9157,1.8457,1.8194,1.8028,1.7982,1.8503,1.853,1.8204,1.8823,1.8887,1.8503,1.8964,1.9116,1.8949,1.8542,1.8318,1.832,1.7728,1.7327,1.7113,1.7166,1.6471,1.5064,0.0,0.0,0.0,1.319,1.2833,1.267,1.2882,1.26,1.1697,1.0116,0.0,0.9058,0.7981,0.7732,0.8553,0.8688,0.0,0.0,0.0,0.0,0.0,0.0,0.0,0.0,0.0,0.0,0.0,1.2572,1.2092,1.117,1.0626,1.013,0.9651,0.9398,0.89,0.8043,0.8303,0.8255,0.7613,0.7957,0.839,0.8655,0.855,0.8422,0.8296,0.81,0.8133,0.8527,0.833,0.7837,0.7254,0.7463,0.7882,0.8213,0.7558,0.7132,0.7109,0.7109,0.7227,0.7458,0.7178,0.7,0.7059,0.7113,0.7107,0.7104,0.7103,0.7114,0.7125,0.7408,0.7515,0.7217,0.7118,0.7155,0.7111,0.7107,0.7109,0.7109,0.7109,0.7109,1.9454,1.97,1.9698,2.0163,0.0,2.1314,2.2177,2.3265,2.2895,2.2558,2.2179,2.1143,2.0325,1.9662,1.9237,1.8937,1.8774,1.9492,1.9797,1.9758,1.9803,1.9903,1.9991,2.0156,2.031,2.0397,1.9608,1.9288,1.9367,1.8195,1.7515,1.7394,1.7407,1.6743,1.545,1.4279,1.3427,1.2857,1.2717,1.2428,1.2046,1.2077,1.1807,1.1151,0.9937,0.0,0.0,0.0,0.0,0.0,0.0,0.0,0.0,0.9802,0.0,1.0001,1.0888,1.1609,1.211,1.2689,1.3049,1.3186,1.301,1.2468,1.1477,1.0582,0.9885,0.9431,0.9223,0.8882,0.836,0.8443,0.8423,0.8127,0.8084,0.8253,0.8622,0.8702,0.8748,0.881,0.8623,0.8581,0.8727,0.8574,0.8116,0.7478,0.7412,0.7617,0.7757,0.7437,0.7121,0.7121,0.722,0.7408,0.7581,0.7306,0.711,0.7349,0.7262,0.7127,0.7107,0.6994,0.6991,0.7216,0.7458,0.755,0.7826,0.783,0.769,0.7245,0.7107,0.7114,0.7114,0.7109,0.7109,1.9571,1.9957,1.97,2.0357,2.1573,2.173,2.2902,2.4695,2.4362,0.0,0.0,2.2111,2.1153,2.0586,2.0125,1.9734,1.9503,2.0604,2.1157,2.1247,2.0809,2.0914,2.1491,2.1358,2.1507,2.1865,2.0742,2.0277,2.0418,1.8539,1.7608,1.7608,1.7608,1.6922,1.5541,1.345,1.2184,1.1812,1.2134,1.1986,1.1285,1.1185,1.104,1.0826,0.9783,0.9258,0.9326,0.9097,0.9301,0.9948,1.0296,1.0501,1.0485,1.0496,1.0663,1.1011,1.1216,1.1738,1.2657,1.2907,1.3216,1.3653,1.339,1.2686,1.1473,1.05,0.9777,0.9389,0.9043,0.8974,0.9211,0.8978,0.8839,0.8912,0.8561,0.8457,0.8756,0.8813,0.8938,0.9228,0.9126,0.8972,0.8781,0.8697,0.8532,0.807,0.7657,0.7291,0.7345,0.7374,0.733,0.7507,0.7584,0.7621,0.7712,0.7346,0.7214,0.7418,0.7248,0.706,0.7065,0.7063,0.7199,0.7487,0.757,0.7913,0.8359,0.8642,0.8538,0.7778,0.7298,0.7111,0.7114,0.7109,0.7127,1.9363,1.9493,2.0328,2.0816,2.1145,2.2923,2.4412,2.5504,2.547,2.5028,2.4288,2.3383,2.2576,2.1799,2.1084,2.0699,2.0705,2.1553,2.1937,2.1975,2.2327,2.2562,2.2675,2.2692,2.2735,2.2686,2.1187,2.047,2.0277,1.8539,1.7608,1.7622,1.7608,1.6538,1.4433,1.3058,1.1905,1.092,1.1661,1.2005,1.1887,1.2302,1.2513,1.2391,1.0636,0.9974,1.0509,0.902,0.8683,0.9762,0.9769,0.973,0.9674,0.9704,0.9765,1.0028,1.0876,1.1694,1.2437,1.3376,1.3955,1.4015,1.3984,1.3538,1.2544,1.1252,1.0222,0.9633,0.9488,0.9594,0.98,0.9449,0.9357,0.9673,0.9379,0.9165,0.9177,0.918,0.9195,0.9272,0.9284,0.9232,0.9122,0.8947,0.897,0.9201,0.8351,0.7914,0.8208,0.7992,0.8003,0.8387,0.8124,0.791,0.7944,0.7313,0.6937,0.6836,0.6877,0.6884,0.7076,0.7709,0.804,0.7837,0.8336,0.8614,0.8284,0.9024,0.9444,0.9262,0.8277,0.7254,0.7151,0.7147,0.7246,2.1447,2.1142,2.1788,2.2304,2.276,2.4325,2.526,2.5693,2.5686,2.5491,2.5088,2.4307,2.3495,2.2711,2.1916,2.1321,2.0922,2.1514,2.2003,2.2396,2.2299,2.2672,2.3338,2.2938,2.2609,2.2417,2.1148,2.0264,1.9709,1.8304,1.7675,1.7822,1.7996,1.6963,1.4856,1.4221,1.3162,1.1563,1.1362,1.1302,1.1302,1.1394,1.1468,1.1472,1.0297,0.9693,0.9702,0.902,0.8722,0.8858,0.9299,0.9494,0.9402,0.962,1.0138,1.0941,1.1438,1.2191,1.3263,1.3947,1.4255,1.4137,1.4234,1.423,1.3983,1.2248,1.0895,1.0213,0.9733,0.9471,0.961,0.9432,0.9397,0.959,0.9427,0.9204,0.9011,0.9166,0.9276,0.92,0.9035,0.8924,0.891,0.8813,0.8695,0.8807,0.8287,0.8356,0.9152,0.8907,0.8607,0.8695,0.8332,0.8179,0.8271,0.755,0.71,0.725,0.7068,0.6987,0.7153,0.7935,0.8417,0.8313,0.867,0.8852,0.8611,0.9142,0.9645,0.9848,0.8955,0.7889,0.7335,0.7494,0.7814,2.3423,2.2843,2.3296,2.3842,2.4554,2.5454,2.5803,2.5706,2.5686,2.5686,2.5589,2.4867,2.4146,2.3538,2.2736,2.203,2.1549,2.1856,2.2387,2.2875,2.2433,2.2805,2.3733,2.3067,2.2497,2.2021,2.1085,2.0107,1.9177,1.8163,1.7849,1.8129,1.837,1.7534,1.5648,1.5395,1.4377,1.2584,1.1532,1.1032,1.1018,1.0722,1.0592,1.068,0.9986,0.9418,0.9105,0.8967,0.8747,0.8429,0.9019,0.9389,0.94,0.9965,1.0784,1.1812,1.2201,1.2905,1.4153,1.4418,1.4433,1.4322,1.4369,1.458,1.4778,1.3019,1.1435,1.0674,0.9759,0.9218,0.9218,0.9218,0.9229,0.9286,0.9203,0.899,0.87,0.8922,0.9135,0.9039,0.8841,0.8694,0.8714,0.8739,0.8672,0.8448,0.8477,0.9047,0.9775,0.9639,0.9238,0.8979,0.8651,0.853,0.8612,0.7861,0.745,0.7731,0.7315,0.7075,0.7249,0.8078,0.885,0.8942,0.8964,0.9158,0.9403,0.9475,0.9651,0.9875,0.9229,0.8426,0.7731,0.8097,0.8436,2.3781,2.3796,2.4412,2.4989,2.5576,2.6103,2.6081,2.5757,2.5706,2.5686,2.5633,2.4849,2.4467,2.4282,2.355,2.312,2.3053,2.3487,2.3691,2.3739,2.3732,2.3775,2.3922,2.3711,2.3115,2.2106,2.1267,2.0295,1.9145,1.8371,1.8143,1.8424,1.8491,1.7892,1.6612,1.5727,1.471,1.3493,1.2552,1.2063,1.2025,1.1572,1.1458,1.1726,1.0343,0.9707,0.9795,0.8751,0.8427,0.9032,0.9102,0.9278,0.9609,1.0584,1.1344,1.1737,1.2754,1.382,1.4774,1.4656,1.4625,1.4854,1.4443,1.4416,1.4849,1.3152,1.1617,1.0797,0.9688,0.9033,0.8944,0.8983,0.9077,0.9198,0.8922,0.8634,0.8631,0.8631,0.8741,0.8984,0.891,0.8942,0.9064,0.9137,0.9173,0.916,0.948,0.9839,1.0118,0.9881,0.9653,0.971,0.9491,0.9139,0.8908,0.818,0.773,0.7626,0.7146,0.695,0.7349,0.8522,0.9853,0.9587,0.9741,0.9757,0.9808,0.9946,0.9925,0.9899,0.9482,0.8872,0.8577,0.8769,0.8857,2.6175,2.5746,2.6293,2.648,2.6486,2.6426,2.6301,2.6101,2.5803,2.5686,2.565,2.5345,2.4966,2.4492,2.4146,2.3756,2.3335,2.3718,2.3895,2.3882,2.3814,2.3975,2.4323,2.4057,2.3196,2.1938,2.1529,2.0494,1.9037,1.8603,1.8609,1.8784,1.9078,1.8732,1.7703,1.6581,1.5494,1.4504,1.3367,1.2781,1.2692,1.1882,1.1372,1.1248,1.0307,0.9809,0.9863,0.8967,0.87,0.9256,0.9132,0.9082,0.9198,1.0384,1.1255,1.1748,1.3213,1.4425,1.5179,1.511,1.5021,1.5021,1.4843,1.4836,1.4921,1.3751,1.2719,1.1958,1.0467,0.9491,0.9482,0.9479,0.9357,0.8977,0.8709,0.861,0.8601,0.8615,0.8648,0.8755,0.8946,0.9108,0.9227,0.9454,0.961,0.9685,0.9918,1.0074,1.0129,0.9968,0.9961,1.0082,0.9903,0.9573,0.9223,0.8655,0.8204,0.7905,0.74,0.7038,0.7321,0.8437,0.9634,0.9932,0.9891,0.979,0.9659,0.9906,1.0005,0.994,0.9886,0.9451,0.896,0.9438,0.9764,2.793,2.7461,2.7741,2.7532,2.6979,2.6699,2.6529,2.6328,2.5893,2.5686,2.5706,2.5823,2.551,2.4892,2.4824,2.456,2.4201,2.421,2.4294,2.4363,2.4205,2.4417,2.4787,2.4696,2.3657,2.2213,2.2097,2.1065,1.9181,1.8854,1.9012,1.9299,1.9629,1.9484,1.8816,1.749,1.6398,1.5634,1.4136,1.328,1.3138,1.225,1.1577,1.1269,1.0468,1.0035,1.0043,0.935,0.9153,0.958,0.9502,0.9376,0.9313,1.0479,1.1626,1.2688,1.397,1.4965,1.5461,1.5444,1.5345,1.5224,1.516,1.505,1.4853,1.4196,1.3547,1.2992,1.1364,1.02,0.9911,0.981,0.9532,0.9087,0.8835,0.862,0.8611,0.8762,0.898,0.898,0.919,0.9352,0.9469,0.9842,1.0195,1.0271,1.0177,1.0067,1.0081,1.0068,1.004,1.0203,1.0069,0.9883,0.9526,0.9082,0.874,0.8471,0.798,0.7602,0.7568,0.8706,0.937,0.9739,0.9697,0.9745,0.9778,0.9925,1.0016,1.0016,0.9962,0.9831,0.943,1.0053,1.0399,2.8275,2.8236,2.8269,2.7832,2.7031,2.7056,2.6808,2.662,2.6031,2.5754,2.5857,2.6182,2.6101,2.564,2.5572,2.5847,2.6036,2.5368,2.5232,2.5514,2.5324,2.5226,2.5291,2.58,2.4852,2.284,2.3088,2.2247,2.0327,1.9398,1.9356,2.0176,1.999,1.9945,1.9765,1.8147,1.7241,1.6803,1.4696,1.3481,1.3405,1.2797,1.2357,1.202,1.1108,1.0474,1.0268,0.9834,0.9736,1.0163,1.0328,1.0358,1.0246,1.1208,1.2791,1.4809,1.5242,1.5458,1.5675,1.5553,1.55,1.5612,1.5175,1.4844,1.5018,1.4218,1.3626,1.3465,1.196,1.0741,1.0103,0.9856,0.9821,1.0074,0.9276,0.8815,0.8698,0.9621,0.9806,0.9904,0.989,0.9956,1.0112,1.0469,1.0839,1.0941,1.0768,1.0477,1.0299,1.0141,1.0051,1.0023,1.0024,0.9994,0.9918,0.957,0.9307,0.9256,0.9022,0.8536,0.8865,0.9197,0.9438,0.9598,0.9712,0.9822,0.9927,0.9985,1.0005,1.0016,1.0016,0.9864,0.9735,1.0108,1.0463,2.8301,2.8354,2.8847,2.8878,2.8642,2.8865,2.888,2.8686,2.7929,2.7349,2.6927,2.6778,2.6506,2.6133,2.5835,2.5796,2.5932,2.593,2.6028,2.614,2.6053,2.6004,2.6043,2.6234,2.5557,2.4283,2.4421,2.3751,2.2077,2.0914,2.0536,2.0728,2.054,2.0443,2.0125,1.8334,1.7242,1.699,1.4897,1.3518,1.3247,1.3353,1.312,1.239,1.1404,1.0847,1.082,1.0112,1.0093,1.0931,1.054,1.032,1.0489,1.1392,1.2994,1.5045,1.5229,1.5336,1.5715,1.5715,1.5695,1.5765,1.5568,1.5387,1.5273,1.4367,1.3543,1.3249,1.2104,1.1046,1.0835,1.0623,1.0616,1.0759,1.0508,1.0191,1.0512,1.139,1.2215,1.2158,1.1899,1.162,1.1332,1.1721,1.178,1.1281,1.0926,1.0588,1.0231,1.0066,1.0015,1.0016,1.0016,1.0016,1.0005,0.9896,0.9823,1.0148,1.0113,0.9696,0.9724,0.9878,1.0118,0.971,0.9766,0.9803,0.9879,0.9996,1.0016,1.0016,1.0016,1.0016,1.0005,1.0208,1.0558,2.8694,2.8814,2.9573,2.9906,2.993,3.0045,3.0095,2.998,2.9107,2.8425,2.7914,2.7352,2.6895,2.6527,2.6094,2.5925,2.5952,2.625,2.6465,2.6582,2.6582,2.6614,2.6634,2.6751,2.6276,2.5341,2.4976,2.4334,2.3275,2.1889,2.1206,2.1136,2.0865,2.0737,2.0445,1.8581,1.7458,1.7044,1.5124,1.3634,1.3205,1.348,1.3247,1.2419,1.177,1.1388,1.1209,1.0481,1.045,1.1164,1.1001,1.0955,1.123,1.2262,1.3603,1.5142,1.5311,1.5404,1.574,1.582,1.5795,1.582,1.5794,1.572,1.5306,1.4052,1.3337,1.2885,1.1946,1.1149,1.1446,1.1353,1.1293,1.1462,1.1363,1.1215,1.132,1.3006,1.3731,1.3321,1.2968,1.2589,1.2098,1.2294,1.1962,1.1173,1.0875,1.0599,1.0247,1.0109,1.0061,1.0013,1.0016,1.0016,1.0016,0.9951,1.0201,1.0554,1.0749,1.0481,1.0572,1.0706,1.0429,0.9966,0.9764,0.9762,0.9841,0.9967,1.0016,1.0016,1.0016,1.0016,1.0083,1.0197,1.0502,2.952,2.9638,3.0448,3.0798,3.076,3.0542,3.023,3.0138,2.9312,2.8938,2.8667,2.7914,2.7352,2.6866,2.6512,2.6403,2.6406,2.6458,2.666,2.6979,2.7018,2.7006,2.7051,2.7435,2.7309,2.6417,2.4816,2.4107,2.4035,2.2318,2.1327,2.1122,2.0896,2.0842,2.108,1.9012,1.793,1.736,1.5379,1.3863,1.3351,1.3214,1.2858,1.2234,1.2287,1.2058,1.1431,1.094,1.089,1.1323,1.1887,1.2401,1.2772,1.3778,1.4834,1.5299,1.5621,1.5743,1.5795,1.582,1.5808,1.5809,1.5815,1.5406,1.4507,1.3294,1.2566,1.2518,1.1626,1.1186,1.1995,1.1877,1.1748,1.2228,1.2012,1.1795,1.2105,1.3956,1.5125,1.3752,1.3393,1.2763,1.2068,1.2088,1.1922,1.1022,1.0779,1.0757,1.0473,1.0344,1.0219,1.008,1.0053,1.0081,1.0043,1.006,1.0463,1.0842,1.0972,1.0974,1.1485,1.1701,1.0887,1.0387,1.0235,1.0203,0.99,1.0016,1.0016,1.0016,1.0016,1.0015,1.0083,1.0176,1.0374,3.0409,3.0513,3.1287,3.1607,3.171,3.21,3.2114,3.1675,3.1083,3.036,2.9528,2.8893,2.7962,2.7076,2.6782,2.6769,2.6809,2.6836,2.7051,2.7448,2.7487,2.7487,2.7532,2.7904,2.8297,2.8237,2.6746,2.578,2.5176,2.3262,2.2051,2.1747,2.1213,2.1031,2.0969,1.8888,1.7652,1.7394,1.544,1.4055,1.357,1.3533,1.3263,1.2756,1.2577,1.2218,1.1637,1.1338,1.1292,1.1498,1.173,1.2728,1.4314,1.4516,1.4794,1.5542,1.5553,1.562,1.5781,1.5808,1.5811,1.5805,1.5791,1.5323,1.4232,1.242,1.1922,1.2678,1.1788,1.1235,1.22,1.305,1.3208,1.3173,1.3858,1.4196,1.416,1.5108,1.5442,1.5142,1.4962,1.452,1.3595,1.3124,1.213,1.0849,1.0874,1.1062,1.0794,1.0721,1.0439,1.0249,1.0221,1.019,1.0122,1.0339,1.0841,1.123,1.1402,1.1863,1.2386,1.221,1.1428,1.0741,1.0619,1.0421,1.0126,1.0016,1.0005,1.0024,1.0023,1.0034,1.0034,1.0184,1.041,3.1236,3.1339,3.2139,3.2493,3.2519,3.3094,3.2983,3.2467,3.1985,3.123,3.0238,2.914,2.8209,2.7345,2.6911,2.6931,2.7233,2.7415,2.7715,2.8021,2.778,2.7702,2.778,2.8275,2.8965,2.9407,2.8277,2.7069,2.612,2.4301,2.2809,2.1805,2.1299,2.108,2.0951,1.9272,1.8102,1.7362,1.5873,1.4503,1.3692,1.3623,1.3427,1.2899,1.2831,1.2575,1.2043,1.1963,1.184,1.1782,1.2141,1.3601,1.5517,1.5178,1.5064,1.5466,1.562,1.5633,1.5793,1.5808,1.5811,1.5732,1.5093,1.483,1.4364,1.2809,1.2532,1.3004,1.2235,1.1877,1.3108,1.3798,1.4244,1.4412,1.5109,1.5773,1.5805,1.5812,1.5796,1.5713,1.5737,1.5297,1.4424,1.4232,1.3105,1.182,1.1712,1.1968,1.1726,1.1539,1.1247,1.0948,1.0808,1.0631,1.0257,1.0608,1.1208,1.1585,1.1906,1.2633,1.3315,1.2634,1.1847,1.0824,1.04,1.0268,1.0016,1.0005,1.0015,1.0023,1.0143,1.0084,1.0128,1.0301,1.051,3.2079,3.2218,3.2957,3.3257,3.3282,3.3294,3.296,3.2421,3.1997,3.1432,3.0567,2.9102,2.8189,2.7803,2.719,2.7182,2.7663,2.8041,2.8379,2.8516,2.8216,2.7917,2.8112,2.8685,2.9428,2.998,2.9218,2.7816,2.6122,2.4934,2.3432,2.1486,2.125,2.1147,2.0977,2.0113,1.8787,1.7498,1.6412,1.4947,1.3315,1.3433,1.3324,1.269,1.3082,1.306,1.2543,1.2491,1.2293,1.1896,1.3026,1.4423,1.5548,1.581,1.5722,1.554,1.5686,1.5781,1.5821,1.582,1.5809,1.568,1.4483,1.361,1.5123,1.4619,1.3811,1.3677,1.2825,1.2903,1.4111,1.4448,1.4759,1.5573,1.5729,1.5823,1.5872,1.5885,1.5913,1.5927,1.5827,1.5553,1.4775,1.5223,1.4642,1.3748,1.3302,1.3074,1.3079,1.272,1.2437,1.2055,1.1622,1.1157,1.0828,1.1114,1.1674,1.1945,1.2385,1.3222,1.3461,1.264,1.1926,1.0929,1.0426,1.0219,1.012,1.0192,1.0338,1.0517,1.0479,1.0276,1.0294,1.0478,1.103,3.3147,3.3458,3.3357,3.3494,3.3742,3.3457,3.2789,3.2031,3.1882,3.1272,3.0353,2.9675,2.8893,2.8416,2.8229,2.8189,2.8179,2.8275,2.8502,2.8834,2.8717,2.8803,2.9051,2.9305,2.9891,3.048,2.9816,2.8313,2.6349,2.5296,2.3703,2.1835,2.1539,2.1582,2.1534,2.0329,1.885,1.7451,1.6204,1.4886,1.3609,1.3486,1.3527,1.3349,1.3227,1.2977,1.2516,1.2134,1.1885,1.1774,1.3192,1.4606,1.5745,1.6201,1.6195,1.5848,1.5979,1.6033,1.5873,1.5809,1.5812,1.5806,1.5192,1.5225,1.5678,1.5552,1.5018,1.44,1.353,1.3396,1.4424,1.4676,1.5039,1.5625,1.5896,1.6037,1.6295,1.6324,1.6281,1.6421,1.6422,1.6223,1.6048,1.5799,1.5614,1.4924,1.4276,1.3725,1.3883,1.3909,1.3625,1.2887,1.2348,1.1848,1.1585,1.1814,1.2092,1.2333,1.2881,1.3687,1.3252,1.2159,1.1477,1.0692,1.0894,1.0821,1.0689,1.0654,1.0825,1.1241,1.1254,1.125,1.0767,1.0758,1.1706,3.3457,3.3693,3.3394,3.3444,3.3668,3.3407,3.272,3.1928,3.1778,3.0993,2.9893,2.9425,2.8859,2.8202,2.8256,2.8331,2.8354,2.8685,2.8978,2.9154,2.9193,2.9428,2.9741,2.9872,3.0307,3.1035,3.0653,2.9002,2.7008,2.5991,2.4397,2.2372,2.185,2.1863,2.1921,2.1096,1.9461,1.7686,1.6529,1.5328,1.3358,1.3396,1.3333,1.3337,1.3278,1.3331,1.3078,1.2508,1.1912,1.1787,1.3036,1.4831,1.6369,1.6592,1.6541,1.6195,1.6378,1.6326,1.61,1.6028,1.5958,1.5847,1.5809,1.5963,1.6117,1.6172,1.5902,1.5384,1.4558,1.4534,1.4977,1.5304,1.5642,1.6132,1.641,1.6594,1.672,1.6658,1.6651,1.6698,1.6688,1.6701,1.6701,1.6369,1.6157,1.5882,1.5429,1.5034,1.4863,1.4861,1.4651,1.3898,1.332,1.2903,1.2594,1.2711,1.2886,1.3084,1.3465,1.4244,1.3507,1.2333,1.1957,1.1619,1.1546,1.1417,1.1252,1.1407,1.2088,1.2369,1.2354,1.2026,1.1522,1.146,1.239,3.3417,3.3469,3.3457,3.3407,3.3407,3.3382,3.2817,3.1928,3.1778,3.0838,2.9493,2.886,2.8493,2.7622,2.8071,2.8106,2.8509,2.9174,2.9534,2.9657,2.9774,3.0014,3.0371,3.0312,3.0781,3.1474,3.1606,2.9877,2.7896,2.7156,2.5332,2.3039,2.22,2.2121,2.2154,2.1955,2.0426,1.8448,1.7846,1.6303,1.4214,1.3855,1.3726,1.3239,1.3612,1.3831,1.3643,1.3166,1.2358,1.1123,1.3063,1.5201,1.7106,1.7016,1.6754,1.6699,1.6686,1.6645,1.6406,1.6376,1.6304,1.6047,1.5965,1.6146,1.661,1.6691,1.6485,1.6217,1.5781,1.5513,1.5747,1.6167,1.6399,1.665,1.7147,1.725,1.6971,1.6945,1.6995,1.6832,1.6807,1.6807,1.6794,1.6754,1.6691,1.6631,1.6253,1.5944,1.5657,1.5488,1.5277,1.4853,1.4395,1.4048,1.3799,1.3632,1.3783,1.3954,1.4263,1.4615,1.4131,1.3341,1.3044,1.2767,1.2461,1.2109,1.175,1.2222,1.3136,1.3368,1.3263,1.2755,1.226,1.2533,1.3193,3.4077,3.447,3.4493,3.4225,3.388,3.3843,3.3063,3.1825,3.1766,3.1019,2.9796,2.9299,2.8915,2.85,2.8529,2.8887,2.9188,2.9506,2.9755,3.0098,3.0469,3.082,3.1074,3.0937,3.1245,3.1914,3.2383,3.0797,2.8577,2.7585,2.6351,2.3473,2.2801,2.2747,2.266,2.2355,2.1561,1.9992,1.9444,1.8,1.5967,1.5298,1.4863,1.4095,1.3981,1.381,1.3567,1.3146,1.2946,1.3294,1.4202,1.5733,1.7146,1.7458,1.7181,1.6914,1.6992,1.6965,1.67,1.6649,1.6612,1.6483,1.6516,1.6759,1.7277,1.6955,1.6718,1.6517,1.609,1.5962,1.6197,1.6623,1.6799,1.6906,1.7247,1.755,1.7433,1.744,1.74,1.7392,1.7368,1.7395,1.7368,1.7167,1.7151,1.7211,1.7003,1.67,1.6361,1.6005,1.5708,1.5333,1.5054,1.4678,1.4581,1.4409,1.4505,1.4644,1.4923,1.5092,1.4621,1.4273,1.3958,1.3594,1.3239,1.2917,1.2733,1.3345,1.4322,1.424,1.4204,1.4052,1.3909,1.3968,1.3884,3.477,3.4835,3.5063,3.4709,3.4123,3.4263,3.3553,3.2379,3.2378,3.1603,3.0376,3.0034,2.9576,2.8844,2.8707,2.8848,2.9297,2.9741,3.0112,3.0503,3.082,3.123,3.1734,3.1675,3.1885,3.238,3.1925,3.0411,2.8823,2.7638,2.6035,2.3635,2.3259,2.3056,2.2918,2.2699,2.1632,2.0284,2.0103,1.9289,1.7948,1.6942,1.6454,1.5669,1.5099,1.4612,1.4647,1.4313,1.431,1.4724,1.5448,1.6387,1.7344,1.7607,1.7421,1.7247,1.726,1.7247,1.7033,1.7034,1.6997,1.6723,1.6937,1.7083,1.7266,1.7073,1.7081,1.6921,1.6687,1.654,1.6698,1.6887,1.7039,1.7185,1.7396,1.7595,1.7608,1.7619,1.7604,1.7608,1.7582,1.7582,1.7528,1.7408,1.7416,1.7409,1.6935,1.6623,1.6168,1.5875,1.5863,1.5618,1.5428,1.5258,1.522,1.5167,1.517,1.5268,1.5406,1.5513,1.5327,1.5062,1.4848,1.4501,1.42,1.4283,1.4273,1.4923,1.5128,1.5113,1.517,1.5436,1.5415,1.4986,1.4938,3.5512,3.5198,3.5658,3.5265,3.4555,3.5009,3.4344,3.2971,3.3218,3.2243,3.0768,3.0639,2.9859,2.9023,2.8595,2.8666,2.9244,2.9908,3.0547,3.0957,3.1152,3.1636,3.2144,3.2378,3.2519,3.2731,3.2032,3.0535,2.8916,2.7519,2.6207,2.404,2.3509,2.3345,2.3068,2.2829,2.2064,2.0609,2.0794,2.0483,1.9565,1.8428,1.7779,1.7034,1.6455,1.594,1.5949,1.5777,1.5735,1.5933,1.6712,1.7278,1.7595,1.7622,1.7608,1.7595,1.7568,1.7448,1.734,1.7395,1.733,1.6859,1.725,1.7331,1.7121,1.7276,1.7377,1.7338,1.7166,1.7127,1.718,1.7247,1.7354,1.7502,1.7595,1.7608,1.7608,1.7608,1.7608,1.7621,1.7608,1.7608,1.7608,1.7554,1.7589,1.7516,1.7014,1.6505,1.6065,1.5905,1.5968,1.5912,1.5747,1.5598,1.5547,1.5509,1.556,1.5595,1.5738,1.5766,1.5781,1.5557,1.5337,1.5405,1.5279,1.5218,1.5205,1.5412,1.5605,1.5808,1.5784,1.5713,1.5737,1.5808,1.5808,3.6468,3.68,3.691,3.6604,3.621,3.6596,3.5631,3.4034,3.3975,3.2506,3.0392,3.0132,2.9834,2.9066,2.8872,2.9238,2.9863,3.0488,3.0962,3.1387,3.166,3.2183,3.2559,3.2851,3.3125,3.325,3.2758,3.1489,2.9572,2.8723,2.6737,2.4769,2.402,2.3696,2.3304,2.3034,2.264,2.1802,2.1974,2.1641,2.0719,1.9881,1.8893,1.8015,1.7445,1.7185,1.7061,1.7042,1.7057,1.7182,1.7346,1.7668,1.7967,1.7849,1.7728,1.7648,1.7674,1.766,1.7659,1.7634,1.7582,1.7488,1.7551,1.7591,1.7474,1.7494,1.7533,1.7552,1.7514,1.7434,1.7078,1.7354,1.7515,1.7608,1.7608,1.7608,1.7608,1.7608,1.7608,1.7608,1.7608,1.7608,1.7608,1.7608,1.7603,1.7452,1.7029,1.6481,1.5952,1.6043,1.6311,1.6209,1.606,1.5931,1.5814,1.575,1.5732,1.5722,1.5795,1.5848,1.5836,1.5808,1.5761,1.5781,1.5729,1.5615,1.5687,1.5808,1.582,1.582,1.582,1.582,1.582,1.582,1.5896,3.7655,3.7643,3.7966,3.7606,3.7029,3.745,3.6601,3.5077,3.51,3.3823,3.1945,3.1227,3.0578,2.9702,2.9029,2.9394,3.019,3.0937,3.1294,3.1601,3.1968,3.2398,3.2773,3.3047,3.3223,3.3324,3.326,3.1966,2.9346,2.8361,2.6936,2.5105,2.4323,2.3969,2.3509,2.3239,2.2984,2.277,2.2752,2.2574,2.185,2.1254,2.0333,1.9579,1.8772,1.8423,1.811,1.8033,1.7904,1.7803,1.8043,1.8306,1.849,1.8523,1.8304,1.798,1.7951,1.8095,1.8239,1.8318,1.8251,1.7659,1.7617,1.7604,1.7606,1.7604,1.7626,1.7672,1.7911,1.7817,1.7408,1.762,1.77,1.7635,1.7608,1.7608,1.7621,1.7608,1.7635,1.7648,1.7648,1.7635,1.7608,1.7607,1.7602,1.7374,1.7018,1.6546,1.5989,1.6162,1.6536,1.6376,1.6186,1.6019,1.5927,1.5913,1.5831,1.5808,1.5859,1.5924,1.602,1.6056,1.6071,1.6063,1.5995,1.5887,1.5808,1.5809,1.5808,1.5821,1.5861,1.5875,1.5833,1.5845,1.5964,3.868,3.8354,3.873,3.8416,3.7839,3.8074,3.7381,3.6198,3.6076,3.4782,3.2804,3.2311,3.1529,3.0551,2.9937,2.99,3.0453,3.1177,3.1508,3.1777,3.2144,3.2554,3.2832,3.2969,3.3109,3.3363,3.3355,3.2062,2.9997,2.8526,2.682,2.5612,2.5003,2.4411,2.402,2.373,2.341,2.3035,2.2834,2.2786,2.2532,2.2171,2.1633,2.1093,2.0294,1.9625,1.9122,1.9028,1.8895,1.8759,1.8825,1.907,1.9231,1.9389,1.9179,1.869,1.8616,1.8676,1.8697,1.8919,1.8697,1.8213,1.7764,1.7686,1.7805,1.7857,1.7805,1.7832,1.8068,1.812,1.7686,1.7858,1.8016,1.8017,1.7832,1.7621,1.7661,1.7714,1.7806,1.7793,1.774,1.77,1.77,1.7608,1.7618,1.7584,1.7252,1.7116,1.6641,1.6465,1.6601,1.6446,1.6287,1.607,1.5992,1.6019,1.5917,1.5803,1.5917,1.6019,1.6202,1.6385,1.6347,1.6296,1.6114,1.6007,1.5903,1.5867,1.5949,1.5989,1.5971,1.5924,1.586,1.5984,1.616,3.9132,3.9484,3.907,3.9082,3.9281,3.8955,3.8153,3.7047,3.6134,3.4474,3.2605,3.234,3.1871,3.1209,3.1305,3.1144,3.1083,3.1309,3.1777,3.2124,3.2535,3.293,3.3265,3.3308,3.3269,3.3386,3.3386,3.2524,3.0968,2.9558,2.8295,2.7035,2.5594,2.4986,2.4916,2.4394,2.3638,2.314,2.2763,2.2358,2.2018,2.1859,2.1437,2.107,2.0828,2.0657,2.0182,2.0134,2.0097,2.0161,1.9642,1.9788,2.0244,1.9977,2.0098,2.0014,1.9736,1.9075,1.8863,1.9042,1.9255,1.8901,1.8304,1.8,1.8121,1.8319,1.8304,1.8304,1.8422,1.8238,1.7909,1.8015,1.8423,1.8477,1.828,1.7884,1.7726,1.7963,1.8043,1.8056,1.8029,1.7898,1.7832,1.7699,1.7606,1.7574,1.7527,1.7441,1.7396,1.7265,1.6956,1.6864,1.6527,1.627,1.6316,1.6304,1.6419,1.616,1.6091,1.6295,1.6769,1.7003,1.6567,1.6476,1.632,1.6174,1.6078,1.6068,1.6132,1.6293,1.6464,1.6223,1.5868,1.608,1.6351,3.9471,3.9672,3.9459,3.9484,3.9609,3.9145,3.8442,3.7543,3.6356,3.4864,3.3379,3.2694,3.2036,3.1456,3.1612,3.1594,3.1392,3.168,3.2124,3.2535,3.293,3.3226,3.3328,3.3386,3.3386,3.3386,3.3371,3.3244,3.1934,3.0273,2.8608,2.7418,2.6115,2.5238,2.5491,2.5086,2.467,2.4233,2.3818,2.3398,2.2981,2.2475,2.2019,2.176,2.1685,2.1479,2.1346,2.1528,2.1331,2.12,2.0711,2.0614,2.0786,2.0869,2.1146,2.0877,2.1001,2.0733,2.0352,2.0114,2.0029,1.9853,1.9192,1.8643,1.8674,1.8779,1.8724,1.8409,1.8723,1.8605,1.8264,1.8408,1.8792,1.8925,1.873,1.8437,1.8147,1.82,1.8331,1.8318,1.8331,1.8265,1.8173,1.8055,1.787,1.7592,1.7875,1.8196,1.8252,1.831,1.7914,1.7455,1.6999,1.6525,1.6674,1.6773,1.7283,1.7109,1.6604,1.6924,1.7639,1.7748,1.7303,1.687,1.6695,1.652,1.6322,1.6333,1.6444,1.6735,1.7041,1.6717,1.6416,1.6235,1.6524,3.971,3.971,3.971,3.971,3.9685,3.9271,3.8668,3.7891,3.6998,3.5633,3.4216,3.3302,3.2425,3.1775,3.1963,3.2018,3.1538,3.207,3.2476,3.2851,3.3168,3.3347,3.3386,3.3386,3.3386,3.3386,3.3386,3.3307,3.2607,3.1113,2.9264,2.7866,2.7052,2.6182,2.5728,2.5577,2.5336,2.4688,2.4274,2.3981,2.3702,2.3076,2.2668,2.2458,2.2383,2.2288,2.2195,2.2417,2.2181,2.2141,2.1628,2.1438,2.1621,2.1744,2.1894,2.1793,2.1995,2.2068,2.1688,2.1368,2.0997,2.0401,1.9943,1.9052,1.8962,1.9226,1.9415,1.9011,1.9497,1.9336,1.8935,1.9031,1.9255,1.9335,1.9184,1.8955,1.878,1.8836,1.8742,1.862,1.8672,1.8788,1.8671,1.8515,1.8199,1.7738,1.8053,1.8762,1.9041,1.9183,1.8631,1.8061,1.784,1.7423,1.7487,1.7662,1.8055,1.8139,1.7646,1.7692,1.8482,1.8465,1.8015,1.7615,1.7232,1.6965,1.6811,1.6785,1.6797,1.7084,1.7307,1.7252,1.7045,1.6799,1.6749,3.971,3.971,3.9697,3.971,3.9697,3.9685,3.8994,3.8091,3.7901,3.6549,3.4665,3.4025,3.3378,3.2794,3.2777,3.2523,3.1631,3.2383,3.2715,3.2949,3.3168,3.3347,3.3386,3.3386,3.3386,3.3386,3.3386,3.3386,3.3098,3.2078,3.0807,2.9982,2.851,2.77,2.6968,2.6368,2.5809,2.512,2.4515,2.4078,2.3854,2.3386,2.2902,2.2566,2.271,2.2767,2.2213,2.2718,2.3095,2.3263,2.2527,2.2447,2.2789,2.2453,2.2383,2.2667,2.27,2.2749,2.2547,2.1902,2.0845,1.9928,1.951,1.9565,1.9408,1.9846,2.0013,2.0018,2.0367,2.0229,1.9879,1.9785,1.9963,2.0037,1.991,1.9464,1.9366,1.9453,1.9331,1.903,1.911,1.9434,1.9492,1.939,1.8804,1.8329,1.8627,1.9307,1.9746,1.9831,1.9169,1.8703,1.8684,1.8553,1.8608,1.8774,1.8905,1.9108,1.8944,1.9046,1.9459,1.9188,1.8928,1.8379,1.8001,1.7628,1.7282,1.7152,1.7168,1.7435,1.7554,1.7445,1.7418,1.7262,1.7263,3.9898,4.0186,4.0199,3.9998,3.9647,3.9346,3.8956,3.8442,3.7664,3.6468,3.5014,3.4949,3.4525,3.3848,3.3308,3.3213,3.2873,3.2732,3.2957,3.3129,3.3328,3.3386,3.3386,3.3386,3.3386,3.3386,3.3386,3.3386,3.3276,3.2686,3.2113,3.1132,2.9932,2.8756,2.7883,2.7201,2.6574,2.6125,2.5533,2.518,2.4993,2.4187,2.3687,2.3732,2.3534,2.3764,2.3717,2.3993,2.4282,2.4201,2.354,2.3619,2.3739,2.3068,2.2971,2.3219,2.3167,2.3071,2.2918,2.2298,2.1341,2.0563,2.0469,2.0622,2.0182,2.0511,2.072,2.0848,2.102,2.0866,2.0709,2.0721,2.0867,2.0958,2.072,2.0184,2.0137,2.036,2.0169,1.9963,2.0154,2.047,2.044,2.0354,1.9626,1.8984,1.9411,1.981,2.0195,2.0426,1.9788,1.9402,1.9371,1.9248,1.9265,1.9452,1.9679,1.9886,2.0093,2.0093,2.0136,2.0343,2.0026,1.9402,1.8782,1.8458,1.8055,1.7576,1.7461,1.7581,1.7621,1.7581,1.7595,1.7608,1.7608,4.0387,4.0725,4.0738,4.0437,3.9923,3.9697,3.9333,3.8818,3.8311,3.7184,3.6111,3.6082,3.5402,3.4554,3.4365,3.3679,3.344,3.3147,3.3191,3.3304,3.3367,3.3386,3.3386,3.3386,3.3386,3.3386,3.3386,3.3386,3.3386,3.3386,3.2943,3.2208,3.1373,3.0306,2.8921,2.8064,2.755,2.7108,2.6597,2.62,2.5961,2.5078,2.4347,2.4507,2.4408,2.4377,2.4495,2.4666,2.482,2.4719,2.4401,2.4256,2.4061,2.3807,2.3529,2.3514,2.3483,2.3276,2.3031,2.2427,2.1893,2.1497,2.1176,2.1325,2.1385,2.1377,2.1396,2.1425,2.1557,2.1644,2.1629,2.1806,2.1937,2.2072,2.169,2.1268,2.149,2.1643,2.1262,2.0961,2.1069,2.095,2.0843,2.0708,2.0379,1.9841,2.0073,2.0341,2.0521,2.0637,2.0426,2.0159,2.0074,1.9924,1.9815,2.004,2.0241,2.0336,2.0491,2.0516,2.0615,2.0773,2.0779,2.0196,1.9642,1.9298,1.8773,1.8194,1.7842,1.7621,1.7621,1.7608,1.7608,1.7608,1.7608,4.1239,4.1289,4.1302,4.0976,4.0538,4.0988,4.0325,3.9183,3.9694,3.9307,3.8009,3.7167,3.6081,3.5272,3.569,3.4981,3.369,3.3501,3.3458,3.3414,3.3386,3.3386,3.3386,3.3386,3.3386,3.3386,3.3386,3.3386,3.3386,3.3386,3.3276,3.326,3.2686,3.1822,3.0275,2.9216,2.823,2.7255,2.6566,2.6264,2.6009,2.5375,2.49,2.4836,2.4853,2.4822,2.5009,2.4976,2.5038,2.4894,2.467,2.4464,2.4257,2.4112,2.3973,2.4036,2.4035,2.3845,2.3546,2.267,2.2422,2.2629,2.2364,2.2494,2.2737,2.2651,2.2456,2.2789,2.2672,2.2777,2.287,2.2828,2.2796,2.2785,2.2383,2.2263,2.2432,2.251,2.2051,2.1723,2.1389,2.1108,2.1035,2.0948,2.0891,2.0758,2.0848,2.0899,2.0886,2.0806,2.0678,2.0614,2.0514,2.0475,2.0385,2.0629,2.0806,2.0861,2.0835,2.0771,2.0617,2.0506,2.0537,2.0563,2.0343,1.9832,1.9298,1.8762,1.8213,1.7648,1.7621,1.7608,1.7608,1.7608,1.7608,4.1088,4.0826,4.158,4.158,4.1051,4.0826,4.0211,3.9584,3.9746,3.9591,3.8998,3.8438,3.7999,3.7459,3.6927,3.6292,3.5016,3.4309,3.4235,3.3418,3.3386,3.3386,3.3386,3.3386,3.3386,3.3386,3.3386,3.3386,3.3386,3.3386,3.3386,3.3386,3.326,3.2224,3.0568,2.9298,2.8263,2.7289,2.6597,2.6168,2.6104,2.5532,2.5183,2.5215,2.5167,2.523,2.5436,2.531,2.5103,2.5071,2.4896,2.4642,2.4577,2.4466,2.4258,2.4306,2.4305,2.4389,2.4327,2.3917,2.3109,2.3419,2.418,2.458,2.4856,2.4929,2.4718,2.425,2.382,2.3545,2.2747,2.2479,2.249,2.2904,2.277,2.2783,2.2861,2.2859,2.2658,2.2456,2.2157,2.1836,2.1683,2.1118,2.0927,2.0905,2.0905,2.0899,2.0899,2.0899,2.0822,2.0835,2.0796,2.0848,2.0912,2.0912,2.0912,2.0886,2.0886,2.0873,2.0665,2.0501,2.02,2.0205,2.0297,2.0326,1.9808,1.9182,1.8199,1.766,1.7621,1.7608,1.7608,1.7608,1.7608,4.1679,4.1455,4.1973,4.1845,4.1289,4.0926,4.0387,3.9771,3.9587,3.9532,3.9641,3.9729,3.9443,3.9035,3.8688,3.7325,3.6017,3.5438,3.4418,3.354,3.3386,3.3386,3.3386,3.3402,3.3386,3.3402,3.3402,3.3386,3.3386,3.3386,3.3386,3.3386,3.3355,3.2447,3.1069,2.9935,2.8888,2.79,2.7101,2.6327,2.6136,2.5802,2.5532,2.5501,2.5453,2.5485,2.5675,2.5548,2.5199,2.5247,2.512,2.4881,2.4881,2.477,2.4546,2.4641,2.49,2.5127,2.5348,2.6098,2.5538,2.5165,2.6603,2.7319,2.7102,2.6796,2.6307,2.5751,2.5053,2.4594,2.3961,2.3492,2.2745,2.3194,2.2932,2.2931,2.3294,2.3292,2.305,2.2891,2.2561,2.2366,2.2069,2.1441,2.0908,2.0911,2.0914,2.0908,2.0902,2.0899,2.0912,2.0912,2.0912,2.0912,2.0912,2.0912,2.0912,2.0912,2.0912,2.0912,2.102,2.0897,2.0364,1.9942,2.0312,2.0477,2.0232,1.9574,1.8395,1.7752,1.7621,1.7608,1.7608,1.7608,1.7608,4.295,4.2889,4.2425,4.1895,4.1352,4.1239,4.0675,3.9733,3.9435,3.9787,4.0584,4.0824,4.0577,4.012,4.0354,3.8874,3.6623,3.6097,3.4938,3.3996,3.3765,3.3639,3.356,3.3528,3.3607,3.3528,3.3434,3.3386,3.3386,3.3386,3.3386,3.3386,3.3386,3.2749,3.1857,3.0908,2.9772,2.854,2.754,2.6793,2.6376,2.6088,2.5882,2.5771,2.5612,2.5675,2.5723,2.5532,2.5294,2.5231,2.5183,2.5104,2.5088,2.5088,2.5088,2.5267,2.5657,2.6052,2.6753,2.7638,2.8126,2.7631,2.802,2.9279,2.9436,2.8482,2.772,2.7067,2.6395,2.6497,2.6364,2.486,2.3428,2.3251,2.2855,2.3112,2.3637,2.3627,2.3308,2.3013,2.2618,2.2321,2.2017,2.1486,2.1089,2.093,2.0932,2.0918,2.0923,2.0902,2.0915,2.0912,2.0912,2.0912,2.0912,2.0912,2.0912,2.0912,2.0912,2.0928,2.1106,2.1312,2.1146,2.0914,2.0739,2.0629,2.0488,1.9639,1.838,1.7962,1.7832,1.7608,1.7608,1.7608,1.7608,4.2534,4.1868,4.2512,4.2208,4.1364,4.1289,4.0901,4.0284,4.0185,4.0704,4.1719,4.1777,4.1586,4.1476,4.158,3.9852,3.8469,3.7263,3.5946,3.5072,3.4439,3.4392,3.4267,3.411,3.411,3.3953,3.3749,3.3528,3.3434,3.3434,3.3434,3.3386,3.3576,3.3244,3.2753,3.1953,3.0552,2.9196,2.8192,2.7279,2.6536,2.6136,2.6072,2.6041,2.558,2.5755,2.6136,2.5739,2.5564,2.5755,2.5644,2.5439,2.4749,2.4704,2.4781,2.5778,2.6253,2.6788,2.7874,2.8264,2.8729,2.9444,2.9475,2.979,3.0158,2.9837,2.8913,2.8367,2.7609,2.7481,2.7197,2.5995,2.4763,2.4118,2.3725,2.3679,2.4185,2.4438,2.4072,2.3192,2.2809,2.243,2.2096,2.1787,2.1424,2.1121,2.0973,2.0984,2.0958,2.0967,2.0981,2.0994,2.1007,2.1023,2.0944,2.0928,2.0912,2.0912,2.0912,2.0928,2.1033,2.1308,2.1742,2.162,2.1037,2.0846,2.0809,1.986,1.8929,1.8328,1.812,1.7832,1.7608,1.7635,1.7621,4.2585,4.2044,4.2208,4.1818,4.1127,4.1214,4.1215,4.1153,4.1153,4.1607,4.2187,4.2411,4.2493,4.2326,4.1923,4.0654,3.8722,3.7962,3.6755,3.5397,3.5263,3.5046,3.4875,3.4797,3.4797,3.461,3.4407,3.4188,3.389,3.3796,3.3812,3.3859,3.3985,3.3985,3.3702,3.3098,3.1937,3.04,2.901,2.7816,2.6939,2.628,2.6311,2.62,2.5611,2.6025,2.6487,2.5897,2.5897,2.5961,2.5786,2.5692,2.5297,2.5423,2.5626,2.6619,2.7435,2.8045,2.8832,2.9237,2.9723,3.0079,3.0199,3.0474,3.0439,3.0198,3.002,2.9761,2.8893,2.8171,2.7712,2.7168,2.6222,2.5321,2.4865,2.4408,2.4805,2.5275,2.4601,2.3593,2.3031,2.2645,2.2329,2.2039,2.1766,2.1511,2.1325,2.1232,2.1168,2.1092,2.1151,2.1174,2.1156,2.1153,2.1086,2.1023,2.0947,2.0931,2.0912,2.0928,2.1004,2.1108,2.1412,2.132,2.1045,2.0929,2.0865,2.0509,1.9776,1.9233,1.8608,1.8135,1.7885,1.774,1.7714,4.295,4.2875,4.1843,4.1177,4.0675,4.1177,4.1681,4.216,4.216,4.2288,4.24,4.2763,4.2936,4.2762,4.2245,4.1,3.9539,3.864,3.7436,3.5587,3.5788,3.5711,3.5541,3.5464,3.5464,3.5464,3.5247,3.4813,3.4579,3.447,3.4485,3.4532,3.4953,3.4937,3.4485,3.436,3.3351,3.1979,3.0492,2.9168,2.7569,2.6826,2.66,2.6262,2.6067,2.6052,2.6085,2.5974,2.5879,2.5958,2.5802,2.5993,2.6802,2.6891,2.7162,2.7653,2.8567,2.9057,2.9557,2.9939,2.9905,3.0132,3.032,3.0587,3.0557,3.0527,3.0474,3.0484,2.9675,2.9484,2.9132,2.853,2.7705,2.7319,2.7043,2.6333,2.5957,2.6221,2.5885,2.4855,2.3907,2.3494,2.2925,2.2648,2.2026,2.1843,2.1649,2.1517,2.1632,2.1528,2.1394,2.1444,2.1454,2.1465,2.1388,2.1293,2.1058,2.0994,2.0962,2.0912,2.0944,2.0992,2.1029,2.1094,2.1168,2.0947,2.0779,2.0542,2.0434,2.0215,1.9508,1.861,1.8215,1.814,1.7968,4.2637,4.2939,4.2286,4.1656,4.124,4.1744,4.206,4.2249,4.2637,4.2788,4.2838,4.2925,4.3,4.2916,4.2611,4.1511,4.0176,3.9254,3.8141,3.7004,3.6585,3.6417,3.6233,3.6141,3.6162,3.5978,3.5711,3.5387,3.5216,3.5154,3.5154,3.517,3.5495,3.5418,3.5185,3.5154,3.4496,3.3367,3.2692,3.1265,2.9747,2.8909,2.8535,2.8218,2.8018,2.7586,2.7705,2.8088,2.8215,2.8282,2.6744,2.7372,2.9128,2.8678,2.8639,2.9033,2.9536,2.9835,3.0059,3.0291,3.0175,2.9911,2.9992,3.0364,3.0577,3.0626,3.0699,3.0699,3.0665,3.0587,3.0384,2.9749,2.9275,2.9213,2.9159,2.8207,2.7221,2.7078,2.7031,2.6121,2.5058,2.429,2.3689,2.3089,2.245,2.2082,2.1881,2.1847,2.2314,2.2349,2.1877,2.1867,2.1844,2.1796,2.1735,2.1579,2.1372,2.1159,2.1082,2.1,2.0915,2.0944,2.1003,2.127,2.1346,2.1148,2.0996,2.0882,2.0791,2.0841,2.0728,1.9947,1.918,1.8942,1.863,4.2121,4.2562,4.2324,4.2009,4.1831,4.2311,4.2562,4.2626,4.2875,4.3,4.3,4.3,4.3,4.286,4.2569,4.2089,4.0683,3.9826,3.8819,3.7901,3.7223,3.7108,3.6956,3.6783,3.6828,3.6661,3.6178,3.5849,3.5834,3.5834,3.5834,3.588,3.6003,3.6095,3.5926,3.5772,3.5433,3.459,3.4606,3.3741,3.2133,3.1125,2.9632,2.9252,2.8811,2.8559,2.845,2.8749,2.8871,2.89,2.7944,2.9286,3.047,3.0143,2.9698,2.9925,3.0257,3.0453,3.05,3.0454,3.0377,3.0175,3.0166,3.0718,3.0738,3.082,3.082,3.0796,3.0484,3.0386,3.047,3.0031,2.9863,2.9793,2.9966,2.9617,2.8554,2.7832,2.7605,2.7041,2.5908,2.4815,2.4275,2.3888,2.3334,2.3132,2.281,2.2706,2.3058,2.3269,2.2765,2.2403,2.248,2.2304,2.2162,2.1957,2.1703,2.1489,2.1278,2.1059,2.0949,2.0916,2.0984,2.1307,2.1486,2.1402,2.1259,2.1232,2.1438,2.1589,2.1567,2.1388,2.0614,1.9924,1.9882,4.1505,4.1973,4.2149,4.2199,4.2288,4.2763,4.2975,4.2975,4.3,4.3,4.3,4.3,4.3,4.2706,4.2231,4.1863,4.1167,4.0068,3.9159,3.8455,3.7721,3.7419,3.7314,3.7314,3.7268,3.7117,3.6758,3.6591,3.6524,3.653,3.6554,3.6661,3.688,3.7123,3.6713,3.6484,3.6202,3.5865,3.5711,3.5603,3.4326,3.2887,3.1234,2.9969,2.9131,2.8887,2.876,2.8742,2.8973,2.9189,2.9503,3.058,3.1349,3.1094,3.081,3.0744,3.0845,3.0903,3.0854,3.0815,3.082,3.084,3.0928,3.0913,3.0913,3.0908,3.0908,3.0776,3.0483,3.0405,3.0488,3.0503,3.0397,3.0344,3.0582,3.0769,2.9686,2.8682,2.8263,2.7874,2.6869,2.568,2.5313,2.4909,2.4207,2.4045,2.4041,2.4011,2.4004,2.4052,2.3855,2.3533,2.3429,2.3164,2.2688,2.2389,2.2115,2.184,2.1613,2.127,2.1039,2.1225,2.1333,2.1447,2.1552,2.1589,2.1668,2.1677,2.1932,2.2172,2.2098,2.2001,2.1927,2.1398,2.1457,4.0713,4.0902,4.1808,4.2199,4.2299,4.2774,4.3,4.3,4.3,4.3,4.3,4.3,4.3,4.3,4.2888,4.2442,4.1635,4.0359,3.9439,3.873,3.7871,3.7525,3.7389,3.7389,3.7389,3.7283,3.7193,3.7208,3.7011,3.7086,3.7177,3.7177,3.7193,3.7314,3.7268,3.7102,3.6995,3.6752,3.6722,3.663,3.6005,3.4809,3.3988,3.2975,3.2212,3.1638,3.1226,3.0978,3.095,3.1067,3.1195,3.1497,3.1574,3.166,3.1429,3.1391,3.1481,3.128,3.1225,3.1132,3.1137,3.0908,3.0913,3.0913,3.0908,3.0918,3.0903,3.0928,3.0718,3.0718,3.0776,3.0776,3.0712,3.0712,3.0848,3.0864,3.035,2.9717,2.9231,2.8799,2.8168,2.7588,2.7445,2.6317,2.4452,2.4428,2.4699,2.467,2.46,2.4712,2.4915,2.4742,2.4503,2.3757,2.3169,2.286,2.2573,2.2271,2.199,2.1716,2.1602,2.1713,2.1819,2.1862,2.1875,2.1926,2.1989,2.2137,2.2212,2.2393,2.2412,2.2425,2.2533,2.2516,2.2307]}]]